GFSNW_850_dewp_000.txt.gz
Dewpoint
-4 -0 -1 -4 -6 -4 -1 4 6 3 4 7 7 7 6 5 5 5 5 5 5 5 6 6 5 7 6 5 5 6 5 6 7 5 1 1 -1 -0 -1 3 3 1 1 1
1 -3 -1 -4 -5 -5 3 4 2 4 4 7 7 5 5 5 5 6 5 6 5 5 6 8 7 7 5 5 6 6 5 6 8 7 5 3 5 2 0 1 3 5 3 1
6 3 -2 -3 -5 -4 1 3 5 4 2 2 4 5 5 5 4 5 4 5 5 5 6 6 7 6 5 5 5 4 4 5 5 5 3 2 5 4 3 3 4 3 3 1
7 6 2 -2 -5 -4 1 1 3 3 6 4 3 3 2 4 5 4 3 5 4 4 6 6 6 5 5 3 3 3 4 5 3 2 1 0 1 2 1 4 3 4 0 0
6 7 5 -2 -4 -3 2 3 1 1 2 1 -1 1 3 2 2 3 4 5 4 3 5 4 6 4 3 4 2 3 3 4 1 1 -2 -4 -2 -2 -3 -1 0 1 1 1
6 6 7 6 -5 -2 1 1 0 1 1 1 0 3 2 3 1 1 2 3 3 5 1 -1 -1 0 2 2 2 2 2 1 0 1 -2 -0 2 -0 -0 -1 -2 -2 0 -1
6 6 7 7 -1 -3 -1 -0 2 2 2 -0 1 1 0 1 1 1 0 -0 1 0 -3 -3 -3 -3 -3 -3 -2 -1 2 2 1 3 2 5 1 -1 -1 0 -1 -2 -1 -1
5 6 7 7 6 1 -1 -0 2 2 1 -0 -0 0 0 -0 -1 -0 -0 -1 -1 -2 -3 -0 1 -0 0 -1 1 0 -3 0 2 5 5 3 2 1 1 1 1 -1 -0 -1
5 6 7 7 7 7 5 4 4 4 3 2 -1 -2 -2 -0 -1 -1 -2 -3 -3 -3 -1 1 7 8 4 3 4 2 1 -1 2 5 6 8 2 0 -1 -1 3 2 1 1
5 6 6 7 7 7 7 6 6 6 6 2 2 3 2 -0 -0 -0 -2 -2 -2 -2 0 4 6 6 -0 5 4 5 4 3 4 4 5 5 1 -0 -1 4 4 2 2 2
5 5 6 7 7 7 7 7 7 6 7 5 3 4 4 1 1 4 0 1 1 1 2 4 4 3 2 2 1 3 5 6 6 5 5 6 0 1 3 1 1 1 2 2
4 5 6 6 7 8 7 7 7 7 6 7 6 5 4 2 3 4 0 3 1 2 4 2 2 2 1 2 5 -1 3 2 4 5 5 2 0 0 0 -0 0 1 0 -0
2 4 5 5 6 7 7 7 7 7 7 6 6 6 6 6 4 3 3 2 2 1 3 3 4 5 2 5 4 3 2 0 2 2 0 0 0 -0 0 0 -0 -1 -1 -1
-0 2 4 5 5 6 6 6 6 6 6 6 6 5 4 4 5 5 3 4 2 2 2 4 4 5 3 5 4 4 2 2 3 3 2 1 1 0 1 1 1 0 -0 -1
-1 0 3 4 4 5 5 5 5 6 6 6 6 5 5 4 4 4 5 4 3 2 3 4 5 4 4 4 4 4 2 3 4 3 0 1 1 1 1 1 1 0 -0 -1
0 0 2 3 3 4 5 5 5 5 5 5 5 5 4 4 4 5 5 5 4 3 3 4 3 3 3 5 5 2 1 1 1 1 0 1 1 0 1 1 1 1 0 -1
0 0 2 2 3 4 4 5 4 4 5 5 4 5 4 3 4 4 4 5 5 4 3 4 4 3 3 5 4 1 -0 0 0 -0 0 1 1 1 1 1 1 1 0 -0
1 2 2 2 2 3 4 4 4 4 4 4 3 4 3 3 3 4 4 4 4 4 4 4 4 4 4 4 2 1 0 0 0 -0 -0 1 1 1 1 1 0 0 0 -0
2 2 2 2 3 2 3 3 3 4 4 4 3 4 4 3 2 3 3 3 4 4 4 4 3 4 4 2 2 1 1 1 1 1 1 1 1 1 0 0 -0 -1 -1 -3
2 2 2 2 2 2 1 2 2 3 4 3 2 3 3 2 3 2 2 1 2 3 2 2 2 3 1 -1 -1 -0 0 1 1 -1 -1 0 0 0 -1 -0 -1 -2 -8 -14
2 1 1 1 2 2 1 1 2 2 2 2 1 2 2 2 3 3 2 2 1 2 2 2 2 1 -0 -2 -1 -0 -1 -2 -4 -5 -4 -1 -0 -1 -0 -1 -3 -4 -17 -23
1 -1 1 1 1 1 1 1 0 1 2 2 1 1 1 1 1 2 1 2 1 2 -1 1 -0 -1 -2 -2 -4 -6 -7 -9 -10 -10 -5 -2 -1 -0 -0 -2 -5 -21 -21 -20
1 1 1 0 -0 0 0 1 1 2 0 -0 0 0 1 1 1 1 1 2 2 -2 -0 -0 -1 -1 -3 -5 -7 -11 -13 -12 -8 -4 -2 -1 -1 -2 -6 -15 -22 -20 -19 -18
-0 0 -0 -1 -1 -1 -0 1 1 -0 -0 -1 -0 -0 -0 -0 1 1 1 1 -1 0 1 -1 -2 -3 -4 -6 -11 -13 -11 -8 -5 -3 -2 -3 -6 -15 -26 -21 -19 -18 -18 -18
-1 0 -1 -1 -1 -1 -1 -2 -2 -3 -2 -1 -1 -1 -2 -1 0 -1 0 1 0 -1 -1 -1 -4 -7 -9 -11 -13 -12 -10 -7 -4 -4 -5 -8 -19 -26 -22 -19 -17 -17 -17 -17
-0 -1 0 -2 -1 -1 -3 -3 -2 -3 -1 -1 -1 -2 -1 -1 -1 0 0 0 -1 -2 -3 -4 -4 -5 -8 -12 -13 -12 -10 -7 -5 -5 -6 -10 -19 -21 -19 -15 -16 -16 -15 -16
-0 -1 -2 -1 -1 0 -2 -2 -2 -3 -2 -2 -1 -1 -2 -3 -1 0 -2 -1 -2 -2 -4 -6 -7 -8 -11 -10 -10 -11 -11 -8 -5 -5 -6 -9 -15 -18 -16 -15 -15 -14 -14 -16

GFSNW_850_dewp_003.txt.gz
Dewpoint
7 -0 -1 -3 -5 -4 1 4 3 4 6 6 6 7 7 5 6 6 6 6 7 7 8 6 8 8 7 5 5 6 5 5 7 6 1 1 -0 0 -1 2 3 2 1 2
7 5 2 -2 -4 -4 2 3 3 2 4 7 7 5 6 5 6 6 6 7 6 5 6 8 7 6 5 5 5 6 5 6 8 6 3 2 4 3 1 1 2 4 3 2
7 7 5 -2 -4 -2 2 3 4 2 3 4 5 6 6 6 5 5 5 5 4 6 7 6 7 6 5 4 4 3 3 4 4 5 3 3 5 4 3 2 4 3 3 2
6 7 6 0 -4 -0 2 1 2 3 4 2 2 2 4 5 6 5 4 4 4 5 7 6 6 5 5 3 3 2 3 3 2 1 0 -1 1 1 2 4 3 3 -1 0
6 6 7 6 -4 -1 1 2 1 1 2 1 1 2 3 3 3 4 5 6 4 4 5 5 6 5 4 4 2 3 1 3 -0 -1 -2 -3 -2 -3 -2 -1 0 2 2 1
5 6 6 7 -4 -1 0 1 2 -0 1 1 1 2 2 2 2 2 1 3 4 3 0 -2 -2 1 2 2 2 2 2 -0 -0 -0 -0 0 2 0 -1 -1 -2 -2 -0 -2
5 5 6 7 -1 -2 0 1 3 1 2 1 2 1 1 0 0 1 -1 0 1 0 -3 -3 -3 -4 -4 -3 -2 -1 2 1 1 2 2 5 0 -1 -1 -0 -0 -1 -1 -2
5 5 6 7 6 0 -2 0 2 1 1 0 1 1 -0 -1 -2 -1 -0 -1 -1 -3 -3 -0 0 1 1 1 2 2 -2 1 2 4 4 3 2 1 1 1 1 -0 -0 1
5 5 6 7 7 6 3 4 4 4 1 1 -1 -1 -2 -1 -1 -2 -2 -3 -3 -2 -1 2 6 6 4 3 4 2 1 -0 1 1 4 6 3 0 -1 -1 2 2 1 2
5 5 5 6 7 7 7 6 6 6 4 1 -0 1 0 -0 0 -0 -2 -2 -2 -1 1 4 4 5 0 4 4 5 3 3 3 4 4 3 1 -0 -0 3 2 1 2 2
4 5 6 6 7 7 7 7 7 6 7 3 3 3 2 1 1 2 0 2 1 1 3 4 3 4 2 2 2 4 4 4 5 4 4 5 0 1 2 1 1 1 0 1
2 4 5 6 7 7 7 6 6 6 6 7 5 4 3 3 3 4 0 3 1 1 3 2 2 2 1 1 4 -0 3 2 5 4 3 0 0 0 -0 0 -0 -0 -1 -1
-1 2 4 5 7 7 8 7 7 7 6 6 6 6 6 5 4 4 2 2 2 2 3 3 3 4 1 4 3 2 1 1 3 2 1 1 1 0 1 1 1 1 1 0
-2 -0 2 4 5 6 7 7 7 7 6 6 6 6 5 5 5 3 4 3 3 3 2 4 4 5 3 5 4 3 2 2 3 3 1 0 0 0 1 1 1 1 1 1
-2 -1 1 4 4 5 6 6 6 6 6 6 6 5 5 4 4 5 4 4 3 2 2 3 3 4 4 4 3 3 2 2 3 3 1 1 1 1 0 1 1 1 1 1
0 -1 2 3 4 3 4 5 4 6 6 4 5 5 4 5 4 5 5 4 4 4 3 3 3 3 3 4 4 2 2 2 2 2 0 -0 0 1 1 1 1 1 1 0
0 0 3 3 3 4 5 5 5 5 5 4 3 4 4 4 4 4 5 5 4 4 4 4 4 3 3 4 4 1 1 1 -0 -0 0 0 0 1 1 1 1 1 1 1
0 1 2 2 3 4 4 4 4 5 4 5 2 3 3 3 4 4 4 4 4 4 4 3 4 4 4 4 2 1 1 0 1 1 1 1 1 1 0 0 1 1 0 -0
1 2 2 2 3 2 3 4 4 5 4 4 3 3 4 3 3 3 3 3 3 4 4 4 3 4 4 2 2 1 0 -0 1 1 1 0 -2 -3 -1 0 0 0 -0 -1
2 2 2 3 2 2 3 3 3 4 3 3 3 3 3 2 3 3 2 1 2 3 2 2 2 3 1 0 -0 -0 -0 0 0 -0 -2 -7 -8 -4 -2 -1 -1 -1 -1 -2
3 2 1 2 2 2 1 1 1 2 2 2 2 3 2 2 2 2 1 1 1 2 1 0 2 1 -1 -3 -3 -2 -1 -2 -4 -8 -8 -7 -4 -2 -1 -1 -1 -1 -5 -9
1 0 1 2 1 1 -0 0 0 1 1 2 1 1 2 2 2 1 1 1 1 0 0 1 -0 -2 -3 -2 -3 -5 -7 -9 -11 -11 -9 -6 -2 -2 -1 -1 -2 -3 -13 -21
-1 -1 1 0 0 0 -0 -0 -0 1 0 0 1 1 1 1 1 1 1 1 1 -2 -0 -0 -2 -3 -2 -2 -5 -8 -12 -12 -12 -11 -10 -7 -4 -2 -1 -2 -7 -21 -21 -21
1 -0 0 -2 -2 -2 -4 -3 -2 -0 -0 -0 0 -0 -0 0 1 -0 -0 1 -2 -0 0 -1 -3 -4 -4 -4 -7 -11 -11 -11 -11 -12 -10 -7 -4 -3 -6 -15 -24 -21 -20 -19
0 -0 -2 -3 -3 -2 -1 -1 -2 -1 -0 -1 -1 -2 -2 -1 -1 -1 -1 -0 -0 -1 -2 -3 -4 -6 -7 -8 -10 -10 -11 -11 -11 -11 -9 -7 -5 -6 -14 -24 -22 -19 -18 -17
-0 -1 -1 -2 -2 -2 -3 -2 -2 -1 -1 -1 -2 -2 -1 -2 -1 -0 -0 -0 -1 -2 -3 -4 -4 -6 -7 -7 -9 -10 -9 -8 -9 -11 -9 -7 -7 -8 -15 -21 -20 -18 -16 -15
-1 -1 -3 -2 -2 -2 -2 -2 -2 -1 -1 -4 -2 -3 -4 -4 -1 -1 -3 -2 -3 -4 -4 -4 -5 -5 -4 -5 -9 -9 -6 -5 -7 -10 -8 -6 -7 -9 -12 -16 -18 -15 -14 -13

GFSNW_850_dewp_006.txt.gz
Dewpoint
6 6 4 1 -3 -3 2 4 3 5 7 6 6 8 9 8 8 8 8 4 5 7 8 7 8 8 7 5 5 6 5 4 5 4 1 -0 -0 1 -1 2 2 2 1 2
5 7 7 2 -3 -3 2 3 4 6 7 8 7 5 6 7 8 7 7 8 7 6 7 8 7 7 5 5 5 5 4 6 7 6 4 2 3 1 -0 1 2 4 4 3
5 6 7 4 -2 -3 2 3 3 2 5 4 5 6 6 7 7 7 5 6 6 6 6 6 7 7 5 4 4 3 2 3 5 7 5 4 5 5 2 1 3 2 3 1
5 6 6 7 -1 -2 2 1 2 3 3 2 3 3 4 6 6 5 5 5 5 6 6 6 6 5 4 3 2 2 1 3 2 1 0 0 2 3 4 4 2 2 0 1
5 5 6 7 0 -2 2 1 1 2 2 1 2 2 3 4 4 4 5 5 2 3 4 4 6 5 4 4 2 2 1 2 -1 -2 -2 -2 -2 -2 -2 0 2 2 2 1
5 5 6 6 1 -2 1 2 2 -0 1 0 1 2 2 2 3 1 1 3 1 1 -1 -2 1 2 1 2 2 2 1 -1 -1 -2 0 0 1 0 -1 -3 -3 -3 -2 -4
5 5 5 6 4 -2 1 2 2 -0 1 1 2 1 0 1 0 2 -1 1 1 -1 -2 -3 -4 -3 -1 -0 0 0 1 1 1 1 1 4 0 -1 -1 -1 -1 -2 -2 -1
5 5 5 6 7 -1 -1 1 2 0 1 1 1 -0 -0 -1 -2 -1 -1 -1 -1 -3 -2 0 1 2 1 1 2 1 -1 0 2 4 4 2 1 0 1 1 2 1 1 1
4 5 5 6 7 5 2 4 3 2 1 0 -0 -1 -2 -1 -1 -2 -3 -2 -2 -2 0 3 5 5 3 3 4 1 -1 -0 1 2 4 5 1 -0 -1 -2 1 1 2 2
4 5 5 6 7 7 6 6 5 6 1 1 -1 -1 0 -1 -1 -0 -2 -3 -2 -1 2 5 5 6 2 4 4 3 1 1 3 4 4 3 0 -0 -1 2 -0 2 1 1
3 4 5 5 6 7 7 7 6 6 5 2 3 2 0 1 1 3 -0 2 1 1 4 4 3 4 2 2 2 3 3 3 3 3 4 4 0 1 3 1 1 -0 -0 -0
3 4 5 6 6 7 7 7 6 6 6 5 4 3 2 3 3 2 -0 3 1 1 3 2 2 3 1 2 4 0 3 3 4 2 2 0 0 0 0 0 0 0 0 0
-0 3 4 4 6 7 7 7 7 6 6 6 6 5 5 4 4 3 2 2 2 2 2 2 2 3 1 3 3 2 1 0 3 2 1 1 0 0 0 1 1 1 1 1
-2 0 3 4 5 6 7 8 7 6 6 5 6 6 6 6 4 4 4 3 2 3 3 4 4 5 2 3 3 3 1 2 2 3 1 0 1 1 1 1 1 1 1 1
-3 -1 2 4 5 6 6 7 7 6 5 6 6 5 4 4 5 4 4 3 3 3 3 4 4 4 3 2 2 4 2 2 3 3 1 1 1 -0 -0 1 1 1 1 1
-3 -1 2 4 4 5 5 4 4 5 4 4 3 5 4 5 5 5 4 4 3 3 3 3 3 3 2 3 3 1 1 2 1 1 1 0 -0 0 0 0 0 0 1 1
-1 -1 2 3 4 3 3 3 4 3 4 3 3 4 4 5 5 5 5 4 4 4 3 3 3 3 2 3 3 1 1 1 1 0 -0 0 0 -0 0 1 1 1 1 1
0 2 3 3 3 4 4 4 5 5 4 4 2 3 3 4 4 4 5 5 4 4 4 3 3 3 3 4 2 1 1 1 0 0 0 1 0 0 -0 -1 -1 1 1 0
1 2 2 2 3 2 3 4 5 5 4 4 3 3 4 3 3 3 3 3 4 4 4 3 3 3 4 2 1 1 1 1 -1 0 0 0 -1 -5 -6 -5 -4 -1 -1 -1
2 2 3 2 2 2 3 4 4 4 4 3 2 3 3 2 3 2 2 1 3 3 3 3 3 3 2 1 1 1 1 -0 -0 0 -0 -4 -9 -9 -7 -3 -2 -1 -2 -1
2 2 1 2 2 1 1 1 1 2 2 2 3 2 2 2 2 3 0 1 1 2 -1 2 1 0 -1 -2 -2 -1 -1 -1 -3 -7 -11 -10 -9 -7 -4 -3 -2 -1 -1 -2
2 1 2 2 1 1 -1 0 -0 1 -0 1 1 2 1 2 2 1 1 0 0 1 0 0 1 -1 -3 -2 -3 -5 -7 -9 -11 -11 -9 -9 -8 -5 -3 -3 -2 -2 -2 -8
0 -1 1 0 0 -0 -1 -1 -1 -0 -1 1 1 1 1 1 1 0 1 1 1 -1 1 -1 -2 -4 -3 -3 -4 -7 -11 -11 -10 -7 -7 -9 -9 -6 -3 -2 -3 -4 -13 -21
1 0 0 -1 -1 -2 -3 -4 -4 -2 0 1 1 -0 0 1 0 0 1 0 -1 0 0 -2 -3 -4 -4 -4 -5 -9 -11 -11 -8 -6 -7 -10 -9 -6 -5 -5 -10 -20 -22 -20
0 -0 -1 -1 -5 -3 -3 -2 -1 -1 0 -0 -1 -2 -2 -1 -1 -1 -0 -0 -0 -1 -2 -2 -4 -6 -7 -7 -7 -8 -9 -10 -8 -6 -6 -9 -10 -7 -6 -8 -15 -22 -21 -20
-1 -1 -3 -3 -2 -3 -2 -2 -2 -0 -1 -1 -2 -2 -2 -1 -3 -1 -1 -2 -1 -2 -3 -5 -5 -6 -6 -5 -5 -6 -7 -10 -9 -5 -5 -7 -9 -7 -7 -9 -15 -19 -21 -20
-1 -2 -2 -2 -3 -2 -2 -2 -1 -1 -1 -4 -3 -5 -5 -3 -3 -3 -3 -2 -2 -4 -5 -5 -5 -5 -5 -4 -4 -5 -6 -8 -7 -5 -4 -7 -8 -6 -7 -8 -10 -14 -16 -16

GFSNW_850_dewp_009.txt.gz
Dewpoint
6 5 7 7 3 -4 2 5 4 7 6 8 7 8 9 5 5 8 8 5 5 5 5 7 8 8 6 5 4 6 3 3 4 3 1 -1 -1 -1 -1 2 2 1 1 2
5 5 6 7 3 -3 1 4 7 7 7 8 8 8 8 8 9 8 7 5 5 6 7 9 7 7 5 5 5 5 4 5 7 6 4 2 3 1 -1 1 1 3 3 2
5 5 6 7 6 -3 -1 4 4 6 6 6 6 6 8 9 8 7 6 7 6 6 6 6 7 7 5 4 4 4 2 4 4 5 5 4 5 4 1 1 3 2 2 1
4 5 6 6 7 -3 -0 3 1 3 4 4 4 4 6 8 8 7 6 7 7 6 7 6 7 6 4 3 2 1 0 3 2 1 1 3 3 4 3 2 1 2 0 2
4 5 5 6 7 -3 1 3 2 2 2 1 2 2 4 5 4 7 8 7 5 5 5 5 6 5 5 4 2 1 -0 2 -1 -2 -1 -2 -2 -1 3 3 3 2 2 1
4 5 5 6 7 -3 1 2 2 1 1 0 1 2 3 4 2 1 4 3 3 3 -0 -1 1 2 1 2 2 2 -1 -1 -2 -1 0 -0 -0 -0 -2 -3 -3 -2 -2 -4
4 5 5 6 7 -2 0 2 3 -0 1 1 1 2 1 3 1 2 1 0 0 -1 -3 -2 -1 -2 -0 1 1 -1 0 0 0 0 1 3 -2 -1 -1 -2 -1 -3 1 1
4 4 5 6 7 1 -1 1 3 0 1 1 0 -0 -0 -1 -2 -1 -1 -1 -1 -3 -3 0 2 3 1 1 2 0 -1 1 3 4 3 1 2 0 -0 1 3 1 2 1
3 4 5 5 7 6 0 3 3 1 1 1 -0 -1 -1 -1 -1 -2 -3 -2 -2 -2 1 3 3 4 3 4 3 -1 -1 -1 2 3 5 5 1 -0 -1 -3 5 1 2 2
2 4 5 6 6 7 4 5 5 4 0 2 -1 -1 -1 -2 -1 -0 -2 -3 -2 -0 3 5 4 5 2 5 5 2 1 1 3 4 4 3 -0 -1 -1 3 -0 2 1 1
2 4 5 5 6 7 7 6 6 6 2 3 2 1 -0 0 0 3 -1 2 1 1 4 4 4 4 2 3 2 1 1 2 3 3 4 4 -0 1 2 0 1 -0 -0 -0
1 2 4 5 6 6 7 7 6 6 5 3 3 2 2 2 3 1 -1 3 1 1 3 2 2 3 1 2 4 1 4 2 3 2 2 -0 0 0 0 0 0 0 0 0
1 1 4 5 6 6 7 7 6 6 6 5 5 5 3 3 3 1 3 2 2 3 1 1 2 3 1 3 2 2 1 0 2 2 1 1 0 0 0 1 1 1 1 1
0 -0 3 4 5 6 6 7 7 6 5 5 5 6 6 5 4 4 4 3 2 2 3 3 3 4 1 2 2 2 1 1 2 2 1 1 0 1 1 1 1 1 1 1
-1 -1 1 3 5 5 6 7 7 6 5 6 5 5 4 5 5 4 4 3 2 3 3 3 5 4 3 2 2 4 2 2 3 3 1 0 1 0 0 0 1 1 1 1
-2 -0 1 3 5 5 6 5 6 5 3 4 4 4 5 5 5 3 3 3 4 4 3 3 4 3 2 3 2 0 1 2 1 1 1 0 -0 0 -1 -1 -1 -1 -1 -0
-2 2 3 4 5 5 3 3 4 5 3 1 4 3 4 5 5 5 4 4 4 4 3 3 3 3 2 2 3 0 1 1 1 0 0 0 0 -0 -0 -0 -1 -2 -2 -1
1 3 3 4 3 3 2 3 4 4 2 1 2 3 3 4 4 4 5 4 4 4 4 4 3 3 3 2 1 1 1 1 0 0 0 0 -0 -0 -1 -4 -8 -8 -6 -3
3 3 3 3 3 2 2 3 5 4 2 3 2 3 3 3 3 4 3 3 4 4 4 3 2 3 3 1 1 1 1 1 -0 -0 0 -0 -0 -5 -9 -9 -8 -7 -4 -2
2 2 1 2 2 2 3 4 4 3 4 3 2 2 3 3 3 2 2 2 3 3 3 3 3 4 2 1 1 1 0 1 -1 -1 -0 -1 -8 -9 -8 -8 -6 -4 -2 -2
2 2 1 2 3 3 1 2 2 2 0 2 2 2 2 2 2 2 1 1 1 2 0 3 2 -1 -2 -2 -2 -1 0 1 -0 -4 -9 -9 -8 -8 -8 -6 -4 -3 -3 -2
2 1 2 2 1 0 -1 1 0 1 -0 1 2 2 2 2 1 1 0 1 0 -1 -0 1 -1 -3 -2 -3 -2 -2 -3 -6 -10 -8 -7 -6 -7 -8 -9 -7 -5 -3 -2 -2
2 2 2 0 0 0 0 0 0 0 -1 1 1 1 1 1 1 0 0 1 -1 -1 1 -0 -3 -4 -2 -3 -5 -8 -11 -11 -9 -7 -6 -6 -7 -8 -10 -8 -4 -3 -3 -4
0 -0 0 0 -0 -2 -3 -4 -3 -3 0 1 1 0 1 1 0 1 1 0 -0 0 -1 -3 -5 -4 -4 -4 -6 -10 -10 -10 -9 -8 -6 -5 -5 -6 -9 -10 -6 -5 -7 -13
-0 -0 1 -1 -5 -4 -4 -3 -1 -0 1 1 -1 -1 -1 -1 -0 -1 0 0 0 -2 -4 -5 -5 -4 -5 -7 -8 -8 -8 -8 -9 -9 -8 -5 -4 -5 -6 -8 -7 -7 -12 -20
-1 -1 -4 -3 -4 -3 -3 -3 -2 -0 -0 -1 -3 -2 -2 -1 -1 0 -0 -1 -3 -4 -6 -5 -5 -6 -7 -7 -8 -7 -6 -6 -6 -7 -10 -7 -4 -4 -6 -7 -8 -8 -12 -18
-1 -2 -2 -3 -3 -3 -2 -2 -1 -0 -1 -2 -3 -5 -3 -3 -3 -2 -4 -3 -5 -4 -4 -5 -7 -7 -7 -6 -7 -6 -5 -5 -5 -6 -6 -7 -5 -4 -6 -8 -7 -8 -11 -15

GFSNW_850_dewp_012.txt.gz
Dewpoint
6 5 6 6 7 3 -1 4 4 6 5 6 6 6 8 7 7 7 7 5 5 5 7 7 8 8 7 4 4 3 1 2 3 2 0 -2 -2 -1 -1 4 3 1 2 2
5 5 6 6 6 4 -1 4 6 6 6 8 8 8 8 7 7 8 8 5 4 4 6 8 8 8 5 5 4 4 3 4 6 6 4 3 2 -0 -2 -0 1 2 3 2
5 5 6 6 6 6 -2 4 6 6 6 6 7 8 8 8 8 8 6 6 5 6 7 7 8 7 5 5 4 4 2 4 3 6 4 3 4 2 0 1 3 3 2 1
5 5 5 6 6 6 -1 4 2 5 6 6 5 5 8 9 9 7 6 7 5 6 7 7 7 5 4 3 3 2 0 4 2 1 2 3 3 3 1 2 1 3 2 1
5 5 5 5 6 6 -0 3 2 2 2 1 4 3 7 8 5 7 7 7 6 5 6 5 7 5 5 4 2 1 -0 2 -0 -1 -1 -1 1 3 2 1 1 0 1 1
5 5 5 5 6 5 2 2 2 1 1 1 2 3 5 4 3 5 3 4 5 2 1 0 2 1 1 2 2 1 -1 -1 0 1 -0 -1 -1 -1 3 2 1 2 3 0
5 5 5 5 6 6 0 2 3 0 1 1 1 2 2 3 2 5 0 3 4 0 -1 -0 -1 -1 0 0 0 -1 -1 -1 -1 -0 0 -0 -3 -1 -3 -1 -1 -3 0 0
4 4 5 5 6 7 -1 1 3 0 1 1 0 1 1 -1 -1 1 -1 -1 3 -2 -2 3 6 4 3 1 0 -0 -1 0 2 2 1 -1 2 0 0 1 3 1 2 2
3 4 4 5 6 7 0 3 3 1 1 1 -0 -1 -1 -0 -1 -2 -2 -1 -2 -2 2 2 6 8 7 2 2 -1 -1 -0 1 3 5 4 0 -0 -1 -0 5 1 2 2
3 5 4 5 6 7 5 4 5 4 0 1 -1 -1 -0 -2 -1 -1 -3 -2 -1 -0 3 5 5 5 2 3 3 1 1 2 2 4 4 3 -1 -1 -1 3 2 2 2 1
4 4 4 5 6 6 7 6 6 6 1 3 2 1 -1 -1 -0 -0 -2 0 0 2 4 4 4 4 2 3 2 1 1 2 3 3 4 4 -0 0 2 0 1 -0 -0 -0
4 4 4 5 5 7 7 7 6 6 2 4 2 2 2 2 2 -0 -1 2 1 1 3 2 2 3 1 2 5 1 3 1 2 2 2 0 0 0 0 0 -0 0 0 -0
3 4 3 5 6 6 7 7 6 6 4 5 5 4 3 3 2 0 3 2 2 2 2 1 2 2 1 3 3 2 1 0 2 2 1 0 0 0 0 0 0 0 1 1
2 3 3 5 6 5 7 7 6 6 5 5 5 5 5 4 4 4 3 3 2 2 2 2 3 3 1 2 2 2 1 1 2 2 1 1 0 0 1 1 1 1 1 1
1 2 3 5 5 6 7 7 7 6 5 5 5 5 5 5 4 4 3 2 2 3 3 3 3 3 2 1 1 3 1 2 3 2 1 1 1 1 -0 0 0 1 0 -0
1 0 3 4 5 5 6 7 7 5 5 5 5 4 5 5 3 3 3 3 3 3 3 3 3 3 1 1 2 0 2 2 1 1 1 0 0 0 -0 -1 -0 -1 -2 -4
-0 1 4 4 5 6 5 3 5 3 2 2 3 3 5 5 4 4 4 4 4 4 3 3 3 3 1 1 2 -1 0 1 1 1 0 0 0 -0 -0 -1 -2 -6 -7 -7
-0 3 4 4 4 5 3 2 5 4 2 1 2 3 4 4 4 4 5 4 4 4 4 3 3 3 2 3 0 1 1 1 0 0 -0 -0 -0 -1 -1 -5 -8 -9 -8 -8
3 3 4 4 4 3 3 4 4 3 2 2 2 3 3 4 3 4 3 3 4 4 4 3 3 3 3 1 0 1 1 0 1 1 0 -0 -0 -5 -9 -9 -8 -7 -8 -8
3 3 2 2 2 2 3 3 3 3 3 3 1 2 3 3 3 2 2 2 3 4 3 3 3 2 2 1 0 0 1 0 -0 -0 0 -1 -9 -9 -8 -8 -8 -8 -7 -5
3 2 1 3 4 2 1 2 1 1 1 2 2 2 2 2 2 2 1 1 -0 -0 0 3 1 0 -2 0 1 1 0 0 -0 -2 -9 -8 -8 -8 -8 -8 -8 -7 -6 -5
2 1 3 2 0 0 -1 1 -1 1 -0 1 2 2 1 1 1 0 -0 0 -2 1 1 2 -1 -3 -3 -2 -1 -1 1 1 -1 -8 -8 -8 -8 -7 -7 -8 -10 -9 -6 -4
1 2 2 1 0 0 1 2 1 -2 -2 1 1 1 1 1 -0 -0 -2 -0 -0 -1 1 0 -2 -4 -2 -3 -2 -0 -0 -5 -7 -7 -7 -7 -6 -5 -6 -7 -8 -9 -7 -5
1 0 0 1 0 -0 -1 -4 -3 -2 0 1 1 0 -0 1 0 1 1 -0 -1 1 -0 -2 -5 -4 -3 -5 -8 -10 -10 -9 -8 -7 -7 -6 -6 -5 -5 -5 -6 -8 -8 -6
-0 0 1 -1 -5 -4 -4 -3 -2 -0 1 1 -0 -1 -0 -1 -0 -1 -2 0 0 -1 -3 -5 -5 -4 -3 -7 -9 -9 -9 -9 -9 -9 -9 -9 -8 -6 -5 -5 -5 -6 -8 -8
-0 -1 -3 -4 -5 -4 -4 -3 -1 1 1 -1 -2 -3 -2 -1 -2 0 -1 -2 -2 -4 -7 -5 -4 -4 -6 -8 -9 -9 -8 -7 -7 -6 -6 -8 -9 -8 -6 -5 -5 -6 -7 -8
-1 -2 -3 -4 -4 -4 -3 -2 -0 0 -1 -2 -3 -2 -1 -2 -1 -1 -4 -4 -6 -6 -4 -4 -6 -7 -8 -7 -7 -7 -6 -5 -5 -6 -6 -6 -6 -6 -6 -5 -6 -7 -7 -9

GFSNW_850_dewp_015.txt.gz
Dewpoint
5 5 5 5 5 6 2 4 5 6 5 5 5 6 5 5 7 5 5 4 5 4 2 5 7 7 6 5 4 2 -1 2 5 2 1 -1 -1 1 1 4 4 2 2 3
5 5 5 5 6 6 2 4 6 5 5 7 6 5 6 5 7 5 7 6 4 3 4 8 7 7 4 5 5 3 2 4 6 5 3 3 1 -2 -1 0 0 2 4 3
5 4 5 5 6 6 3 5 7 6 5 6 7 8 8 8 7 8 8 5 4 5 7 6 7 8 6 5 4 3 1 3 4 7 5 3 4 1 -1 0 3 2 1 0
5 4 5 5 6 6 4 3 3 6 6 6 6 8 8 7 9 7 8 6 5 5 8 8 8 7 5 4 4 2 2 4 2 0 2 2 3 3 1 1 1 2 1 1
5 4 4 5 6 6 6 4 2 3 2 2 6 7 8 8 8 7 7 7 5 5 6 6 7 6 5 5 2 2 0 3 -0 -0 1 2 3 3 1 0 1 1 0 1
5 4 4 5 6 6 3 2 3 2 1 1 4 4 6 7 6 6 3 4 5 7 2 1 4 3 3 3 2 1 1 -0 2 3 -1 -1 2 1 3 1 1 0 2 0
5 5 4 5 5 6 6 2 3 1 1 2 2 2 4 5 4 7 1 3 3 3 0 0 1 1 0 1 -1 -1 2 -1 -0 1 -1 2 -0 -2 1 2 -1 -1 -1 -2
5 4 4 4 5 6 6 2 3 2 0 1 1 1 1 -0 2 2 2 1 2 -0 -0 6 7 6 2 2 1 -1 -1 0 2 3 1 -0 1 0 0 1 2 -2 2 2
5 4 5 5 5 6 6 1 3 3 1 0 -0 -0 -1 1 -1 2 1 3 2 2 4 4 8 8 7 4 2 -1 -1 2 3 3 4 1 -1 -0 -2 -0 3 2 2 2
5 4 4 4 5 6 6 3 4 4 -0 1 -1 -0 -0 -1 -1 1 0 1 3 3 5 5 5 6 3 4 3 3 2 1 1 4 3 2 -1 -0 -2 3 1 2 2 2
4 4 4 4 5 6 6 6 5 6 2 3 2 0 -1 -1 -2 -0 -1 2 -0 3 6 6 5 5 3 3 1 1 2 3 3 3 4 3 -1 0 1 0 2 1 0 0
4 4 4 4 5 6 6 6 6 6 2 4 3 2 1 1 1 -2 -1 1 -0 0 3 3 2 3 1 3 4 1 2 0 2 2 2 0 0 0 1 1 -0 -0 -0 -1
4 4 4 4 5 6 6 7 6 5 4 4 4 4 3 3 1 -2 1 2 1 2 2 1 2 3 1 4 3 2 1 0 2 1 1 0 1 0 -0 -0 0 -0 -0 -0
5 4 4 4 5 6 6 7 7 6 4 4 4 5 4 4 3 2 3 2 2 1 2 2 2 3 0 2 1 1 0 0 1 2 1 0 0 0 0 0 0 0 0 0
5 4 4 4 5 5 6 7 7 6 5 5 5 5 5 5 4 4 3 2 2 3 3 3 4 2 2 1 1 2 1 1 2 2 1 1 1 1 1 0 0 0 0 -0
5 3 4 4 5 6 6 6 7 7 5 5 5 4 5 4 3 3 3 3 3 3 3 2 3 3 1 1 3 0 1 1 0 0 1 0 0 0 0 -0 -1 -1 -3 -5
3 3 3 4 5 5 6 5 6 6 4 3 3 4 5 4 4 4 4 4 4 3 3 2 2 3 1 1 2 -1 1 2 1 1 0 1 0 0 -1 -2 -2 -4 -7 -7
3 3 4 4 5 6 4 5 5 4 2 1 3 3 4 5 5 5 4 4 4 4 3 3 2 3 1 2 0 -0 0 1 1 0 0 0 -0 -1 -1 -2 -6 -8 -8 -8
3 3 3 5 5 4 4 4 5 3 2 2 2 3 5 4 4 4 3 3 4 4 4 3 3 3 2 1 -0 1 1 1 1 0 0 -0 -1 -1 -3 -9 -8 -7 -7 -8
3 4 4 3 3 3 3 4 3 2 2 2 2 2 3 3 3 2 2 2 3 4 3 3 4 3 1 0 -0 0 1 1 0 0 0 -0 -2 -8 -9 -8 -8 -8 -8 -8
4 2 1 3 4 2 1 2 0 1 1 2 2 2 2 2 2 2 1 1 0 2 2 3 2 1 -0 1 1 1 1 0 0 -1 -2 -3 -9 -8 -9 -9 -9 -9 -8 -7
3 1 3 3 1 -0 -1 -1 -1 1 1 1 2 1 1 1 0 0 -1 -1 -4 -1 0 3 1 -2 -3 -0 1 1 1 -0 -1 -6 -8 -8 -9 -9 -8 -8 -8 -9 -8 -7
2 3 2 1 0 1 -1 2 0 -3 -3 1 1 1 1 -0 -0 -2 -3 -3 -3 -2 1 0 -2 -4 -2 -2 -1 1 0 -0 -8 -8 -8 -9 -8 -7 -6 -7 -7 -7 -7 -8
1 0 1 1 1 -0 -2 -2 -3 -2 -0 1 1 -0 0 0 -3 -1 -2 -2 -2 -1 -2 -2 -4 -4 -3 -2 -1 0 1 -3 -7 -7 -8 -7 -6 -6 -5 -5 -5 -5 -6 -7
0 0 2 0 -4 -4 -5 -3 -1 -0 1 0 -0 -1 -1 -1 -0 -2 -1 0 -0 -1 -3 -5 -6 -4 -5 -5 -2 -1 -5 -7 -7 -8 -8 -8 -8 -8 -7 -6 -5 -5 -5 -6
-0 -1 -3 -4 -5 -4 -3 -2 -0 1 0 -1 -2 -3 -3 -1 -2 0 -3 -2 -3 -4 -5 -5 -4 -3 -7 -9 -9 -9 -9 -9 -9 -8 -7 -7 -8 -8 -7 -6 -5 -5 -6 -7
-1 -3 -3 -4 -5 -4 -3 -2 0 1 -1 -4 -4 -2 -2 -3 -2 -0 -5 -4 -5 -6 -5 -5 -3 -6 -8 -8 -8 -8 -7 -6 -6 -6 -6 -6 -6 -6 -6 -6 -5 -6 -7 -7

GFSNW_850_dewp_018.txt.gz
Dewpoint
5 4 4 5 6 5 6 3 6 6 5 4 4 5 4 4 4 4 4 2 -2 -0 0 2 7 3 5 1 2 5 4 2 5 8 1 3 5 6 7 7 5 3 2 2
5 4 4 4 5 5 5 4 6 6 4 6 5 4 5 4 4 5 4 5 -1 -1 -1 1 6 3 1 4 4 3 2 3 6 6 4 1 5 5 6 4 1 4 5 3
5 4 4 4 5 5 6 5 7 5 5 5 6 6 6 6 5 5 6 6 3 -1 -0 1 4 5 4 5 4 3 1 3 2 5 3 2 5 5 3 5 6 4 2 1
5 5 4 4 5 6 6 2 5 5 6 5 6 6 6 7 8 7 8 7 3 1 0 5 5 6 6 5 5 4 3 4 3 2 2 2 3 4 3 4 4 4 3 2
5 4 4 4 4 5 6 3 4 4 5 5 6 6 6 7 6 7 7 8 4 2 1 5 6 6 6 7 5 5 3 5 2 2 2 2 2 2 3 4 4 3 1 1
5 4 4 4 5 5 5 4 2 2 1 2 7 7 7 8 6 7 4 6 4 4 3 3 3 4 4 4 5 5 4 4 3 5 0 2 4 3 2 1 0 0 2 1
5 4 5 4 5 5 6 3 3 3 2 2 4 4 6 7 7 7 2 4 4 3 1 2 3 3 2 0 -0 2 4 2 2 4 1 9 2 -1 -0 1 0 -1 -1 -1
5 5 5 4 4 5 5 6 3 3 3 1 1 3 4 4 4 3 3 2 2 -0 1 5 6 7 7 5 2 -0 4 3 5 4 3 1 -1 -0 0 2 2 -0 0 -1
5 5 5 4 4 5 5 6 5 3 2 1 0 1 3 5 5 4 3 3 2 3 4 7 9 9 8 6 7 0 2 7 7 5 5 5 -1 -0 -2 -1 1 -1 -1 1
4 5 4 4 4 5 5 6 5 4 2 1 -0 1 1 1 4 4 3 3 5 5 6 7 8 8 4 7 7 6 3 6 8 8 8 0 -1 -1 -1 2 2 1 1 1
5 5 5 4 4 5 5 6 4 4 3 2 1 0 -1 -1 1 6 3 4 4 6 7 7 5 6 5 3 3 6 5 6 7 6 5 5 -0 -0 1 1 2 2 2 1
5 5 4 4 4 5 5 5 5 5 6 3 3 2 1 1 -1 2 3 4 2 5 7 5 4 3 2 3 3 0 4 3 1 1 2 1 1 1 0 2 1 1 0 -0
4 5 5 4 4 5 5 6 6 6 4 4 4 4 3 3 0 0 2 3 3 2 2 3 4 5 2 4 3 2 0 0 1 1 1 1 1 1 1 1 -0 -0 -1 -1
4 5 4 4 4 5 5 5 6 5 3 5 4 4 4 4 2 -1 2 1 1 1 1 3 4 4 1 3 2 2 1 1 1 2 1 1 1 1 0 -0 -0 -1 -1 -1
4 4 4 4 4 5 5 6 6 6 5 5 4 5 5 4 4 3 3 2 2 3 4 5 5 2 3 2 2 3 0 1 2 2 0 1 0 1 0 0 0 -0 -1 -0
4 4 4 4 4 5 5 6 6 6 5 5 6 4 4 4 3 3 3 3 3 3 4 4 4 3 3 6 5 1 1 1 0 0 1 1 1 1 0 -0 -0 -1 -1 -3
4 4 4 3 4 5 6 6 6 6 5 4 4 5 4 4 4 4 4 4 3 3 4 4 4 3 2 3 5 0 1 1 1 0 0 1 1 1 0 -0 -1 -2 -5 -7
4 4 3 4 5 5 5 5 6 6 4 4 3 4 4 4 5 5 4 5 4 4 4 3 3 3 2 4 2 -0 1 1 1 1 0 1 0 0 -0 -2 -3 -5 -8 -9
4 3 4 4 5 4 5 5 5 3 3 3 2 4 5 4 4 4 3 4 5 4 4 4 3 4 6 4 1 0 1 1 1 0 0 0 0 -1 -2 -3 -6 -9 -8 -8
3 3 4 4 4 4 4 4 4 4 3 1 2 2 4 3 3 3 3 2 4 5 4 3 4 5 2 1 1 0 0 1 1 0 -0 -0 -1 -2 -2 -8 -8 -8 -8 -8
3 3 2 3 4 3 0 2 3 2 3 2 2 2 3 2 3 3 1 3 2 5 3 4 4 3 1 1 0 0 -0 0 0 0 -0 -1 -3 -5 -8 -8 -8 -8 -8 -8
3 1 3 4 1 -0 1 2 1 2 2 2 2 2 2 1 -0 1 0 2 0 3 1 3 3 1 -3 0 0 0 1 1 0 -0 -2 -3 -9 -9 -9 -9 -9 -9 -9 -8
2 3 2 1 0 2 2 3 2 1 0 1 1 2 1 -0 -1 -1 -1 1 2 -1 2 2 1 -3 -3 0 1 1 0 0 -0 -1 -7 -9 -9 -9 -8 -8 -8 -7 -7 -7
1 0 2 2 2 2 0 0 1 -1 1 1 1 0 1 -0 1 -1 0 -1 -1 0 1 0 -3 -4 -3 -1 1 1 -0 -6 -7 -8 -9 -8 -7 -7 -6 -6 -6 -6 -6 -6
0 1 3 2 -3 -4 -5 -3 -1 0 1 0 0 0 -1 -1 0 -1 -1 0 0 -1 -1 -2 -4 -3 -3 -1 0 0 -4 -7 -8 -8 -7 -7 -6 -6 -6 -6 -6 -5 -5 -6
-0 -1 -2 -3 -2 -3 -3 -2 -0 1 1 -1 -2 -0 0 -0 -0 -0 0 -0 -0 -1 -1 -5 -4 -4 -2 -1 0 0 -5 -7 -7 -8 -8 -9 -8 -8 -8 -7 -6 -5 -5 -6
-1 -2 -4 -4 -4 -3 -2 -1 1 1 -1 0 -0 1 1 -1 0 0 -2 -1 -2 -3 -5 -5 -4 -7 -5 -1 -2 -6 -8 -9 -8 -7 -7 -7 -7 -7 -6 -6 -5 -5 -6 -7

GFSNW_850_dewp_021.txt.gz
Dewpoint
5 6 6 5 4 6 6 5 5 5 5 5 4 4 4 4 4 4 5 4 2 -1 -2 -1 2 1 -0 -1 1 7 6 7 8 8 4 4 6 6 6 6 6 3 3 2
5 6 6 4 4 6 6 4 5 5 5 5 4 4 4 4 5 5 5 5 3 -3 -2 0 3 2 -2 2 2 4 5 5 10 8 7 6 7 7 7 5 4 5 4 3
4 6 6 4 4 6 6 4 6 5 4 4 5 5 5 5 4 4 4 3 1 -1 -2 -2 2 4 2 2 0 2 3 3 4 6 6 7 8 7 6 6 6 5 3 1
3 6 5 4 4 5 5 4 5 4 6 5 5 5 5 6 7 5 4 6 3 0 -1 -1 1 2 3 2 3 2 4 4 2 1 2 4 5 6 6 7 6 5 3 2
3 5 5 3 4 5 5 4 2 5 5 4 5 5 6 6 6 7 7 7 4 0 -3 -2 3 3 3 5 4 4 4 4 3 3 2 2 2 2 4 4 4 3 2 2
2 5 5 4 4 5 5 5 3 3 2 4 6 6 6 6 5 6 6 5 6 2 -3 -3 3 3 2 3 5 5 5 5 4 5 2 3 5 2 2 2 2 2 4 2
2 3 5 4 4 4 5 5 4 4 2 -1 2 6 6 6 7 7 6 6 6 3 2 3 4 3 3 3 3 3 5 5 5 7 3 9 3 -1 0 1 1 1 2 0
1 4 5 5 5 4 5 5 3 4 2 -1 2 5 6 5 5 5 4 3 4 2 3 4 7 7 6 5 2 3 4 6 6 6 5 3 1 -1 -0 2 2 -0 -0 -1
1 5 5 5 5 4 5 5 5 4 2 -1 1 1 5 7 6 5 3 2 2 2 5 6 9 9 8 8 7 1 6 5 7 5 6 7 0 -1 -2 -1 3 -1 -1 -1
1 2 3 5 5 4 5 5 5 5 3 1 1 1 5 5 6 5 3 3 5 5 7 8 9 9 5 9 9 6 8 8 9 9 8 6 -1 -1 -1 2 4 -1 -1 -1
1 3 5 4 4 4 5 5 5 5 4 3 2 2 -0 2 5 7 4 5 6 7 8 8 6 8 5 6 7 5 6 8 9 9 10 9 -1 -0 1 2 1 0 0 1
1 2 4 4 4 4 5 5 5 5 4 6 3 2 1 0 3 5 4 5 5 7 7 7 4 5 4 3 7 2 7 4 5 5 6 1 1 1 1 2 2 2 1 1
1 2 4 4 4 4 5 5 5 5 5 5 5 5 3 2 1 4 5 5 5 5 5 6 6 5 3 6 4 3 1 -1 1 0 1 1 0 1 1 2 1 1 1 1
1 2 4 4 4 4 4 5 5 5 5 5 5 4 4 4 2 2 3 6 7 6 5 6 6 6 2 4 2 2 1 -0 1 1 1 1 1 1 1 1 1 0 0 0
1 3 4 4 4 4 5 5 5 6 6 5 4 5 4 4 3 1 2 2 3 3 4 5 6 3 3 2 2 3 0 0 1 1 -0 0 0 1 1 1 0 -1 -1 -1
1 3 4 4 4 4 5 5 5 5 6 5 5 5 5 3 4 3 3 3 3 5 5 5 4 3 4 7 6 2 0 0 0 0 0 1 1 1 1 1 1 -0 -1 -2
2 4 4 4 4 4 5 5 6 5 6 4 5 4 4 4 4 4 5 4 4 5 5 5 5 4 4 4 6 2 0 1 1 1 1 1 1 1 1 0 -0 -1 -2 -4
2 4 4 3 4 4 5 5 5 6 6 4 4 4 5 4 5 5 5 5 5 5 5 4 4 3 3 6 3 0 1 1 1 1 1 1 1 1 1 -0 -1 -3 -6 -7
3 4 3 3 4 5 5 5 5 5 5 3 3 5 5 4 4 4 4 5 6 5 5 5 4 5 7 5 3 0 2 1 1 1 1 1 1 1 0 -1 -3 -6 -8 -8
4 3 4 4 4 4 4 4 4 4 4 3 4 4 5 4 3 3 3 3 5 5 4 3 5 6 4 3 2 1 1 2 1 0 1 1 1 -0 -1 -3 -6 -8 -8 -9
3 4 2 4 4 4 3 3 4 3 4 2 2 3 4 3 4 3 2 4 4 6 4 5 6 4 2 1 2 1 1 1 1 0 -0 0 0 -1 -3 -7 -8 -8 -10 -10
3 2 4 3 2 -0 3 4 2 3 4 2 2 3 2 1 -0 2 1 4 2 5 1 4 4 2 -1 0 1 1 1 1 1 0 0 -0 -1 -3 -8 -8 -9 -10 -9 -9
3 3 3 1 1 3 4 3 2 2 2 2 2 2 1 0 -0 1 1 3 4 -0 2 3 2 -1 -1 0 1 1 1 0 0 -0 -1 -2 -6 -8 -10 -11 -10 -9 -8 -8
2 2 2 3 3 2 2 2 3 1 2 1 2 1 2 0 2 1 3 0 -1 2 2 1 -2 -2 -2 0 0 -0 -0 -0 -1 -3 -7 -8 -10 -9 -9 -8 -8 -7 -7 -7
0 1 4 2 -0 -2 -2 -1 -0 1 2 1 1 1 -0 1 1 -0 -0 1 2 1 1 -0 -2 -3 -1 0 -1 -1 -2 -3 -7 -8 -9 -9 -8 -8 -7 -7 -6 -6 -6 -6
-0 -1 -0 -2 -0 -1 -2 -1 0 2 1 -1 -0 2 2 1 1 1 1 1 2 1 2 -1 -3 -3 -2 0 -2 -5 -7 -8 -9 -8 -8 -8 -7 -7 -7 -7 -7 -6 -6 -6
-1 -1 -3 -2 -1 -1 -1 -0 1 1 -0 3 2 3 3 -1 1 1 -0 1 1 -1 -2 -2 -3 -2 -1 -1 -4 -7 -8 -8 -7 -8 -9 -8 -8 -8 -8 -7 -7 -6 -6 -6

GFSNW_850_dewp_024.txt.gz
Dewpoint
2 1 3 5 6 5 6 6 6 5 5 5 4 5 3 3 4 4 4 4 5 3 -0 0 1 4 1 -1 3 5 3 6 7 8 6 7 7 7 7 6 8 6 4 3
2 1 3 5 6 5 6 5 5 5 5 5 5 3 4 4 4 5 5 5 4 2 2 -0 -0 1 -1 1 2 5 6 8 9 9 8 9 9 6 6 6 5 7 5 4
1 1 2 5 5 5 5 4 6 5 5 5 4 4 5 5 4 4 4 4 4 4 4 -3 1 1 2 1 -2 2 6 7 8 10 9 8 9 7 6 7 8 6 4 2
0 1 2 3 5 5 6 4 5 4 5 5 5 5 5 5 5 4 4 5 5 4 1 -1 -1 2 3 4 1 4 5 9 7 7 7 7 7 7 7 8 6 6 4 1
0 1 2 5 5 5 5 4 4 5 5 3 4 5 6 6 5 6 6 6 5 4 1 -2 -1 2 2 3 3 2 2 7 5 4 7 7 7 6 7 6 6 6 5 3
-0 1 2 5 5 5 5 5 2 3 3 4 5 5 5 5 5 5 5 5 5 6 3 -4 3 -2 -0 3 4 5 5 6 6 5 3 3 5 3 6 6 5 5 6 3
-0 1 2 3 5 5 5 5 4 3 5 3 4 5 6 6 5 6 5 6 5 4 2 1 3 3 3 2 4 3 5 6 7 9 4 7 2 -1 0 2 2 2 2 1
-0 1 2 3 5 5 5 5 5 5 5 4 2 3 5 5 6 7 6 7 6 5 2 6 8 7 6 5 2 3 3 6 8 7 5 4 2 -1 0 2 3 0 1 1
-0 0 1 3 5 5 5 5 5 4 5 4 1 1 5 6 6 6 4 3 3 3 5 6 7 9 8 8 6 3 6 6 7 6 7 7 2 -1 -2 -1 4 -0 0 0
-1 0 1 3 5 5 5 5 5 5 4 4 1 1 3 6 6 6 5 4 5 6 7 8 7 8 6 8 8 7 8 8 9 8 8 7 0 -2 -2 4 4 0 -0 1
-1 0 1 3 4 5 5 5 5 5 5 4 4 3 2 3 6 6 4 6 6 7 8 8 7 8 7 8 6 7 8 8 9 8 9 9 -1 -1 2 3 1 0 1 2
-1 -0 1 4 4 5 4 4 4 5 5 6 5 4 2 2 4 6 4 5 5 7 7 7 5 6 5 5 9 4 8 6 7 8 8 2 1 1 1 2 1 2 2 2
-1 -0 1 3 4 4 4 4 5 5 5 4 4 5 4 2 1 5 5 5 6 6 6 6 6 5 4 5 5 4 4 0 2 2 1 1 1 0 1 2 2 1 1 1
-1 -0 1 4 4 4 4 4 5 5 5 6 5 5 4 4 3 2 5 6 6 6 6 6 6 7 2 5 3 3 1 0 2 2 1 1 1 1 2 2 1 1 0 0
-1 -0 2 4 4 4 4 4 5 5 6 6 5 5 4 4 3 1 3 5 7 7 6 6 7 5 4 3 3 3 0 1 3 3 0 0 1 1 1 1 0 0 -0 -0
-2 0 2 4 4 4 4 5 5 5 6 6 6 5 5 4 4 3 3 3 4 4 6 6 4 3 4 5 6 2 0 -0 -0 0 0 0 1 1 1 1 0 -0 -1 -2
-1 1 2 4 4 4 4 5 5 5 5 5 5 5 4 5 5 5 4 4 4 6 5 6 5 4 3 5 7 3 0 0 0 1 1 1 1 1 1 0 0 -1 -2 -2
-1 1 3 4 4 4 4 5 5 5 5 5 4 4 5 4 5 5 5 5 5 5 5 4 5 3 3 6 4 1 1 1 1 1 1 1 1 1 1 0 -0 -2 -4 -6
0 2 4 4 4 4 4 5 5 5 5 4 3 4 5 4 4 5 4 5 6 5 5 5 5 5 5 5 4 1 1 1 1 1 1 1 1 1 0 -1 -2 -5 -6 -7
2 3 4 4 4 4 5 5 5 4 4 4 4 4 5 4 3 3 4 4 5 5 5 3 5 5 4 4 3 2 1 1 1 1 1 1 1 1 -0 -2 -4 -7 -8 -8
2 3 3 4 4 4 4 3 4 4 3 3 3 4 4 3 4 4 3 3 3 5 4 5 5 5 3 1 2 2 2 1 1 0 0 1 1 0 -2 -4 -6 -8 -9 -10
2 3 3 3 3 2 3 3 2 3 3 3 3 3 3 1 1 2 2 3 2 4 1 4 4 2 -1 -0 1 2 1 1 1 1 0 1 0 -2 -4 -7 -8 -9 -10 -9
2 3 2 2 2 3 3 3 3 2 2 2 2 2 1 0 -0 1 1 2 2 -0 2 3 1 -1 -1 1 1 1 1 1 0 0 0 -0 -2 -5 -8 -9 -10 -10 -10 -9
1 1 2 3 3 1 2 1 1 1 2 2 1 1 2 1 1 1 -1 0 -1 1 1 1 -0 -2 0 1 0 1 -0 -0 -0 -1 -2 -4 -8 -9 -10 -10 -9 -10 -9 -8
0 1 3 2 -0 -2 -1 0 1 1 2 1 1 0 0 1 1 -0 -1 0 0 0 0 -0 -2 -1 0 0 -1 -1 -2 -2 -3 -5 -8 -9 -10 -10 -9 -8 -8 -8 -8 -7
-0 -0 -0 -1 -0 -2 -2 -0 1 1 1 0 -1 0 -2 -0 -1 -0 -2 -1 -1 -1 -1 -2 -3 -1 -0 -2 -2 -3 -4 -6 -8 -9 -10 -9 -9 -9 -8 -7 -7 -7 -7 -7
-1 -1 -2 -1 -1 -1 -1 0 1 2 1 2 -0 -0 -1 -0 -0 -1 -2 -1 -1 -1 -2 -3 -3 -0 -2 -3 -3 -5 -7 -8 -9 -8 -8 -8 -8 -8 -9 -9 -7 -7 -6 -6

GFSNW_850_dewp_027.txt.gz
Dewpoint
-0 1 2 2 4 5 6 6 5 5 5 4 4 5 3 2 3 3 4 4 5 5 4 4 3 4 3 1 2 4 4 6 6 6 6 5 5 6 6 6 10 8 4 3
0 1 1 2 2 4 5 5 5 5 5 5 5 4 3 3 3 4 4 5 4 3 4 6 1 1 0 2 3 4 5 6 8 8 8 7 7 7 6 7 9 8 6 3
0 0 0 1 2 2 5 5 5 5 5 4 4 5 5 5 3 4 4 4 4 5 5 3 4 0 1 2 2 3 4 6 7 10 9 7 8 9 9 8 9 8 5 4
0 0 0 1 2 3 5 5 5 4 5 5 4 4 5 5 5 4 4 4 5 5 6 4 3 2 2 3 1 4 6 7 8 8 6 7 8 8 8 9 8 8 4 4
-0 -0 0 1 3 5 5 4 5 4 4 3 5 5 6 6 5 5 5 5 4 4 5 3 -1 2 3 5 3 3 5 7 7 9 7 7 7 7 7 7 7 6 6 5
-1 0 0 1 1 5 5 4 4 4 5 4 5 5 5 4 4 4 4 4 5 5 4 3 2 2 2 2 4 3 4 6 9 8 7 7 8 7 7 7 5 5 7 4
-1 0 0 1 3 4 5 4 3 3 6 5 5 5 4 5 5 5 4 4 5 4 4 3 1 1 3 5 4 3 5 6 7 8 4 7 3 -0 4 7 5 4 4 2
-1 -0 0 1 3 5 5 5 4 3 5 4 4 5 4 5 5 5 5 5 5 4 4 5 6 7 6 5 3 5 3 6 8 6 6 4 2 -1 1 3 3 2 4 2
-1 -0 0 2 3 4 5 5 5 4 5 5 3 3 5 5 5 5 5 6 6 4 5 6 7 9 8 8 6 5 5 6 7 4 6 7 2 -1 -2 -1 4 1 -0 2
-1 -0 -0 1 3 4 5 5 5 4 4 4 4 3 4 4 6 6 5 5 5 5 7 7 6 7 6 7 8 8 8 8 9 7 8 6 1 -1 -1 3 2 1 1 1
-1 -1 -0 1 2 4 5 5 5 5 5 4 4 4 3 4 4 6 5 6 6 7 8 7 6 6 7 7 5 6 7 8 9 7 9 7 -1 -1 0 0 1 2 2 2
-1 -1 -0 1 2 4 5 5 5 5 5 5 5 4 4 4 2 5 5 5 5 6 7 7 6 6 6 7 8 4 7 6 8 7 6 2 1 1 1 2 2 2 2 2
-1 -1 -1 1 2 5 5 5 5 4 5 4 4 4 4 4 2 3 5 5 6 6 6 5 5 5 4 6 6 5 4 3 5 5 3 1 1 1 2 1 1 2 1 1
-2 -2 -1 1 3 4 4 4 4 4 5 5 4 5 5 4 3 2 5 6 6 6 6 6 6 6 3 6 3 4 3 2 3 2 1 1 1 0 2 2 1 1 1 1
-2 -2 -1 1 3 4 4 4 4 4 5 6 5 5 4 4 4 3 3 5 7 7 6 6 7 6 5 3 2 3 -0 2 3 4 0 -0 0 1 2 1 1 1 0 -0
-3 -2 -1 1 3 4 4 4 4 3 5 5 6 5 4 4 4 3 3 4 6 6 6 7 6 5 4 4 4 1 0 -1 0 0 0 0 0 1 1 1 0 -0 -1 -2
-3 -2 -1 2 3 4 4 4 4 3 4 5 4 5 4 4 5 4 4 4 4 5 5 5 5 4 3 5 7 3 0 0 0 0 0 1 1 1 1 0 0 -1 -1 -2
-3 -2 0 3 4 4 4 5 5 5 5 5 3 4 4 4 5 5 5 5 5 5 5 4 5 3 3 5 3 1 1 1 1 1 0 1 1 1 1 0 -1 -1 -1 -2
-2 -1 2 3 4 4 4 4 5 5 5 4 3 4 5 4 5 4 5 5 6 5 5 5 4 5 5 4 3 1 1 1 1 1 1 1 1 1 0 -0 -1 -3 -4 -5
0 1 2 3 4 4 4 4 5 5 5 4 4 4 5 4 4 3 4 4 4 5 4 3 4 5 3 4 3 2 1 0 1 1 1 1 1 1 0 -1 -4 -6 -7 -8
1 1 3 4 4 3 3 3 3 3 3 3 4 3 4 3 4 4 3 2 2 5 4 4 4 5 3 1 3 2 1 1 1 0 1 1 1 0 -1 -4 -6 -7 -8 -10
1 2 3 3 3 3 3 3 2 3 4 3 4 4 4 3 3 3 3 3 1 4 1 3 4 2 -1 -0 2 2 2 1 1 0 1 1 1 -1 -3 -6 -7 -8 -10 -10
2 3 2 3 2 3 3 4 3 3 2 2 2 2 1 1 1 1 0 1 2 -1 1 2 1 -1 -1 0 2 2 1 1 1 1 1 1 -1 -3 -6 -8 -9 -10 -10 -9
1 -0 2 2 2 2 1 1 0 0 2 2 1 1 1 0 1 0 -2 0 -1 0 1 -0 -2 -2 0 1 1 1 1 1 1 0 0 -2 -4 -7 -8 -10 -10 -10 -10 -7
0 -0 3 2 -2 -2 -1 1 1 2 2 1 0 0 -1 1 1 -1 -1 0 0 -1 -1 -2 -2 -1 0 -0 0 0 -0 -0 -1 -1 -3 -6 -7 -9 -9 -8 -8 -9 -9 -8
-0 -0 -0 -1 -1 -2 -1 -0 1 2 1 0 -1 -1 -4 -1 -2 -1 -3 -3 -2 -2 -2 -2 -1 0 0 -1 -2 -1 -1 -1 -3 -5 -7 -9 -9 -9 -8 -7 -7 -7 -8 -8
-1 -2 -2 -2 -1 -2 -1 0 1 2 1 -0 -2 -3 -3 -4 -4 -3 -4 -3 -3 -1 -2 -3 -1 -0 -2 -2 -2 -2 -3 -6 -7 -8 -9 -8 -8 -9 -8 -8 -7 -7 -7 -7

GFSNW_850_dewp_030.txt.gz
Dewpoint
-3 -1 1 1 2 2 3 4 4 4 4 5 4 4 3 2 2 3 4 4 5 6 6 6 3 3 1 -0 0 4 3 6 5 4 3 2 2 3 3 4 3 4 7 5
-3 -1 0 1 1 2 2 5 4 4 4 4 4 4 3 3 3 4 4 5 4 4 5 6 3 1 0 1 2 5 4 6 6 7 5 5 4 4 2 1 5 4 7 5
-1 -0 0 0 1 2 1 4 5 5 5 3 4 4 4 4 3 3 4 4 4 5 5 3 5 3 -0 1 2 4 4 6 6 8 8 7 8 5 4 3 6 3 7 7
-1 -1 0 0 1 2 2 4 5 4 4 5 4 3 4 5 5 3 4 4 4 5 6 5 5 3 3 3 3 5 5 7 5 5 5 6 6 7 7 6 4 5 3 6
-1 -1 0 0 1 2 3 5 5 3 3 4 4 4 5 5 5 4 4 5 4 5 6 4 1 2 2 4 3 5 5 6 6 7 8 7 8 7 7 7 6 5 7 6
-1 -1 -0 0 1 2 3 4 4 3 4 4 5 5 4 5 4 4 4 4 5 5 5 3 3 2 2 3 5 4 6 7 7 10 7 8 9 7 9 7 8 9 9 4
-1 -1 -0 0 1 2 3 4 4 4 5 4 5 4 4 5 4 5 4 4 5 4 4 4 3 3 3 3 5 3 4 5 8 9 5 7 3 -0 5 6 5 4 4 1
-2 -1 -0 0 1 3 4 4 3 4 5 4 4 5 5 4 4 5 5 4 4 4 4 5 6 5 5 4 3 6 5 5 9 8 7 4 1 -0 3 6 6 4 4 2
-2 -1 -1 -0 1 3 5 4 3 3 5 5 4 4 4 5 4 4 5 5 5 4 5 6 6 7 8 7 6 5 4 5 8 5 6 7 2 -1 -2 -1 4 1 1 2
-2 -2 -2 -0 1 2 4 5 3 4 4 4 4 4 5 3 5 5 5 5 6 5 7 7 6 8 6 8 7 8 7 7 8 7 7 5 2 -1 -1 3 1 1 1 1
-2 -2 -2 -1 1 2 4 5 5 4 4 4 4 4 3 5 4 5 4 6 6 6 7 7 6 5 7 6 5 6 7 7 8 8 7 6 -0 -2 -1 -1 2 2 2 2
-3 -2 -2 -1 1 2 4 5 5 5 5 5 5 4 4 4 4 4 5 5 6 6 6 6 6 7 6 7 7 4 7 6 7 6 5 2 1 1 2 1 2 2 2 2
-3 -1 -1 -2 1 3 4 5 5 4 5 5 5 3 3 4 5 4 5 5 5 6 6 5 5 5 4 7 6 5 4 3 6 5 3 2 1 1 2 1 1 1 2 2
-4 -2 -2 -1 1 3 4 5 4 4 4 5 4 4 5 5 4 2 4 6 6 6 6 6 6 6 3 5 3 5 4 3 3 4 1 1 0 0 2 1 2 1 2 1
-2 -2 -2 -2 1 3 4 4 4 4 5 5 5 5 5 4 4 4 4 5 6 6 6 6 6 5 5 3 2 3 0 3 5 5 1 0 0 0 2 1 1 1 1 1
-2 -3 -3 -2 1 4 4 4 4 4 4 4 6 5 4 4 4 4 4 4 6 6 6 6 6 5 5 6 6 2 1 0 2 1 0 0 0 2 1 1 1 1 0 -1
-2 -3 -3 -2 2 2 4 4 4 3 4 5 4 5 4 4 4 4 3 4 5 6 6 6 5 5 4 5 6 3 1 -0 0 0 0 1 1 1 1 1 0 -1 -2 -2
-2 -3 -1 -0 2 3 4 5 5 3 4 5 3 4 4 5 5 5 5 5 5 5 5 4 5 3 3 5 3 2 1 1 1 1 0 1 1 1 1 0 -1 -2 -2 -3
-3 -2 -1 2 3 4 4 4 5 3 5 4 3 4 5 4 5 5 5 5 5 5 4 5 4 5 5 3 3 1 1 1 1 1 1 1 1 1 0 -0 -1 -2 -1 -2
-1 0 1 2 4 4 4 4 5 5 5 4 4 4 5 4 4 3 4 4 4 5 4 3 5 5 3 4 4 3 1 1 1 1 1 1 1 0 0 -1 -2 -4 -4 -6
1 1 2 3 4 4 4 4 3 3 3 4 4 4 4 3 4 4 3 3 2 5 4 4 4 4 2 1 3 3 1 1 1 0 0 0 0 0 -0 -2 -4 -6 -7 -8
-1 -1 0 3 4 3 3 3 2 3 3 3 4 4 3 3 3 3 3 3 2 5 1 4 4 1 -1 0 2 2 1 1 1 1 1 1 0 -0 -1 -4 -6 -8 -9 -11
-0 0 1 2 2 4 4 4 3 3 2 3 3 2 2 3 2 1 1 4 4 -1 2 2 1 -1 -1 0 1 2 1 1 1 1 1 1 0 -1 -4 -6 -8 -10 -10 -9
-0 -0 2 2 3 2 2 1 1 1 2 3 2 1 1 1 1 1 -2 0 -1 -1 1 0 -2 -2 -0 1 1 2 1 1 1 1 1 -0 -2 -4 -6 -8 -10 -10 -9 -8
-0 -1 2 2 -1 -1 -1 -0 1 1 2 2 0 -0 -0 1 1 -1 -0 0 -0 -0 -0 -2 -2 -1 1 1 1 1 1 1 1 0 -0 -2 -5 -7 -8 -9 -9 -9 -9 -7
-1 -1 -0 -1 -1 -1 -1 0 1 1 2 1 -1 -1 -0 1 0 -2 -2 -2 -2 -2 -2 -2 -1 -0 0 0 -0 -0 -0 -0 -1 -1 -3 -5 -7 -9 -8 -7 -8 -8 -9 -8
-1 -2 -2 -2 -1 -2 -1 0 1 2 0 1 -3 -2 -3 -4 -4 -3 -5 -3 -3 -3 -1 -2 -0 -0 -1 -1 -1 -1 -1 -1 -2 -4 -7 -8 -8 -8 -8 -8 -7 -8 -8 -8

GFSNW_850_dewp_033.txt.gz
Dewpoint
-3 -1 0 -0 1 2 2 2 3 4 5 2 3 4 3 1 4 3 3 3 3 4 4 5 3 3 1 -0 0 3 2 5 5 3 3 2 2 3 3 3 3 2 6 3
-3 -1 -1 -0 1 1 1 1 3 4 3 3 3 3 3 3 4 4 3 4 3 3 5 6 4 2 -0 -0 1 3 3 5 5 5 5 4 5 5 4 2 1 2 1 -1
-3 -1 -1 0 0 1 1 1 3 4 3 3 3 4 4 4 3 3 3 4 3 5 5 4 5 4 1 -0 0 2 3 5 5 6 6 6 6 5 5 3 3 3 2 -0
-3 -1 -1 0 -0 1 2 2 3 2 3 3 2 2 3 3 5 3 3 5 5 5 6 5 4 3 3 2 2 4 4 6 6 5 5 6 6 5 4 4 2 3 2 3
-4 -1 -1 0 0 2 2 2 4 3 2 4 4 3 4 4 4 4 5 5 3 4 6 3 4 3 3 2 5 5 5 6 5 6 5 6 7 6 4 4 1 3 5 4
-3 -1 -1 0 0 1 2 3 -0 3 4 4 4 5 4 4 4 4 3 4 5 5 4 3 3 3 3 3 4 5 5 6 7 8 7 7 8 7 4 5 3 2 6 4
-3 -2 -1 -1 1 1 2 2 3 4 5 4 4 4 3 4 4 5 4 4 5 4 4 4 4 4 4 3 3 4 6 6 6 8 7 9 6 6 5 5 5 5 5 5
-3 -2 -1 -2 0 1 2 3 4 4 5 3 4 4 4 4 4 5 4 4 4 4 4 6 6 4 4 4 4 5 4 6 8 9 7 5 2 6 6 6 6 5 5 5
-3 -2 -2 -2 0 1 3 4 5 3 3 5 4 4 4 5 5 4 5 5 5 4 5 6 6 6 5 6 5 4 5 6 7 7 7 7 2 -1 -1 1 7 4 4 3
-3 -2 -2 -1 -0 1 3 5 5 4 4 4 4 4 5 4 4 5 4 4 5 5 5 7 6 6 6 7 5 7 8 7 8 6 7 5 2 1 -1 3 1 1 1 2
-3 -5 -1 -1 -0 1 3 4 4 4 4 4 4 4 4 4 4 5 4 5 6 6 6 7 5 5 6 5 5 5 6 6 7 7 8 5 0 -2 -0 -1 2 2 2 1
-4 -14 -1 -2 -1 1 3 5 4 4 4 4 4 4 4 4 4 4 5 5 6 5 5 6 5 5 5 5 6 3 6 5 6 6 5 2 1 1 2 2 2 2 2 2
-13 -7 -1 -2 -2 1 2 4 5 5 5 4 4 4 4 4 5 5 4 5 5 6 6 4 5 5 4 6 6 4 4 3 5 5 3 2 1 1 2 1 1 2 2 2
-3 -2 -3 -2 -2 1 2 5 5 5 4 4 4 4 4 5 5 5 5 4 5 6 6 6 5 5 3 4 4 4 3 3 4 4 2 1 1 0 1 1 1 2 2 2
-3 -3 -2 -5 -4 1 4 5 4 4 4 5 5 5 5 5 5 4 4 4 5 6 6 6 6 5 4 3 2 3 1 4 5 5 2 1 0 1 1 1 1 1 2 2
-3 -2 -2 -3 -2 2 4 4 4 4 4 5 5 5 4 4 4 4 4 4 5 6 6 6 6 4 5 6 7 3 1 1 3 2 1 0 1 1 1 1 1 1 1 2
-4 -4 -3 -2 -1 1 3 4 4 4 4 5 4 5 4 4 4 4 3 4 5 6 6 6 5 5 4 5 6 3 1 1 0 1 1 1 1 2 1 1 1 1 1 0
-3 -4 -3 -2 0 2 4 5 4 4 4 4 3 4 4 5 5 5 5 5 5 5 6 5 5 4 4 5 3 3 1 1 1 1 0 0 1 1 1 1 0 -1 -2 -2
-3 -3 -2 -0 2 3 4 4 4 4 4 4 3 4 4 4 5 5 5 5 5 4 4 5 4 5 5 3 2 2 1 1 1 1 1 1 1 1 1 -0 -1 -3 -3 -4
-1 0 1 2 3 4 4 4 4 3 4 4 4 4 5 4 4 3 4 3 4 5 4 3 4 4 3 4 4 3 1 1 1 1 1 1 1 1 0 -1 -3 -5 -5 -5
-0 1 1 2 4 4 4 4 3 3 3 4 3 4 4 3 4 3 3 3 2 4 3 4 3 4 2 2 3 3 1 1 1 0 0 1 1 0 -0 -1 -3 -4 -4 -5
-2 -1 -0 2 3 3 3 3 2 3 3 3 4 4 3 3 3 4 3 3 2 4 1 3 4 1 0 0 2 3 1 1 1 1 0 0 0 0 -1 -2 -3 -5 -6 -7
-1 -0 -0 0 2 3 4 4 3 4 1 3 3 2 3 3 3 1 2 4 4 -1 2 2 0 -2 -1 -0 1 2 1 1 1 1 1 0 0 -0 -2 -3 -5 -7 -8 -8
-0 -0 1 1 2 2 2 2 2 1 2 3 2 1 1 2 2 1 2 1 -1 -0 0 -1 -3 -2 -1 0 1 2 1 1 1 1 1 0 -0 -1 -3 -6 -8 -10 -10 -9
-0 -1 1 2 -0 -1 -1 -0 -0 1 2 2 1 0 -0 1 1 -1 -1 1 0 0 -0 -3 -4 -2 0 1 1 1 1 1 1 0 0 -0 -1 -4 -6 -8 -9 -10 -10 -9
-0 -1 -1 -1 -1 -1 -1 -0 0 1 2 2 -0 0 1 1 1 -2 -2 -1 -1 -1 -4 -3 -2 -0 0 1 1 1 0 0 0 -0 -1 -2 -4 -6 -8 -8 -8 -9 -9 -8
-1 -2 -2 -2 -1 -1 -1 -0 1 1 1 2 -0 1 1 -4 -2 -3 -5 -2 -2 -5 -2 -2 -1 -0 -0 -0 -0 -0 -0 -1 -1 -2 -3 -5 -7 -8 -9 -8 -7 -8 -7 -7

GFSNW_850_dewp_036.txt.gz
Dewpoint
-3 -2 -1 -0 0 1 1 2 3 3 4 3 2 4 3 2 3 3 3 2 3 3 3 3 3 3 1 -0 1 3 2 4 4 2 0 2 1 4 3 5 3 3 2 -0
-2 -3 -2 -1 1 0 1 2 3 3 3 2 3 3 3 2 4 3 3 3 3 2 4 6 4 3 0 -0 1 3 2 4 4 2 5 3 5 5 4 4 5 3 2 -1
-2 -3 -3 -0 1 0 1 1 3 3 2 3 3 4 3 4 2 3 2 3 2 4 5 4 4 4 2 0 0 1 2 4 4 4 3 4 5 5 4 5 5 3 2 -1
-3 -2 -3 -0 0 0 2 2 2 2 3 2 3 2 2 4 4 3 3 4 3 3 6 4 5 5 3 2 1 2 3 6 5 5 4 5 5 6 5 5 4 4 1 -0
-3 -2 -2 -0 0 -0 2 2 3 3 1 3 3 3 3 3 4 3 4 4 2 2 5 5 4 3 3 3 4 4 4 6 6 6 5 6 6 6 6 5 5 3 1 0
-3 -3 -2 -1 -0 0 1 2 2 2 2 4 4 4 3 3 2 3 2 3 3 4 4 4 4 3 2 3 4 5 6 6 6 7 6 7 8 6 6 5 3 2 3 1
-4 -3 -2 -1 -0 0 1 1 2 3 5 3 4 3 2 3 3 3 4 3 4 3 3 4 4 3 4 4 4 3 5 6 6 7 8 9 6 5 5 5 3 2 1 1
-5 -3 -3 -1 -0 0 1 2 3 3 5 3 3 4 3 3 3 4 3 4 4 4 5 6 6 5 4 4 4 4 3 6 8 9 8 6 3 6 6 5 6 4 4 2
-5 -3 -3 -2 -0 0 1 3 2 4 4 4 2 3 4 5 5 5 5 4 5 5 4 6 6 4 3 5 4 4 4 5 7 7 9 8 3 0 4 4 8 5 4 4
-4 -4 -16 -1 -0 0 1 3 4 4 4 4 4 4 4 4 4 4 4 4 5 5 5 7 6 4 4 7 4 8 7 7 8 8 8 6 2 1 3 5 1 2 4 4
-4 -5 -14 -1 -1 -0 1 3 4 4 4 4 4 3 4 4 4 4 3 4 4 5 6 7 6 4 5 5 4 5 6 7 6 6 7 5 1 -0 2 -0 1 2 1 3
-4 -7 -3 -1 -2 -0 1 3 4 5 4 4 4 4 4 4 3 4 4 4 5 5 5 5 5 4 4 4 6 3 6 4 5 5 5 1 2 1 2 2 2 2 2 2
-15 -2 -3 -3 -2 -1 1 2 3 4 4 4 4 3 4 4 4 4 4 5 4 5 6 5 5 6 3 5 5 4 3 3 5 5 3 2 1 1 2 1 2 2 2 2
-9 -3 -2 -3 -2 -2 1 3 4 4 3 4 3 4 4 4 4 4 5 5 5 5 6 6 6 5 2 4 3 4 3 3 4 4 3 2 2 1 1 1 2 2 1 1
-6 -4 -3 -3 -2 -1 2 4 4 5 5 5 4 4 5 5 5 5 5 5 4 5 6 6 6 5 3 3 2 3 2 4 5 5 2 1 0 1 2 1 2 2 1 1
-4 -4 -6 -7 -2 -0 2 4 4 4 4 4 4 4 5 4 5 5 4 4 4 5 6 6 6 5 5 5 6 3 2 1 2 3 1 1 1 2 1 1 1 2 2 1
-3 -3 -2 -6 -3 -0 1 3 4 4 4 4 4 5 4 4 4 4 4 4 5 5 6 6 6 5 5 5 5 2 2 1 1 1 1 1 1 2 1 1 1 2 2 1
-3 -3 -2 -5 -3 1 3 4 4 4 4 4 3 4 4 4 5 5 5 5 5 5 6 5 5 4 4 6 4 3 3 1 1 1 1 1 1 1 1 1 1 1 1 1
-2 -1 -3 -1 1 3 4 4 4 4 4 4 3 4 5 4 5 5 5 5 5 4 5 5 5 5 6 4 3 2 2 1 1 1 1 1 1 1 1 1 0 -1 -1 -2
-1 0 1 2 2 4 4 4 4 4 4 4 4 3 5 4 4 4 4 3 4 5 4 3 4 5 3 3 3 3 2 1 1 1 1 1 1 1 1 0 -1 -3 -4 -4
-1 -0 1 1 3 4 3 3 3 3 3 3 3 4 4 3 4 4 3 3 2 4 2 4 3 4 1 2 3 3 1 1 1 1 0 1 1 1 0 -1 -3 -4 -5 -5
-2 -2 -1 2 3 3 3 3 2 3 3 3 4 3 3 3 3 3 3 3 2 3 -0 3 3 1 0 1 2 3 2 1 1 1 0 1 1 0 -1 -2 -4 -5 -5 -5
-2 -1 -1 -0 1 2 3 3 4 3 1 3 3 2 3 3 2 2 2 4 4 -1 2 2 0 -2 -1 -0 1 2 2 1 1 1 1 1 1 -0 -2 -3 -4 -4 -5 -5
-1 -1 0 1 2 2 2 1 1 1 1 3 3 2 2 2 2 1 4 1 -1 0 2 -1 -3 -3 -1 0 1 2 1 1 1 1 1 1 0 -1 -2 -3 -4 -5 -6 -6
-1 -1 1 1 -0 -0 -1 -0 -0 1 2 2 1 0 0 1 2 -1 -0 1 2 1 0 -3 -4 -2 -0 0 1 1 1 1 1 0 0 0 -0 -1 -2 -4 -6 -9 -10 -10
-0 -1 -1 -1 -1 -1 -1 -1 0 1 2 2 -0 0 1 2 -1 -1 -1 -1 0 0 -4 -4 -2 -1 0 1 1 1 1 0 0 -0 -0 -1 -2 -3 -6 -7 -9 -10 -11 -10
-1 -2 -2 -2 -2 -1 -1 -1 0 1 2 2 0 1 2 -4 -4 -2 -3 -2 -2 -4 -4 -2 -1 -0 -0 1 1 0 0 -0 -0 -1 -1 -2 -4 -7 -9 -9 -8 -9 -9 -8

GFSNW_850_dewp_039.txt.gz
Dewpoint
-4 -3 -2 -2 -1 0 1 1 2 2 3 1 0 4 2 3 3 2 2 2 2 2 2 3 3 3 1 -0 1 3 2 3 3 1 0 1 1 2 3 5 5 5 4 1
-4 -3 -2 -3 -1 1 1 1 1 4 3 2 3 3 3 3 3 3 2 3 2 2 3 4 3 2 0 0 1 2 2 4 4 1 3 2 4 3 2 4 4 5 5 1
-5 -5 -3 -3 -0 0 1 1 2 2 2 2 2 4 4 4 3 3 2 3 2 3 4 3 4 3 2 0 1 1 1 4 2 3 1 2 5 5 4 4 5 3 4 1
-5 -3 -3 -3 -0 0 2 2 1 2 3 2 2 3 2 4 4 3 2 3 2 3 4 4 4 2 2 1 1 1 3 5 4 3 3 4 5 5 5 5 4 5 1 2
-3 -3 -4 -4 -1 1 1 2 1 2 1 3 3 3 3 3 3 3 4 3 3 3 4 2 4 3 3 3 3 2 4 6 6 6 4 5 6 6 6 6 4 5 3 3
-4 -5 -3 -2 -2 0 0 1 2 1 2 3 4 4 3 3 2 2 1 2 3 3 3 2 2 3 3 3 4 4 5 6 6 6 5 6 8 7 6 6 4 4 5 2
-4 -4 -3 -1 -1 0 1 1 2 2 4 4 3 3 3 2 2 4 3 2 3 3 3 3 4 4 4 4 3 3 4 5 6 7 7 8 5 5 6 6 5 4 2 1
-3 -4 -4 -9 -1 -0 0 1 1 3 4 3 3 3 2 2 3 3 3 4 3 3 4 5 5 5 5 5 4 4 4 4 7 8 8 6 3 2 6 6 6 4 3 1
-5 -4 -4 -19 -1 -0 0 2 2 2 4 4 3 3 3 3 4 4 3 4 4 5 5 5 7 3 3 4 5 3 4 4 6 7 8 8 4 2 3 4 8 4 2 3
-4 -4 -9 -4 -2 -2 0 2 3 2 4 3 3 3 4 4 4 4 4 4 5 4 5 6 6 4 3 6 4 7 6 5 6 7 8 5 3 1 3 5 6 1 3 4
-4 -13 -4 -4 -3 -2 -0 3 3 3 4 4 4 3 4 4 3 5 4 4 4 5 5 6 5 4 4 5 3 4 6 7 7 6 7 6 1 -0 2 -0 1 2 2 4
-8 -16 -3 -2 -3 -2 -0 1 4 4 4 4 4 4 3 3 3 3 3 4 4 4 5 4 4 4 3 4 5 3 5 4 4 4 4 1 2 2 1 2 2 2 2 1
-16 -15 -8 -3 -2 -2 -0 1 3 4 4 4 3 3 4 4 4 3 4 4 4 4 5 4 5 6 2 5 4 4 3 2 5 5 3 3 2 1 1 1 2 2 2 2
-4 -3 -4 -5 -5 -3 -0 1 3 4 4 3 3 4 4 4 4 4 5 5 5 4 5 6 6 5 3 3 3 4 3 3 4 4 3 2 2 2 1 2 2 1 1 1
-4 -3 -4 -4 -9 -6 0 2 4 4 4 5 4 4 4 5 5 5 5 5 5 5 5 6 6 5 3 2 2 3 2 3 5 5 2 2 1 1 1 1 1 1 1 0
-3 -3 -4 -3 -3 -4 2 3 4 4 4 4 5 4 4 5 5 4 5 4 4 4 6 6 5 5 4 6 5 3 2 2 2 3 1 1 1 1 1 1 1 1 0 -0
-3 -3 -3 -2 -3 -3 -0 3 4 4 4 4 4 4 4 5 4 4 4 4 4 5 6 6 6 5 5 5 5 2 2 2 1 2 1 1 2 1 1 1 2 1 1 0
-3 -2 -2 -5 -6 -2 2 4 4 3 4 4 3 4 4 4 5 5 4 4 5 5 5 5 5 5 4 6 4 3 3 2 1 1 1 1 1 2 1 1 1 1 2 -0
-1 -1 -3 -3 -0 2 3 4 4 4 4 4 3 4 5 4 5 5 5 5 5 4 5 5 4 5 6 4 3 3 3 3 1 1 1 1 2 2 2 2 1 1 0 -0
-2 -1 1 2 2 3 4 4 4 4 4 4 4 4 4 4 4 4 4 3 4 5 4 3 4 5 3 3 3 3 2 2 1 1 1 2 1 1 1 1 1 1 -0 -2
-2 -1 0 1 3 3 4 3 3 3 3 3 2 3 3 3 4 4 3 3 2 4 3 4 4 4 1 1 3 3 2 1 1 1 1 1 1 1 0 0 -0 -2 -3 -4
-2 -2 -1 1 3 2 3 2 2 3 3 3 3 3 3 3 3 3 3 3 2 4 -1 3 3 1 -0 0 2 3 1 1 1 1 0 1 1 1 0 -1 -3 -4 -5 -5
-2 -1 -1 -0 0 2 3 3 3 3 2 2 3 3 3 3 3 2 2 3 3 -1 2 3 1 -1 -1 -0 1 2 1 1 1 1 1 1 1 0 -1 -3 -4 -5 -5 -5
-1 -1 -0 1 2 2 2 -0 -2 -0 1 2 3 2 2 2 2 1 4 1 -0 2 2 -0 -3 -3 -1 0 1 2 1 1 1 1 1 1 0 -1 -2 -4 -5 -5 -5 -5
-1 -1 -0 0 -1 -0 -0 -1 -0 0 1 2 1 1 0 1 2 -0 1 2 2 1 -0 -3 -4 -2 -0 0 1 1 1 1 1 1 1 0 -0 -2 -3 -4 -4 -6 -7 -7
-1 -1 -2 -1 -1 -1 -1 -1 -1 -0 2 2 1 1 1 2 1 1 1 -1 0 -1 -4 -4 -2 -1 -0 0 1 1 1 1 0 0 0 -0 -1 -2 -3 -4 -5 -8 -10 -10
-1 -2 -2 -2 -2 -2 -1 -1 -0 1 1 2 1 2 1 -3 -1 -0 -3 -1 -1 -4 -4 -3 -2 -0 -0 0 1 0 0 0 -0 -0 -0 -1 -2 -3 -5 -6 -7 -9 -9 -10

GFSNW_850_dewp_042.txt.gz
Dewpoint
-4 -2 -2 -2 -1 -0 1 1 2 0 1 2 1 4 3 1 1 2 1 0 1 1 2 2 2 2 1 -0 1 3 1 2 3 2 -1 -2 -2 1 1 5 5 5 5 3
-4 -3 -2 -3 -2 -0 1 1 -0 3 3 3 4 3 4 3 2 2 1 2 1 1 2 3 1 1 -0 0 0 1 1 4 4 3 3 0 3 2 1 4 4 6 6 3
-3 -3 -3 -5 -3 0 1 1 2 2 2 2 2 4 4 4 3 2 2 2 1 2 2 2 3 3 1 0 -0 0 0 3 4 5 0 1 5 4 5 5 6 4 5 2
-3 -4 -4 -9 -3 0 1 -0 1 2 4 3 2 2 2 3 3 2 2 2 1 2 3 3 3 2 2 1 1 1 1 6 3 3 2 2 4 5 5 6 5 6 2 1
-2 -5 -4 -9 -3 0 0 0 1 1 1 1 2 2 2 2 3 2 3 2 2 1 2 1 3 2 2 3 2 2 2 5 4 5 2 3 6 5 7 7 7 6 5 4
-3 -5 -4 -10 -3 -0 0 1 1 1 2 2 3 3 2 2 1 2 1 1 2 2 1 1 0 2 2 3 3 3 4 4 6 6 3 4 8 7 7 7 5 5 6 3
-6 -7 -3 -17 -6 -1 0 0 1 2 4 3 3 2 1 2 1 3 2 2 1 3 3 3 3 3 3 3 2 3 4 5 6 7 5 7 4 4 5 7 6 4 3 2
-6 -4 -8 -10 -4 -3 -1 0 1 2 4 2 3 2 2 1 1 2 3 3 2 3 4 5 5 5 5 4 4 3 2 3 7 7 7 3 4 3 4 7 6 4 4 3
-5 -5 -13 -4 -4 -2 -1 1 2 1 3 4 1 2 2 3 3 3 3 4 3 3 4 5 7 5 3 3 5 3 3 3 6 6 7 6 4 2 3 4 9 2 4 3
-4 -9 -7 -2 -2 -2 -0 2 2 2 3 3 3 2 3 2 3 4 4 5 5 4 5 6 6 4 1 4 4 7 6 6 6 5 7 5 2 1 4 7 8 2 3 4
-6 -13 -17 -4 -2 -1 -0 1 2 2 4 4 4 3 4 4 4 4 4 4 4 5 5 6 6 5 2 4 3 5 6 6 6 6 8 7 1 2 4 1 2 2 3 3
-15 -18 -7 -3 -5 -3 -0 1 2 3 3 4 4 3 3 3 2 3 3 4 3 4 4 5 5 4 3 3 4 3 5 4 4 4 4 1 2 2 2 2 2 2 2 3
-4 -4 -3 -3 -7 -9 -2 0 2 3 3 3 3 3 3 3 3 3 4 4 3 4 4 5 4 5 3 6 5 4 3 2 4 5 3 3 2 2 1 1 2 2 2 2
-4 -4 -3 -4 -7 -13 -6 -0 2 3 4 4 3 3 3 3 4 4 4 4 4 4 4 4 6 5 4 5 3 4 3 3 4 4 3 2 2 2 2 1 2 1 1 1
-4 -3 -3 -3 -5 -9 -5 0 3 3 4 4 4 4 4 4 5 5 5 5 5 5 5 5 5 5 4 3 3 4 3 4 4 4 2 2 1 1 1 1 1 -0 -0 -0
-4 -3 -4 -3 -4 -5 1 3 3 4 3 4 4 4 4 5 5 4 3 5 5 4 4 5 4 4 5 6 6 3 2 2 3 3 2 1 1 2 1 1 0 -0 -0 -1
-4 -3 -3 -2 -2 -2 1 3 3 3 3 4 5 4 4 5 5 4 4 4 4 5 4 6 6 5 5 5 4 2 2 3 2 2 2 2 1 2 1 1 1 1 0 -0
-3 -2 -1 -2 -4 -2 1 3 3 4 4 4 4 5 4 4 4 4 4 4 4 4 5 5 6 5 5 6 4 3 3 2 2 2 1 1 1 1 2 2 -1 -0 0 0
-2 -0 -2 -5 -1 1 3 4 4 3 4 4 4 5 5 4 4 5 4 5 5 5 5 5 5 6 6 5 4 3 3 3 2 1 1 1 1 2 2 2 -0 0 1 0
-3 -2 1 2 2 2 4 4 4 4 4 4 4 3 4 4 4 4 4 4 5 5 5 3 5 6 4 3 3 3 3 2 1 1 1 2 2 3 3 3 2 -0 0 -0
-3 -1 -0 1 2 3 3 3 3 3 3 4 2 3 3 3 4 4 3 4 3 6 3 4 5 4 2 1 2 2 3 2 1 2 4 3 2 3 3 3 2 -0 -1 -1
-2 -2 -0 2 3 2 3 3 2 3 4 3 3 3 3 3 3 4 3 4 3 4 0 3 4 2 -0 0 2 3 2 1 1 1 1 1 1 2 1 2 1 -1 -2 -3
-2 -1 -0 0 1 2 2 4 4 4 2 2 3 3 3 3 3 2 3 4 4 -0 3 3 3 0 -2 -0 1 2 1 1 1 1 1 1 1 1 1 1 -0 -3 -4 -5
-2 -1 -0 1 2 2 2 1 0 -0 0 1 2 2 2 2 3 2 4 2 1 4 3 3 -1 -4 -2 -0 1 2 1 1 1 1 1 1 1 0 0 -1 -3 -5 -5 -6
-1 -1 -0 -0 -1 -0 -0 -1 -1 -0 0 2 2 1 1 2 3 1 2 3 3 2 3 1 -3 -3 -1 -0 1 1 1 1 1 1 1 1 1 -0 -2 -3 -4 -5 -6 -6
-1 -1 -1 -1 -1 -0 -1 -1 -1 0 1 2 1 2 3 4 2 3 4 2 3 3 1 -3 -3 -2 -1 -0 0 1 1 1 0 0 0 0 -1 -2 -3 -4 -5 -5 -6 -6
-1 -1 -2 -2 -3 -2 -2 -1 -1 -1 1 2 1 3 4 0 3 3 1 1 2 -2 -4 -3 -2 -1 -1 -0 0 1 1 0 0 0 -0 -1 -2 -3 -4 -4 -5 -5 -6 -7

GFSNW_850_dewp_045.txt.gz
Dewpoint
-5 -4 -2 -2 -4 -2 1 1 2 2 1 2 2 3 4 3 1 1 0 -1 -0 0 0 1 2 2 0 -1 -1 2 0 2 4 3 -1 -2 -1 1 1 5 3 4 4 3
-4 -5 -4 -2 -7 -0 1 1 0 2 1 4 4 3 4 3 1 1 1 1 -0 -1 0 2 1 1 -1 -1 -0 1 0 3 5 5 2 -1 1 0 -0 3 4 6 6 3
-4 -5 -3 -4 -6 1 1 0 3 2 2 3 3 4 4 5 2 2 1 1 -0 0 2 1 2 2 1 0 -1 -0 -1 2 5 5 3 1 6 3 3 5 6 4 4 2
-4 -3 -3 -6 -4 1 1 -0 1 1 4 3 3 2 4 3 3 1 1 1 1 1 2 2 2 1 2 1 1 0 1 5 3 3 1 1 3 4 4 6 5 6 4 4
-4 -6 -3 -9 -6 -0 1 0 1 1 1 0 3 2 5 3 3 2 1 1 0 -0 1 -0 2 2 2 2 1 2 2 4 3 5 2 2 5 3 3 5 7 7 7 6
-4 -4 -5 -10 -4 -2 0 0 1 1 2 0 1 0 -0 0 1 1 -0 -0 1 1 1 -0 -0 0 1 2 2 3 4 5 6 5 2 2 7 6 6 7 7 6 6 3
-4 -3 -10 -4 -4 -3 -1 -0 1 2 4 2 0 -0 -0 0 0 1 1 -0 0 2 2 2 2 2 2 3 3 3 4 5 5 5 3 7 2 2 4 5 6 5 5 4
-4 -4 -12 -3 -3 -2 -1 0 1 2 3 2 2 1 -0 0 1 2 2 1 2 3 3 4 4 4 4 3 4 3 3 6 5 5 4 2 1 3 3 6 7 4 5 4
-3 -4 -13 -5 -2 -2 0 1 1 1 2 2 0 0 0 1 1 2 2 4 3 4 4 5 6 5 2 3 4 3 3 4 6 4 6 5 3 2 2 4 9 3 4 5
-4 -6 -13 -16 -8 -4 -0 1 2 2 2 3 2 1 1 1 1 3 2 4 5 4 5 6 6 5 0 3 3 5 5 5 5 4 5 2 -1 1 4 6 7 3 4 4
-4 -4 -5 -4 -3 -10 -2 1 2 1 2 4 2 3 2 1 2 3 4 4 4 5 5 6 6 4 2 2 1 4 5 6 6 7 7 6 1 2 5 3 3 3 4 4
-4 -3 -3 -3 -3 -6 -4 1 2 2 2 4 4 3 3 3 3 4 4 4 4 4 5 5 5 4 2 1 2 1 4 3 7 4 3 -0 1 2 2 2 2 2 2 4
-4 -3 -2 -3 -3 -5 -4 -2 2 3 4 3 3 4 4 3 3 3 3 4 4 4 4 5 5 6 3 3 3 2 2 1 3 3 2 2 2 2 2 2 2 2 1 2
-4 -3 -3 -2 -3 -3 -8 -3 1 2 3 4 3 3 3 3 3 3 3 4 4 4 4 5 5 5 3 3 3 4 2 3 3 3 2 2 2 2 2 1 1 -0 0 1
-5 -4 -3 -3 -3 -4 -8 -2 1 3 3 4 4 3 3 3 4 4 4 4 4 4 5 4 4 4 5 4 4 4 2 2 4 3 2 2 2 2 2 1 0 -1 -1 -0
-5 -5 -3 -3 -2 -2 1 3 3 3 3 3 4 4 4 4 4 5 5 5 5 4 4 4 3 4 4 5 5 2 1 2 2 2 2 2 2 1 1 -0 -1 -1 -2 -2
-14 -3 -2 -2 -2 -2 0 2 2 3 3 3 4 4 4 4 5 4 4 3 4 4 4 4 4 6 5 4 4 0 2 2 2 3 2 2 2 2 1 0 -0 -1 -3 -2
-6 -2 -1 -1 -2 -2 0 3 3 3 3 4 5 5 4 4 4 4 4 4 3 4 4 5 6 5 5 6 3 3 2 2 2 2 2 2 2 1 1 1 0 -3 -4 -2
-3 -1 -0 -2 -1 1 2 3 4 4 4 4 4 5 6 4 4 5 4 4 4 4 5 5 5 6 6 5 4 4 4 3 3 2 2 1 1 1 2 -0 0 -2 -3 -2
-3 -2 1 1 1 2 3 4 3 3 4 4 4 4 4 4 4 5 4 4 5 5 5 3 5 5 3 3 4 3 3 3 2 2 2 2 1 2 1 1 1 0 -1 -2
-3 -1 -0 1 2 3 3 3 3 3 4 3 3 3 3 3 4 5 3 4 3 5 4 4 5 4 2 1 1 2 2 3 2 2 2 1 2 3 3 2 3 1 -1 -1
-2 -2 1 2 3 2 3 3 3 3 4 3 3 3 3 4 3 4 3 4 3 5 1 3 4 2 0 -0 0 2 2 2 2 1 3 5 2 3 3 3 1 -0 -1 -2
-2 -1 0 1 1 3 3 4 4 4 3 2 2 4 3 3 3 3 3 4 4 0 3 3 3 1 -2 -1 1 2 1 1 1 1 1 1 2 2 3 3 1 -0 -2 -3
-1 -1 1 1 3 2 2 2 2 1 1 1 2 3 3 3 4 3 5 3 1 4 4 4 1 -2 -3 -1 0 2 1 1 1 1 1 1 1 1 2 2 0 -1 -3 -4
-1 -1 0 1 -0 -0 -1 -1 -0 0 0 1 2 2 1 3 3 2 3 4 5 3 4 4 -1 -3 -2 -1 0 1 1 1 1 1 1 1 1 1 1 0 -1 -3 -4 -5
-1 -1 -0 -1 -1 0 -0 -1 -0 0 0 1 2 2 3 4 4 3 4 3 4 5 3 -1 -3 -2 -1 -1 -0 1 1 1 1 0 0 0 -0 -1 -1 -1 -3 -4 -6 -6
-3 -1 -2 -2 -1 -1 -1 -1 -0 -1 0 2 1 3 4 2 4 4 2 3 2 -1 -2 -3 -3 -2 -1 -1 -0 0 0 0 0 0 0 -0 -1 -1 -2 -3 -5 -5 -6 -6

GFSNW_850_dewp_048.txt.gz
Dewpoint
-6 -6 -2 -1 -3 0 1 1 1 2 -0 1 1 4 2 3 3 1 -1 -1 -0 1 1 2 1 2 1 -1 -1 1 -0 3 5 3 -0 -0 1 2 2 2 2 3 4 3
-4 -4 -5 -3 -6 0 1 1 1 1 1 2 2 2 4 3 4 2 1 0 -1 -2 0 2 1 1 -1 -1 -0 2 1 4 3 3 2 -0 1 1 1 1 3 3 5 2
-3 -8 -5 -10 -5 0 1 1 2 2 1 2 2 3 4 5 3 2 0 -0 -1 -0 1 0 2 2 0 -1 -0 -1 -1 3 4 5 4 3 4 2 1 3 5 3 4 2
-6 -8 -6 -11 -6 1 1 1 1 2 3 3 2 3 4 4 3 1 0 1 -0 0 1 1 1 2 2 1 1 -1 1 4 3 3 2 1 2 3 3 5 4 5 3 3
-6 -6 -9 -5 -4 -1 1 1 0 1 2 3 2 3 4 3 2 2 1 2 0 -0 1 1 1 1 2 3 1 2 1 4 4 3 2 2 4 3 3 3 4 6 7 7
-5 -3 -10 -3 -3 -1 0 0 1 1 2 3 3 3 3 2 1 1 -0 0 1 2 2 0 0 1 -0 1 2 2 4 4 5 5 2 2 5 4 4 6 6 7 8 6
-3 -3 -9 -4 -2 -1 0 1 1 1 2 3 1 -1 0 2 2 2 0 -0 1 2 2 1 1 1 2 2 2 1 3 4 4 5 3 7 1 3 4 5 6 5 6 5
-3 -5 -9 -14 -8 -3 -0 1 1 1 3 1 1 -0 -0 2 2 1 1 2 3 3 3 3 4 5 4 3 2 3 3 5 7 5 3 2 2 3 3 5 7 5 5 5
-4 -9 -15 -12 -4 -10 -2 1 1 1 2 2 2 1 1 3 3 2 3 3 3 3 4 4 5 5 2 5 4 2 3 4 6 5 5 5 2 2 2 4 8 4 5 5
-3 -3 -3 -5 -3 -5 -5 1 1 2 2 2 3 2 2 2 1 3 4 4 4 3 5 5 5 4 1 3 6 6 6 6 6 5 6 3 -1 3 4 8 6 3 5 5
-4 -3 -3 -4 -3 -3 -5 0 1 1 1 2 3 3 3 1 2 4 4 4 4 4 5 5 5 5 2 2 3 4 4 5 5 5 6 5 1 2 5 4 3 4 4 4
-4 -3 -4 -3 -3 -2 -3 -1 0 1 1 3 3 3 3 3 3 4 3 4 3 4 5 5 5 4 3 3 3 2 5 3 4 4 3 -0 1 2 2 3 2 2 2 3
-3 -4 -4 -3 -3 -3 -2 -2 -0 1 2 4 4 3 3 3 3 3 4 4 4 4 4 4 4 5 4 5 3 3 1 0 3 4 2 1 2 2 2 2 2 1 1 3
-4 -4 -4 -4 -3 -3 -3 -4 -0 0 2 3 4 3 3 3 3 3 3 4 4 4 4 4 5 5 4 4 4 4 3 2 3 3 2 2 2 2 2 1 1 0 1 2
-4 -4 -4 -6 -3 -2 -3 -8 -2 1 2 3 3 3 3 3 3 3 4 4 4 4 5 4 4 3 4 4 4 4 2 3 4 4 2 2 2 2 1 1 -0 -0 0 2
-4 -4 -3 -3 -3 -2 -1 2 3 2 3 3 4 4 3 3 3 4 4 5 5 4 4 3 3 2 4 6 5 2 1 2 2 2 2 2 2 1 1 -0 -1 -1 -0 1
-5 -5 -3 -2 -2 -2 -1 1 1 2 3 3 4 4 4 4 4 4 4 4 4 5 4 3 4 4 4 5 4 1 1 2 2 2 2 2 2 2 0 -0 -1 -1 -2 -1
-13 -4 -2 -2 -2 -3 -1 2 2 3 3 4 4 4 4 4 4 4 4 3 4 3 4 4 5 4 5 6 4 3 3 3 3 2 2 2 2 1 1 1 0 -1 -2 -3
-5 -2 -1 -1 -2 -1 1 3 3 3 3 4 3 4 4 4 4 5 4 3 4 3 4 4 5 5 5 4 3 4 4 3 3 2 2 2 1 1 0 -0 -1 -1 -3 -3
-3 -2 0 1 1 2 3 2 3 3 4 4 4 3 4 4 4 4 5 4 4 4 4 4 5 5 3 2 3 3 3 3 3 3 2 2 1 1 1 -0 -2 -1 -1 -2
-3 -1 -0 1 2 3 3 4 3 3 3 3 3 3 3 4 4 5 3 3 2 4 3 4 5 5 2 0 -0 0 1 2 3 2 2 2 2 1 0 0 -0 1 -0 -2
-2 -2 0 2 2 2 3 3 2 3 4 3 3 3 3 4 3 4 3 3 3 5 1 3 4 3 -1 -2 -0 1 2 2 2 2 1 2 2 2 3 2 2 1 0 -1
-2 -1 -0 1 1 3 3 4 3 3 2 2 2 3 3 3 3 3 3 4 4 1 4 4 2 -1 -3 -2 -0 1 1 1 1 1 1 5 3 3 3 3 2 1 -0 -2
-1 -1 1 0 2 2 2 2 2 1 1 1 2 3 3 3 3 3 4 3 1 4 4 4 1 -3 -2 -1 -0 1 2 1 1 1 1 1 2 2 3 2 1 -1 -2 -3
-1 -1 0 1 0 0 -0 -0 -0 0 0 1 2 2 1 2 3 2 2 3 4 4 3 2 -1 -3 -2 -1 -1 0 1 1 0 1 1 1 1 1 1 1 -1 -2 -2 -3
-2 -1 -0 -1 -1 -0 -0 -0 0 0 0 1 1 2 3 3 3 3 3 3 3 3 -0 -1 -2 -3 -2 -2 -1 -0 0 0 0 0 0 0 0 0 0 -1 -1 -2 -3 -4
-3 -2 -1 -1 -1 -1 -0 -1 -1 -1 0 1 1 2 2 1 3 3 2 3 0 -2 -2 -3 -4 -3 -3 -2 -1 -1 -0 0 -0 -0 -0 -1 -1 -1 -1 -1 -3 -3 -4 -5

GFSNW_850_dewp_051.txt.gz
Dewpoint
-5 -4 -2 -9 -4 0 1 1 1 1 1 -0 1 3 2 1 3 4 3 1 0 1 2 2 2 3 1 -1 -1 2 0 3 4 2 0 0 1 2 1 -0 -1 0 3 3
-5 -6 -8 -10 -4 1 0 1 1 1 1 1 1 2 2 2 4 4 1 1 -1 -0 1 2 1 1 -1 -1 -1 1 1 3 3 4 2 1 2 2 1 1 1 0 3 2
-4 -6 -11 -7 -3 0 -0 1 1 0 -0 2 3 3 3 4 3 4 1 -0 -1 0 2 2 3 2 1 -0 1 -0 -1 3 1 3 3 3 2 2 1 3 3 2 2 1
-4 -5 -12 -6 -3 0 0 1 2 1 3 3 3 3 4 4 4 2 0 -0 0 1 3 3 3 2 2 1 0 0 1 2 2 2 2 3 3 2 2 1 2 4 1 1
-3 -3 -10 -8 -3 -0 -0 1 1 1 1 3 3 4 4 5 2 3 1 1 1 1 2 2 3 2 2 2 1 1 1 2 3 2 2 3 3 2 2 3 2 2 2 3
-4 -4 -7 -14 -4 -2 0 1 1 1 2 3 4 4 4 4 2 1 -0 1 3 3 2 1 0 -0 0 1 2 2 3 2 3 3 2 2 4 3 3 3 3 3 6 5
-4 -6 -9 -15 -14 -6 -1 1 1 2 2 2 2 1 2 3 2 2 1 2 3 2 1 0 1 2 2 2 1 1 4 2 3 3 3 6 2 1 2 4 4 5 5 5
-4 -3 -8 -13 -6 -9 -3 1 1 1 2 2 2 1 2 2 1 2 3 3 3 3 3 3 4 4 3 4 3 3 2 3 6 5 5 2 2 4 3 4 6 5 5 4
-4 -3 -3 -10 -7 -7 -5 1 1 1 2 1 2 2 1 3 2 2 4 4 3 3 3 4 4 4 3 5 5 2 3 3 5 4 4 5 3 2 2 4 8 5 4 5
-4 -4 -3 -2 -6 -8 -8 1 1 1 2 2 3 2 2 2 2 3 3 3 3 3 4 5 3 4 1 5 5 6 5 5 6 3 5 3 -0 2 4 7 5 3 4 6
-4 -4 -3 -3 -2 -5 -5 -1 1 0 1 2 3 3 4 2 2 3 4 3 3 4 4 4 4 4 3 2 3 4 4 4 5 4 6 4 -1 4 5 3 3 3 4 4
-3 -4 -4 -3 -3 -3 -2 -3 -0 0 0 2 3 2 3 3 3 4 3 4 3 3 4 4 5 3 3 3 4 1 4 2 4 3 2 -2 -1 1 2 2 2 2 3 4
-2 -3 -4 -3 -3 -3 -3 -3 -1 0 1 3 4 3 3 3 3 3 3 4 2 3 3 3 4 5 3 5 3 3 2 -0 3 3 2 1 0 2 2 2 1 1 1 3
-3 -3 -4 -4 -5 -3 -4 -4 -3 -0 1 2 4 3 3 3 3 3 3 4 3 3 3 3 4 5 3 4 3 4 3 1 2 3 2 2 2 2 1 1 1 1 0 1
-3 -4 -4 -5 -3 -3 -3 -10 -9 -1 0 2 3 2 3 3 3 3 3 3 4 4 4 5 5 3 3 3 3 4 2 3 4 4 2 2 2 2 1 1 0 -0 1 2
-4 -4 -4 -3 -3 -2 -2 1 1 0 0 2 4 4 4 4 4 4 4 4 4 4 4 4 3 3 4 5 6 2 1 2 1 2 2 2 2 2 1 0 -0 -0 1 3
-14 -6 -5 -3 -2 -2 -1 1 1 1 2 2 3 4 4 4 4 4 4 4 4 5 4 4 4 3 3 4 4 1 1 1 2 2 2 2 2 2 1 0 0 -0 0 1
-14 -4 -3 -2 -2 -3 -2 1 1 1 2 3 3 3 3 4 4 4 4 4 4 4 4 4 4 3 3 5 3 3 3 3 3 3 2 2 2 2 1 1 -0 -0 -1 -1
-3 -3 -3 -2 -3 -3 0 2 2 2 2 3 3 3 3 4 4 4 4 3 3 3 4 4 5 4 5 4 3 4 3 3 3 2 2 2 2 1 1 0 -1 -1 -3 -3
-3 -2 -0 0 0 2 2 3 3 3 3 3 4 3 3 3 4 4 4 4 4 4 4 4 4 5 3 1 -0 1 2 3 3 3 2 2 1 1 -0 -1 -1 -2 -2 -3
-2 -2 -0 1 1 2 2 3 3 3 3 3 3 3 3 4 4 4 4 3 2 4 3 4 4 5 1 -3 -2 -0 1 1 1 3 3 2 2 2 0 -0 -2 -2 -2 -3
-3 -2 -0 1 2 2 2 3 2 2 3 3 3 3 3 3 3 3 3 3 2 4 2 3 4 2 -3 -2 -1 1 1 1 2 2 2 2 2 1 1 -0 -0 -1 -1 -2
-2 -1 -1 1 1 2 3 3 3 3 2 2 2 2 3 3 3 3 2 3 4 2 3 4 2 -2 -2 -1 -1 0 2 1 1 1 1 3 3 2 2 2 2 1 -2 -1
-2 -1 -1 -0 2 1 2 1 1 1 1 1 2 2 2 3 3 3 4 3 1 3 4 4 -0 -2 -2 -2 -1 -0 1 1 1 1 2 4 3 3 2 3 3 2 -1 -1
-2 -1 -1 0 -0 -0 -0 -1 0 0 1 1 2 2 1 1 2 2 1 3 3 3 3 1 -2 -3 -2 -2 -1 -1 -0 0 1 1 1 1 2 2 3 2 2 -0 -1 -1
-2 -2 -1 -1 -1 -0 -0 -1 0 0 -0 1 1 1 2 1 2 3 3 2 3 2 -2 -2 -4 -3 -3 -3 -2 -1 -1 -0 0 0 0 0 0 1 1 1 -0 -1 -2 -2
-3 -4 -3 -2 -1 -1 -0 -1 -0 -1 -0 1 1 2 3 0 2 3 1 2 -1 -3 -3 -3 -3 -3 -3 -3 -2 -1 -1 -0 -0 -0 -0 -1 -1 -1 -1 -1 -1 -1 -2 -4

GFSNW_850_dewp_054.txt.gz
Dewpoint
-3 -3 -6 -4 0 -1 -1 -1 1 1 1 -1 0 2 3 1 2 4 4 1 2 2 2 2 2 2 1 -1 -1 2 1 2 4 4 1 0 1 2 0 -0 -2 -1 2 1
-3 -2 -9 -7 -1 -1 -1 -0 1 1 0 2 2 1 2 2 4 4 3 1 -1 0 1 3 1 1 -1 -1 -0 1 0 2 3 3 1 2 2 2 1 -0 -0 -0 1 1
-2 -2 -8 -11 -1 -1 -1 0 -0 0 0 1 3 3 3 4 3 4 0 -0 -1 0 2 1 2 2 2 -1 -1 -1 -0 1 -0 2 1 1 1 2 2 2 1 1 1 0
-3 -2 -8 -14 -2 -0 -0 1 1 1 1 2 3 3 4 4 4 1 0 0 1 2 4 2 3 2 2 1 1 1 0 2 2 2 2 2 2 2 2 2 2 2 1 1
-3 -11 -11 -15 -6 -1 -1 1 1 1 2 3 3 3 4 4 2 2 3 4 2 2 3 2 3 2 2 2 0 1 1 1 2 2 1 2 3 3 2 2 1 1 1 1
-2 -5 -11 -5 -5 -2 -1 -0 1 1 1 2 3 4 3 4 2 2 2 2 3 3 2 1 0 -0 -0 1 1 2 2 2 3 2 1 2 3 3 2 2 1 1 3 1
-3 -3 -6 -3 -2 -6 -1 0 1 1 1 2 2 2 2 2 2 3 3 2 3 2 1 1 1 1 1 1 0 0 2 2 3 3 3 5 1 1 1 2 1 2 3 4
-3 -4 -2 -3 -3 -7 -2 1 1 1 1 1 1 2 2 2 2 3 4 3 3 2 2 3 4 3 3 3 1 2 1 2 5 4 4 1 2 4 4 4 4 4 5 5
-2 -3 -4 -2 -2 -5 -3 1 1 1 2 -0 2 2 1 3 2 3 4 3 2 1 3 3 3 4 3 4 5 2 3 3 4 5 3 4 2 2 3 3 6 4 4 4
-2 -4 -3 -3 -2 -4 -4 1 1 1 1 2 3 2 3 2 2 2 3 3 2 2 3 4 3 3 2 5 4 6 6 6 6 4 4 2 -1 -1 4 6 3 3 4 4
-2 -3 -4 -3 -2 -3 -3 -2 1 1 0 1 2 3 4 3 2 2 3 2 2 2 3 3 4 3 3 3 3 4 4 5 5 4 5 3 -2 4 5 2 2 3 4 4
-2 -2 -4 -3 -4 -4 -3 -3 0 1 0 1 3 3 3 4 4 4 3 3 3 3 4 3 4 3 2 3 4 1 4 1 2 2 2 -2 -1 -0 1 2 2 2 3 4
-3 -2 -3 -3 -4 -4 -3 -2 -3 0 0 2 3 2 1 2 3 4 3 3 2 3 3 3 3 4 3 5 3 2 1 -0 2 2 2 1 1 1 1 2 1 1 1 3
-2 -2 -3 -3 -3 -7 -3 -3 -3 -1 0 1 3 4 4 4 4 4 3 3 3 2 3 3 4 5 2 3 3 3 2 1 2 3 2 1 2 2 2 1 1 0 0 2
-3 -2 -3 -3 -4 -4 -2 -2 -6 -3 0 2 2 3 2 3 4 3 4 3 3 4 4 4 4 3 3 2 3 3 2 2 4 4 2 2 2 2 2 1 0 -0 1 2
-3 -4 -4 -3 -4 -3 -3 -0 -4 -7 -1 1 3 3 4 4 3 3 3 4 4 4 4 4 3 3 3 4 5 1 1 1 2 2 2 2 2 2 2 1 0 0 1 3
-10 -16 -4 -5 -4 -3 -2 -0 0 1 1 1 3 3 5 4 4 3 2 3 4 5 4 4 4 3 3 4 4 1 -0 1 1 3 2 2 2 2 1 1 1 0 1 3
-17 -4 -4 -3 -3 -2 -3 0 0 1 2 2 3 3 2 4 4 4 4 4 4 4 4 4 4 3 4 5 2 2 2 3 3 3 3 2 2 2 2 1 0 -0 0 1
-4 -3 -3 -3 -3 -3 -1 0 1 1 2 2 3 3 1 4 4 4 4 4 4 3 4 4 4 4 5 3 1 0 1 2 3 3 2 2 2 2 1 1 -0 -0 -1 -1
-3 -2 -2 -1 -2 0 1 1 2 2 2 2 4 3 3 4 4 3 4 4 3 3 4 4 4 4 1 -2 -3 -1 -1 -1 0 2 3 2 2 2 1 1 0 -1 -2 -2
-3 -2 -1 -0 1 1 2 2 2 2 3 3 3 3 3 3 3 4 3 3 2 4 3 4 4 4 -0 -2 -1 -0 1 1 1 1 1 3 2 2 2 0 -1 -1 -2 -3
-3 -2 -1 0 1 1 1 2 2 2 3 3 3 3 2 3 3 3 3 2 1 4 2 3 4 2 -2 -2 -1 -0 1 1 1 1 2 2 2 2 2 1 -0 -1 -2 -2
-2 -1 -1 0 1 1 2 2 3 3 2 2 2 2 3 3 3 3 2 3 4 2 3 4 2 -2 -2 -2 -2 -1 0 1 1 1 1 2 2 2 1 1 -0 -0 -1 -1
-1 -2 -1 -0 1 1 2 2 1 1 1 1 2 2 2 3 3 3 4 3 2 3 4 3 -1 -3 -3 -3 -2 -1 0 1 1 1 2 4 4 2 1 1 2 2 2 0
-2 -1 -1 -0 -1 -0 -0 -0 0 0 1 1 2 1 1 1 2 2 2 3 3 3 3 -0 -3 -4 -3 -3 -2 -1 -0 1 1 0 1 2 2 2 2 2 3 2 -1 -1
-2 -2 -1 -1 -1 -0 -1 -1 0 0 0 1 1 1 2 2 2 2 3 2 3 1 -2 -3 -3 -3 -3 -3 -3 -1 -1 -0 0 -0 -0 0 1 1 1 2 3 2 0 -1
-3 -4 -3 -2 -1 -1 -1 -0 -0 -0 -0 1 0 2 2 1 2 2 1 1 -1 -3 -3 -3 -3 -3 -3 -3 -3 -3 -1 -1 -1 -0 -1 -1 -1 -1 -0 0 1 1 1 1

GFSNW_850_dewp_057.txt.gz
Dewpoint
-2 -2 -1 -13 -1 -2 -2 -1 -2 -0 1 -1 -0 1 2 1 2 3 4 0 1 2 2 2 2 2 1 -1 -1 1 1 2 6 4 1 -0 1 2 -0 -0 -1 -1 2 0
-2 -3 -3 -14 -1 0 -0 -0 -0 -0 0 1 2 2 3 2 4 4 3 0 0 -0 1 2 1 1 -1 -1 -1 1 -0 1 1 3 2 2 2 2 -1 -1 -2 -1 1 -1
-2 -4 -11 -16 -1 -0 0 0 -1 -0 1 1 2 3 4 4 3 3 1 -0 -1 1 2 1 2 2 2 -1 -1 -0 -1 1 -0 1 0 1 1 2 1 2 2 1 1 -1
-3 -3 -4 -15 -2 -0 -0 0 0 1 2 1 3 3 3 3 3 1 1 1 1 3 3 3 3 2 1 1 2 0 0 2 1 1 1 2 1 1 2 2 1 1 0 1
-3 -2 -3 -11 -4 -1 -1 -0 1 1 2 2 2 3 4 4 3 3 3 3 2 2 3 2 3 2 1 2 0 1 -0 1 1 1 1 2 3 2 1 2 2 2 1 2
-2 -4 -2 -5 -5 -1 -1 -1 0 1 -0 0 2 3 3 3 2 2 2 2 3 3 3 1 0 -0 0 0 1 2 2 1 2 2 1 2 3 3 2 2 1 1 3 0
-2 -3 -2 -2 -6 -2 -0 0 0 1 0 0 1 2 2 3 2 3 3 3 2 2 2 1 1 1 0 0 1 -0 1 2 3 3 2 6 0 -1 1 1 0 0 0 -0
-2 -2 -3 -2 -2 -9 -0 0 0 1 1 0 1 2 2 2 3 3 4 3 3 2 1 2 3 3 3 3 1 1 -0 1 4 5 4 1 2 4 2 2 4 1 1 1
-3 -2 -3 -3 -2 -4 -3 0 1 1 1 -1 1 2 2 3 2 2 3 3 1 1 2 2 3 4 3 5 5 2 2 3 4 4 4 4 0 2 2 2 6 2 3 4
-2 -2 -2 -3 -3 -2 -3 0 0 1 1 1 2 2 3 3 1 2 3 3 2 1 2 3 2 4 3 5 4 5 6 6 6 3 4 1 -1 -2 3 5 3 2 3 4
-2 -3 -3 -3 -3 -3 -4 -3 -0 0 1 1 1 2 4 4 3 2 2 1 2 2 2 2 3 3 2 3 2 4 4 4 5 5 5 3 -2 3 5 2 2 2 3 4
-3 -2 -2 -3 -3 -3 -3 -4 -1 -1 -0 1 1 1 2 4 4 4 3 2 2 2 4 3 4 3 2 2 4 1 4 2 2 1 1 -3 -2 1 -1 0 2 2 2 3
-2 -2 -3 -2 -3 -3 -5 -2 -2 -2 -0 1 2 1 2 2 3 4 4 3 3 3 3 3 3 3 2 4 4 2 1 -0 2 2 1 -0 -1 1 1 1 1 1 1 1
-2 -3 -3 -2 -3 -2 -6 -6 -3 -2 -1 0 2 4 4 4 3 3 4 4 3 2 3 3 3 4 2 2 2 3 2 0 1 2 1 1 1 2 2 2 1 0 0 1
-2 -3 -3 -3 -3 -3 -4 -4 -2 -2 -1 0 2 2 3 4 4 4 4 4 4 3 3 4 4 3 3 3 2 2 1 2 3 3 1 2 2 2 2 2 1 0 0 1
-3 -2 -2 -4 -3 -4 -3 -3 -8 -5 -2 -1 3 3 4 4 3 3 3 4 4 4 4 4 3 2 2 5 5 2 1 1 1 1 1 2 2 2 2 2 1 1 1 2
-3 -5 -5 -3 -4 -4 -3 -2 -1 -1 -3 -0 2 3 4 4 4 4 3 3 4 4 4 4 4 3 3 4 4 1 1 2 2 2 3 3 2 2 2 1 1 1 1 2
-14 -9 -4 -3 -3 -4 -3 -4 -1 -1 -1 1 2 3 1 4 4 4 4 3 4 4 4 4 4 3 4 5 3 2 1 2 3 3 3 2 2 2 2 1 1 0 1 2
-18 -3 -3 -4 -3 -3 -3 -0 -0 -1 0 2 3 3 0 4 4 4 4 4 4 3 4 3 4 4 4 0 -2 -2 -1 -1 -1 -1 0 2 2 2 2 1 1 0 0 1
-8 -2 -1 -2 -3 -2 -0 0 0 0 1 1 3 3 2 4 4 3 4 3 3 3 3 3 4 4 -0 -1 -1 -1 -1 -0 1 1 -0 0 3 2 2 2 1 0 -0 -0
-3 -2 -1 -1 -0 0 0 1 2 1 2 2 2 3 2 3 3 4 3 3 1 4 3 4 3 4 0 -3 -2 -1 -0 1 1 1 1 1 1 2 3 2 1 0 -1 -1
-3 -2 -1 -0 0 0 1 2 1 2 2 2 3 3 3 2 3 3 3 3 1 3 1 3 3 1 -2 -3 -2 -1 -0 0 1 1 1 1 2 2 2 2 1 -1 -1 -1
-2 -1 -1 -0 0 1 2 2 2 2 2 2 2 2 3 3 3 3 2 3 4 1 3 3 2 -2 -3 -3 -2 -1 -0 0 1 1 1 2 2 2 2 1 0 -1 -0 -1
-2 -2 -1 -0 1 1 1 1 1 1 1 1 2 2 2 3 3 3 3 3 2 3 3 3 -1 -3 -3 -3 -2 -1 -1 -0 0 0 1 2 3 2 1 0 -0 -0 -0 0
-2 -2 -3 -3 -1 -0 -0 -0 0 0 1 1 2 1 1 1 2 2 2 3 3 3 2 -1 -3 -3 -3 -3 -2 -1 -1 -0 -0 0 0 1 1 2 2 2 2 2 1 1
-2 -2 -2 -2 -2 -2 -1 -1 -0 -0 0 1 1 1 2 2 2 2 3 2 2 1 -2 -3 -3 -3 -3 -4 -3 -3 -1 -0 -1 -1 -1 0 1 1 1 2 2 2 1 -1
-3 -3 -3 -2 -2 -2 -1 -1 -0 -0 0 1 0 2 1 0 2 2 1 1 -2 -3 -3 -3 -3 -3 -4 -5 -5 -3 -3 -3 -1 -1 -1 -1 -1 -1 1 -0 1 2 2 -0

GFSNW_850_dewp_060.txt.gz
Dewpoint
-3 -1 -13 -16 -1 -1 -2 -1 -4 -2 -0 -1 -0 2 3 2 3 3 1 0 1 2 1 2 2 2 1 -1 -1 1 0 3 5 4 1 -0 1 1 -1 0 0 0 1 -1
-2 -2 -10 -15 -2 -1 -1 -0 -1 -1 1 3 3 3 3 3 3 3 0 0 0 -1 1 1 1 0 -1 -1 -1 1 0 1 3 4 2 1 2 1 -1 -2 -2 2 0 -4
-2 -3 -5 -15 -2 -1 -0 -0 -1 -0 0 1 3 3 3 3 3 1 -0 -0 -0 1 2 1 2 2 2 -1 -1 -0 -1 -0 -0 2 0 1 1 2 -0 -0 -0 1 0 -1
-2 -3 -3 -15 -2 -1 -0 -0 0 1 3 3 3 3 3 3 4 1 1 2 2 2 3 2 3 2 1 1 2 0 -0 2 1 0 1 1 1 2 2 0 0 1 -0 -0
-2 -3 -4 -4 -3 -1 -1 0 0 0 1 1 2 3 3 4 3 2 3 3 2 1 2 2 3 2 1 2 0 1 -1 1 1 1 1 2 3 2 2 2 2 1 1 2
-1 -2 -4 -2 -4 -1 -1 -0 1 1 -1 -0 1 2 3 3 2 3 3 2 2 3 2 1 0 -0 -0 -0 1 1 1 1 1 1 1 2 3 2 2 2 1 1 3 1
-2 -2 -3 -3 -2 -2 -1 0 1 0 0 -0 1 1 2 4 3 4 3 3 2 2 1 1 0 0 0 0 1 -0 1 2 2 3 2 5 -1 -1 0 1 0 0 -0 -1
-2 -2 -2 -3 -2 -4 -1 -0 0 0 0 -0 1 2 2 1 2 3 4 3 3 2 1 2 3 3 2 3 1 1 -1 2 3 4 4 1 2 2 1 2 3 -0 -0 -1
-2 -2 -3 -2 -3 -2 -4 0 0 0 1 -1 1 1 2 2 1 2 3 2 1 1 2 2 2 3 2 4 4 2 3 2 2 4 3 3 -1 2 1 2 8 1 1 1
-2 -3 -2 -2 -2 -3 -5 -1 0 1 1 0 1 1 2 3 1 2 2 3 2 1 1 3 3 4 2 5 5 4 5 5 4 3 4 0 -2 -1 1 6 4 2 3 3
-2 -3 -3 -3 -3 -3 -4 -5 -2 -0 0 0 -0 1 3 4 3 1 1 0 1 1 1 1 2 2 2 3 2 4 4 4 5 4 5 3 -3 3 4 2 1 1 2 2
-3 -2 -3 -3 -2 -3 -3 -6 -2 -1 -1 -0 -0 -0 1 2 4 4 3 2 2 2 3 2 3 3 2 1 3 1 4 1 2 2 1 -3 -2 0 -1 -1 -0 1 2 1
-4 -2 -3 -2 -3 -3 -3 -3 -4 -2 -1 -0 1 0 0 1 2 3 3 3 3 3 3 3 3 1 1 3 3 2 1 -0 1 1 0 -1 -1 0 1 1 1 2 1 0
-3 -3 -3 -3 -3 -3 -3 -3 -7 -3 -2 -1 1 3 4 3 2 3 4 4 4 2 3 3 3 3 1 1 1 2 1 0 1 1 1 1 2 2 2 2 2 1 0 0
-4 -3 -3 -3 -3 -4 -4 -4 -4 -3 -2 -1 1 1 2 4 5 4 4 4 4 3 3 3 3 3 3 2 1 2 1 2 2 2 0 2 1 2 2 2 2 1 1 1
-4 -3 -3 -4 -5 -4 -4 -3 -3 -4 -3 -2 2 2 3 3 3 4 4 4 4 4 3 3 3 2 1 2 4 0 0 1 1 1 1 1 2 2 3 2 2 1 1 1
-6 -2 -8 -5 -5 -5 -4 -4 -1 -3 -3 -2 1 2 3 4 4 4 4 4 4 4 4 3 3 3 3 3 4 -0 1 2 2 3 3 3 2 2 2 2 1 1 1 1
-3 -14 -5 -5 -3 -2 -3 -6 -4 -2 -2 -1 1 3 1 4 4 4 4 4 4 4 3 4 4 4 3 4 2 1 0 1 1 3 0 1 2 2 2 2 1 1 1 1
-13 -11 -4 -4 -4 -4 -3 -2 -1 -2 -2 -1 2 3 2 4 4 4 4 3 4 3 4 3 4 4 4 1 -1 -1 -1 -1 -1 -0 0 -0 -1 1 2 1 1 1 1 1
-16 -4 -2 -3 -3 -4 -1 -1 -1 -1 -1 -0 2 2 2 4 4 4 3 3 3 3 3 3 4 2 -0 -1 -2 -1 -1 -1 -0 0 0 0 0 0 2 2 2 1 1 -0
-3 -2 -1 -1 -1 -0 -0 0 1 0 2 2 2 2 3 3 3 3 3 3 1 3 3 4 3 4 0 -2 -3 -2 -2 -1 0 0 1 1 1 1 1 1 2 2 1 -0
-4 -2 -2 -1 -0 -0 1 1 1 1 2 2 3 3 3 3 3 3 3 2 1 3 1 3 4 1 -3 -3 -3 -2 -1 -0 0 0 1 1 1 2 2 2 1 2 2 -1
-2 -1 -1 -1 -0 1 1 1 2 2 1 2 2 2 3 3 3 3 2 3 3 1 3 3 1 -2 -2 -3 -2 -1 -1 -0 -0 0 0 1 2 2 2 2 2 2 0 -1
-2 -1 -1 -1 -1 0 1 1 -2 0 1 1 2 2 2 3 3 2 3 3 2 2 0 0 -1 -2 -3 -3 -2 -1 -1 -1 -1 -0 -0 1 1 1 0 -0 -0 -1 -1 -1
-2 -2 -2 -2 -2 -1 -0 -0 0 0 1 1 1 1 1 1 2 2 2 3 3 2 1 -2 -3 -3 -3 -3 -3 -2 -1 -1 -1 -1 -0 0 0 0 1 1 0 -0 -0 -0
-3 -2 -2 -2 -2 -2 -1 -1 -0 -0 0 0 1 1 2 1 1 2 3 2 1 -1 -2 -3 -3 -3 -4 -6 -4 -2 -1 -1 -1 -1 -1 -1 -0 0 1 1 1 1 1 0
-3 -3 -3 -3 -2 -3 -2 -1 -0 -1 -1 0 0 2 0 0 2 2 1 1 -4 -2 -3 -3 -3 -3 -3 -6 -7 -6 -4 -3 -2 -1 -2 -2 -2 -2 -0 -1 -0 1 1 -0

GFSNW_850_dewp_063.txt.gz
Dewpoint
-1 -3 -2 -3 -3 -1 -3 -3 -3 -1 1 2 1 3 3 3 3 3 2 -0 1 2 1 1 1 2 1 -1 -1 2 0 2 5 4 0 -0 -0 1 -1 1 1 1 1 -2
-1 -2 -3 -5 -2 -1 -1 -1 -1 -1 1 3 3 2 3 3 3 2 -0 0 -0 -1 1 1 1 1 -0 -1 -1 0 -1 1 4 4 2 1 2 1 -1 -1 -0 2 0 -4
-1 -2 -4 -9 -2 -1 -1 -1 -0 0 1 2 3 4 1 2 1 1 0 -0 -0 1 2 1 1 3 1 -1 1 -0 -2 -0 1 2 0 2 2 2 -0 -0 2 1 1 -2
-1 -2 -5 -7 -2 -1 -1 -0 0 1 2 1 1 2 2 3 4 1 1 1 2 1 2 2 3 1 1 1 1 -0 -1 2 0 -0 1 1 1 2 1 -0 -0 2 -0 -0
-2 -2 -3 -6 -2 -1 -1 0 1 1 0 -0 0 2 3 3 3 2 3 3 2 1 2 2 3 1 1 1 0 0 -1 3 1 1 1 2 3 2 2 1 1 0 -0 1
-2 -2 -2 -4 -2 -1 -1 -0 -0 1 -1 -1 1 3 2 3 2 3 3 2 2 2 2 1 -0 -0 -0 -0 1 1 0 1 1 2 1 2 3 2 2 2 1 1 3 1
-2 -3 -2 -4 -2 -2 -1 -0 0 1 1 1 1 1 2 3 3 3 3 3 2 1 1 1 0 -0 0 0 0 -1 1 1 1 3 1 5 -2 -2 0 1 0 0 0 -1
-2 -2 -2 -3 -4 -3 -2 -0 -0 0 0 -1 1 1 1 1 2 3 3 3 3 2 1 2 3 2 1 3 2 0 -1 2 3 3 4 0 3 2 1 2 3 -0 -0 -1
-3 -2 -2 -2 -3 -6 -4 -0 -0 0 1 -1 1 1 1 2 1 1 2 2 1 1 1 1 2 2 1 4 4 2 2 1 1 2 2 3 -2 2 1 1 7 2 -0 1
-4 -2 -4 -3 -2 -4 -10 -2 -1 0 1 -1 0 1 2 3 1 1 1 2 2 0 1 3 3 3 2 4 4 5 4 4 3 3 2 1 -3 -2 -1 6 6 1 2 3
-4 -3 -2 -3 -2 -2 -5 -6 -1 -1 -1 -0 -1 -1 1 3 3 2 1 0 1 0 1 1 2 2 3 3 2 3 3 4 4 4 3 2 -3 1 4 3 1 -0 1 2
-9 -4 -2 -3 -4 -3 -4 -4 -5 -4 -2 -1 -1 -1 -1 -0 1 3 3 1 2 1 1 1 2 3 2 1 3 1 3 0 1 0 1 -3 -2 -1 -1 -1 -1 1 2 1
-8 -5 -2 -2 -2 -3 -3 -3 -3 -6 -3 -2 -1 -2 -0 -1 1 2 3 3 4 3 3 2 3 1 1 2 3 2 1 -0 1 1 -0 -1 -1 1 0 1 2 2 1 0
-11 -5 -2 -2 -3 -3 -3 -3 -4 -4 -3 -2 -0 3 3 2 1 2 3 4 4 3 3 2 2 1 0 1 0 1 1 0 1 1 0 0 1 2 2 4 2 2 1 0
-9 -10 -4 -3 -3 -3 -4 -4 -4 -5 -4 -1 -1 -1 1 2 3 3 3 4 4 3 3 3 3 2 2 1 1 2 1 1 2 2 0 1 1 1 1 2 2 2 1 1
-6 -6 -11 -3 -4 -4 -3 -4 -3 -4 -5 -2 -0 2 3 2 3 4 5 4 4 4 3 3 2 2 1 2 2 -0 0 1 1 1 1 2 2 2 2 2 2 2 1 1
-5 -10 -5 -7 -6 -3 -3 -4 -2 -2 -4 -3 -1 2 2 4 3 4 4 4 4 4 3 3 3 2 2 3 3 -0 1 2 1 2 2 2 2 2 2 2 2 1 1 1
-5 -10 -15 -5 -3 -2 -2 -3 -4 -4 -3 -2 0 2 2 3 4 4 4 4 4 3 3 3 4 3 3 4 3 1 0 1 1 2 2 0 0 0 1 2 2 1 1 1
-4 -14 -9 -3 -3 -4 -4 -3 -4 -3 -2 -2 0 2 3 4 4 4 4 4 4 3 4 4 3 3 4 3 -0 -0 -1 -0 -1 -0 -0 -0 0 0 0 1 2 1 1 1
-8 -11 -2 -3 -3 -5 -2 -1 -2 -2 -2 -2 0 2 3 3 4 3 3 3 3 4 3 3 4 4 -0 -1 -1 -1 -1 -1 -1 -1 -0 0 0 0 0 0 1 2 2 1
-10 -2 -2 -2 -1 -1 -1 -1 -1 -1 0 0 1 2 3 3 3 4 2 2 2 3 3 4 3 4 1 -2 -2 -3 -2 -1 -1 -1 -0 -0 0 1 1 1 1 1 2 2
-6 -3 -2 -2 -1 -0 0 1 1 0 0 2 3 2 2 3 3 2 3 2 1 3 1 2 3 1 -3 -3 -3 -2 -1 -1 -0 -0 0 0 1 1 2 1 2 2 1 1
-3 -2 -2 -1 -1 0 1 1 2 2 1 1 2 2 3 2 3 2 2 3 3 1 3 2 0 -1 -2 -3 -2 -1 -1 -1 -1 -0 -0 0 0 1 1 1 1 2 2 2
-2 -2 -2 -1 -1 0 0 1 -1 0 0 1 2 2 2 2 2 2 3 3 2 3 2 2 -1 -2 -2 -2 -2 -1 -1 -1 -1 -1 -1 -1 -0 0 -0 -1 -1 -0 -0 -1
-2 -2 -3 -2 -2 -1 -1 -0 -0 0 0 1 1 1 1 1 2 2 2 3 2 2 1 -2 -2 -3 -4 -3 -2 -2 -1 -1 -2 -2 -1 -1 -0 -0 0 0 -1 -2 -2 -1
-3 -3 -2 -3 -2 -2 -2 -1 -1 -0 -0 0 1 1 1 1 1 2 1 2 1 -0 -2 -3 -3 -4 -5 -6 -3 -2 -2 -1 -1 -1 -1 -1 -1 -0 -0 -0 -0 0 -0 -0
-4 -5 -4 -3 -3 -3 -3 -1 -1 -1 -1 -0 -0 1 0 0 1 1 -2 -1 -3 -2 -3 -3 -3 -4 -4 -7 -8 -9 -9 -9 -7 -3 -2 -1 -1 -2 -2 -1 -1 -1 -0 -1

GFSNW_850_dewp_066.txt.gz
Dewpoint
-1 -1 -3 -4 -3 -2 -2 -3 4 1 1 3 3 4 3 2 2 3 2 1 1 1 0 1 1 2 1 -1 -1 1 1 2 5 4 0 -0 -0 1 -1 4 4 1 2 -4
-0 -2 -3 -5 -2 -1 -1 -2 -2 0 1 4 3 2 2 2 2 1 0 0 -0 -1 0 1 1 1 -1 -1 -1 -0 -1 2 5 4 2 1 2 1 -1 -0 2 4 1 -3
-2 -3 -3 -9 -2 -1 -1 -0 3 1 2 2 2 3 4 3 2 1 0 -0 -1 -0 1 -0 1 1 0 0 0 -0 -2 0 3 2 1 2 5 2 0 5 5 1 1 -2
-2 -2 -3 -11 -2 -1 -1 0 1 1 3 2 1 2 3 3 4 1 1 1 1 0 1 1 2 1 1 1 0 -1 -1 3 1 0 1 1 2 3 1 3 2 5 -1 -2
-2 -2 -4 -7 -3 -2 -1 1 1 1 1 0 2 3 3 3 3 3 2 2 2 1 1 1 1 1 0 0 -0 -0 -0 4 2 3 1 1 3 2 2 1 1 0 -0 0
-2 -2 -2 -3 -4 -2 -1 -0 1 1 0 1 2 3 3 4 3 3 3 2 1 2 1 1 -0 -0 -1 -0 0 1 1 2 3 4 1 2 4 2 2 1 0 0 2 -0
-3 -2 -2 -2 -4 -2 -1 -1 0 1 2 1 1 2 2 2 3 3 3 2 1 1 1 1 -0 -0 -0 -0 -0 -1 1 1 2 3 2 4 -1 -2 -0 1 -0 -0 -1 -1
-5 -3 -4 -4 -2 -5 -2 -1 -1 0 0 -0 0 1 2 1 1 3 3 3 2 2 1 1 2 2 1 2 1 0 -1 1 3 3 3 0 3 1 1 2 5 -0 -1 -1
-10 -3 -4 -5 -2 -5 -5 -1 -1 0 0 -0 0 1 1 3 2 1 2 2 1 1 2 2 2 3 1 3 3 1 1 0 1 4 4 2 1 2 1 0 8 2 -1 0
-16 -7 -3 -4 -3 -2 -8 -3 -2 -0 0 0 -0 1 2 3 2 3 2 3 2 0 2 3 3 2 1 2 2 3 3 3 3 2 3 -0 -3 -3 -1 6 7 2 1 2
-16 -13 -4 -3 -5 -3 -3 -6 -4 -3 -2 -1 -0 0 1 2 3 3 2 2 1 2 2 2 3 2 2 2 2 2 2 3 3 2 2 3 -3 2 4 3 1 0 1 2
-13 -14 -8 -2 -2 -4 -3 -3 -5 -5 -4 -4 -3 -1 -1 -1 1 2 4 2 3 1 2 2 2 1 2 2 2 1 3 0 -0 -0 0 -2 -2 0 -0 -0 0 1 2 2
-9 -13 -6 -3 -3 -3 -4 -3 -4 -3 -3 -4 -2 -6 -10 -6 -2 -1 2 3 3 3 3 2 3 1 1 1 1 2 1 -0 1 1 -0 -1 -2 -0 1 1 2 2 1 1
-7 -12 -4 -3 -3 -4 -3 -3 -4 -4 -5 -4 -4 -0 2 2 1 -1 1 2 4 4 3 3 3 1 1 1 0 1 0 0 1 1 -0 -0 1 1 2 1 3 3 2 1
-9 -12 -5 -4 -4 -3 -4 -4 -5 -4 -4 -3 -3 -5 -1 1 2 1 1 2 2 4 3 3 3 3 1 1 2 2 0 -0 1 -0 -1 1 0 1 1 1 1 2 2 1
-9 -11 -3 -6 -3 -4 -4 -4 -3 -3 -3 -4 -3 -1 -0 2 3 4 4 3 3 4 4 3 3 1 1 3 3 -1 0 1 0 0 1 1 1 1 2 2 2 2 2 1
-8 -11 -4 -3 -4 -5 -3 -5 -5 -4 -4 -5 -3 -1 2 3 3 4 4 3 4 4 2 2 2 3 3 2 2 -1 0 1 1 2 1 2 2 2 2 2 2 2 1 1
-4 -6 -3 -6 -8 -3 -2 -2 -2 -3 -4 -4 -2 -1 2 3 3 4 3 4 3 4 3 3 3 3 2 4 1 1 0 1 1 1 1 1 1 1 1 0 2 2 1 1
-6 -4 -7 -8 -2 -4 -4 -4 -3 -3 -3 -2 -1 2 4 3 3 3 4 3 4 3 4 2 3 2 4 2 2 2 -0 0 0 0 0 -0 -0 0 0 0 0 1 2 1
-3 -6 -3 -3 -4 -4 -3 -2 -2 -2 -2 -3 -1 0 2 2 3 4 3 3 3 3 2 3 4 4 2 1 0 -0 -0 -0 -0 -0 -0 -0 -0 -0 0 0 0 0 0 2
-3 -3 -2 -2 -3 -1 -1 -1 -1 -2 -0 -1 -1 1 2 2 2 3 2 3 2 4 2 4 4 3 1 -1 -1 -1 -2 -2 -1 -1 -1 -1 -0 -0 0 0 1 1 1 1
-4 -2 -2 -2 -1 -1 -0 1 0 1 1 1 2 2 2 2 3 3 3 3 1 3 2 3 3 1 -2 -3 -3 -3 -2 -1 -1 -1 -0 -0 0 0 0 1 1 1 1 1
-7 -5 -2 -2 -1 0 -0 1 2 2 1 1 1 1 3 2 2 2 2 3 4 1 3 3 1 -1 -2 -3 -2 -1 -1 -1 -1 -1 -1 -1 -0 -0 0 0 -0 0 1 2
-2 -2 -2 -1 -1 -0 -0 1 0 0 0 1 0 2 2 2 2 1 3 3 1 4 3 3 0 -1 -2 -2 -1 -1 -1 -1 -1 -1 -1 -1 -1 -0 -0 -0 -1 -2 -1 1
-2 -2 -2 -2 -2 -1 -1 -1 -0 -0 -0 0 1 1 1 1 2 1 2 3 3 2 2 1 -1 -2 -2 -1 -1 -1 -1 -1 -1 -1 -2 -1 -1 -1 -1 -1 -0 -1 -2 -3
-3 -4 -3 -4 -2 -2 -3 -1 -1 -0 -0 -0 -0 1 2 1 1 3 1 2 3 2 1 -2 -3 -3 -4 -1 -1 -1 -3 -6 -5 -2 -2 -2 -1 -1 -1 -1 -1 -1 -1 -1
-5 -5 -4 -4 -3 -4 -3 -2 -1 -1 -1 0 -0 1 1 1 2 1 1 2 1 -1 -2 -2 -3 -5 -6 -7 -8 -9 -11 -12 -13 -12 -7 -5 -3 -2 -1 -1 -1 -1 -1 -1

GFSNW_850_dewp_069.txt.gz
Dewpoint
-3 -8 -8 -14 -7 -4 -2 1 5 0 1 3 3 4 3 2 2 2 2 0 -1 -0 -1 0 1 2 1 -1 -2 0 0 2 5 4 0 -0 -0 1 0 5 4 2 3 -2
-4 -13 -24 -15 -3 -1 -2 1 2 1 4 4 4 2 2 2 1 0 -0 -0 -1 -2 -1 1 0 1 -1 -1 -1 -1 -1 3 5 4 2 1 2 1 -1 -0 4 5 2 -2
-6 -12 -24 -19 -4 -2 -1 2 4 2 3 2 1 3 4 2 1 -0 -0 -1 -2 -2 -1 -1 1 1 0 0 -1 -1 -2 1 4 4 2 2 6 2 0 4 5 1 1 -3
-12 -9 -20 -25 -9 -2 0 2 2 2 4 3 2 1 2 1 2 0 -0 -1 -0 -1 -0 -0 2 1 0 -0 -1 -1 -1 3 2 0 0 1 2 3 2 4 3 6 -2 -2
-13 -7 -17 -24 -16 -4 1 1 1 1 2 1 1 2 3 2 2 2 1 1 0 -1 -0 1 1 -0 -0 -0 -1 -1 -1 4 2 4 0 1 3 1 2 1 0 -0 -1 -1
-16 -8 -8 -14 -20 -8 0 0 1 1 1 1 1 3 3 3 2 2 2 1 0 1 1 -0 -1 -1 -1 -1 -0 -0 -0 2 3 4 1 2 4 2 1 1 -0 -0 2 -1
-18 -13 -14 -15 -14 -6 -2 -0 0 1 2 1 1 2 2 2 3 3 2 2 0 0 1 0 -1 -1 -1 -1 -1 -1 0 1 1 2 1 5 0 -2 -0 0 -0 -1 -1 -2
-15 -17 -13 -8 -7 -15 -5 -1 -1 1 1 -0 0 0 2 1 1 2 2 2 2 3 2 1 1 1 1 1 -0 -1 -2 -0 2 3 2 0 3 1 0 2 4 -1 -1 -2
-11 -17 -12 -11 -8 -7 -12 -6 -2 -0 1 0 -0 0 1 3 2 1 2 2 2 2 1 1 2 3 0 1 3 1 -0 -1 1 3 4 2 4 2 1 1 7 1 -0 1
-7 -14 -15 -8 -7 -7 -5 -10 -10 -2 -1 -2 -0 -0 1 2 2 3 1 2 2 1 2 3 3 1 -1 1 1 2 2 2 2 2 2 0 -2 -2 -1 6 7 2 1 1
-3 -8 -15 -10 -3 -4 -4 -3 -7 -7 -3 -5 -5 -1 1 1 3 3 3 2 2 2 3 2 2 1 -0 1 -0 -0 1 1 2 1 2 3 1 1 2 3 2 1 2 2
-2 -5 -12 -10 -5 -3 -4 -2 -2 -3 -3 -7 -12 -8 -8 -0 1 2 3 3 2 1 2 2 1 1 1 -0 2 -0 2 -1 -0 -1 0 -1 -2 0 -1 -0 1 2 2 2
-1 -2 -6 -10 -6 -4 -4 -2 -2 -2 -3 -5 -5 -3 -4 -10 -6 -0 2 3 4 3 4 3 2 1 -1 0 0 -0 -0 -1 -0 1 -2 -2 -2 -1 2 1 2 2 2 1
-0 -1 -4 -10 -6 -5 -4 -2 -2 -3 -3 -3 -6 -3 -0 1 -1 -3 -1 1 4 4 4 3 1 0 -1 -1 0 0 -0 0 -0 -0 -1 -1 -0 -0 2 1 1 2 3 3
0 -1 -6 -8 -4 -5 -3 -3 -3 -2 -3 -4 -4 -6 -12 -6 1 2 1 -1 2 3 4 3 1 1 0 -0 1 -0 -2 -1 1 -0 -2 -2 0 2 2 1 1 2 2 2
0 -2 -6 -4 -5 -4 -3 -2 -4 -3 -3 -3 -4 -5 -4 0 -0 2 2 1 1 3 4 2 2 2 1 1 1 -2 -1 -1 -1 -2 1 1 2 2 1 1 1 2 2 1
-0 -2 -4 -4 -3 -3 -3 -3 -3 -4 -4 -3 -4 -3 -1 -0 2 2 2 2 3 3 3 2 2 2 2 1 2 -2 -2 -1 0 1 1 1 1 2 1 1 1 2 2 1
-1 -1 -2 -3 -2 -4 -6 -5 -3 -3 -3 -4 -2 -2 0 2 3 3 3 3 3 4 2 3 2 2 2 3 -0 -1 -1 0 1 1 1 1 1 1 1 1 1 1 2 1
-1 -2 -2 -2 -5 -3 -2 -4 -3 -2 -3 -2 -1 1 3 2 3 2 3 3 3 3 3 2 2 2 3 1 0 0 1 0 1 1 0 1 0 0 1 1 0 1 1 1
-2 -3 -3 -2 -3 -4 -4 -2 -2 -2 -3 -3 -2 -1 2 0 2 2 2 3 4 3 2 3 4 3 0 1 0 0 -0 -0 -0 -0 0 0 0 0 -0 0 1 1 0 0
-2 -3 -3 -2 -2 -2 -2 -1 -2 -2 -1 -2 -2 -1 1 1 2 2 2 2 2 4 3 3 3 3 2 -0 -1 -1 -1 -1 -1 -1 -1 -1 -1 -0 -0 0 0 1 1 1
-3 -3 -2 -2 -2 -1 -0 -0 -0 -0 -1 1 1 2 1 1 0 2 2 3 2 4 2 4 3 1 -2 -2 -2 -2 -2 -2 -1 -1 -1 -0 -0 -0 -0 0 0 1 1 1
-3 -5 -2 -2 -2 -0 0 0 2 2 1 1 0 1 2 2 3 2 2 3 3 1 3 2 1 -0 -1 -2 -2 -2 -1 -1 -1 -1 -1 -1 -1 -1 -1 -0 -0 -0 -1 -0
-3 -3 -2 -2 -1 -1 -1 1 1 0 0 0 -0 0 2 2 2 1 3 2 2 4 4 3 2 -0 -1 -1 -1 -1 -1 -1 -1 -1 -2 -2 -2 -1 -1 -1 -1 -1 -2 -2
-2 -2 -2 -3 -3 -1 -1 -1 -1 -0 0 0 0 1 1 2 3 2 2 4 4 2 2 2 0 -0 -1 -1 -1 -1 -1 -2 -1 -1 -1 -1 -1 -1 -2 -2 -1 -1 -1 -2
-3 -3 -2 -4 -2 -2 -2 -1 -1 -1 -1 -1 -0 1 2 2 2 2 2 2 3 3 3 0 -1 -2 -1 -1 -1 -1 -3 -7 -5 -7 -6 -5 -3 -1 -1 -2 -2 -1 -1 -1
-5 -5 -4 -4 -3 -4 -4 -2 -1 -1 -1 -1 -0 2 2 1 2 1 1 2 3 1 -1 -1 -2 -3 -3 -2 -5 -8 -10 -12 -13 -15 -15 -14 -11 -6 -3 -2 -1 -1 -1 -1

GFSNW_850_dewp_072.txt.gz
Dewpoint
-20 -17 -25 -25 -17 -6 -4 2 5 1 3 3 4 4 2 2 2 2 2 1 -0 -0 -0 1 1 3 1 -1 -1 1 1 3 6 5 1 -0 1 3 2 4 4 4 4 -1
-19 -18 -25 -27 -15 -4 -2 2 2 3 3 4 4 2 3 1 1 0 0 -0 -1 -2 -1 2 1 1 -1 -1 0 1 0 4 5 4 3 1 2 1 0 2 5 6 5 -0
-19 -20 -26 -28 -20 -4 1 2 3 2 2 1 2 3 3 2 1 0 -1 -1 -2 -2 -0 -1 1 2 1 -0 -1 -1 -1 2 4 4 4 3 3 2 2 3 5 4 3 -2
-18 -19 -23 -27 -25 -10 1 2 1 1 3 3 2 2 2 1 3 1 -1 -1 -0 -1 -0 -0 2 1 1 -0 -1 -2 1 2 2 0 0 1 4 3 3 1 2 2 1 -2
-16 -17 -20 -26 -26 -14 -2 1 1 1 1 1 1 1 1 3 1 2 1 1 -0 -0 2 1 1 -0 -1 -0 -1 -1 -1 3 2 3 0 1 2 2 2 2 1 0 -1 -0
-10 -16 -17 -21 -26 -21 -3 -1 0 1 1 1 1 2 1 3 2 2 2 2 2 2 1 -0 -1 -2 -1 -1 -1 0 0 2 3 4 1 2 3 2 2 2 0 0 2 -1
-7 -14 -16 -14 -21 -24 -9 -1 -0 1 2 1 0 1 1 1 2 3 1 2 1 1 1 1 -1 -1 -1 -1 -1 -1 0 1 2 3 1 5 1 -1 -0 1 0 -0 -1 -2
-4 -9 -16 -13 -9 -17 -11 -9 -2 -0 -0 -1 -0 0 1 1 1 2 1 2 2 2 2 2 1 2 0 -0 -0 -1 -1 0 2 3 3 1 3 1 1 1 2 -1 -1 -1
-1 -5 -12 -15 -9 -11 -13 -9 -8 -2 -1 -0 -3 -1 -0 2 2 2 2 2 1 2 2 3 2 3 0 1 0 -0 -0 -0 1 4 4 4 4 1 -1 -0 7 -0 -1 -1
-0 -2 -5 -13 -10 -8 -9 -6 -8 -3 -1 -4 -2 -1 1 1 2 2 2 2 2 1 3 3 4 2 -1 1 1 3 2 2 3 3 3 1 2 1 -1 7 7 1 1 1
0 -1 -2 -6 -11 -4 -5 -4 -3 -5 -3 -6 -9 -7 -2 -1 1 3 3 3 3 3 3 3 3 2 0 0 -1 0 1 2 1 1 3 3 0 0 3 4 2 2 2 2
0 -0 -1 -2 -8 -8 -4 -4 -2 -2 -3 -5 -8 -10 -10 -12 -1 1 2 3 3 2 3 2 2 1 1 0 2 -1 2 -0 1 -0 1 -1 1 -1 -1 -0 1 2 2 2
2 1 0 -1 -4 -6 -3 -4 -4 -2 -3 -5 -5 -4 -4 -4 -10 -2 2 2 3 4 4 4 3 2 -0 1 1 -0 -1 -1 0 1 -1 -1 -1 -0 1 1 1 2 2 2
2 1 1 -0 -4 -7 -3 -3 -3 -2 -3 -3 -5 -5 -5 -0 -0 -4 -1 1 2 2 4 4 3 2 -1 0 1 1 1 -0 0 -0 -1 -1 -1 -1 3 1 1 2 2 2
-0 2 0 -0 -4 -5 -4 -4 -3 -3 -3 -4 -4 -5 -7 -6 -6 0 -3 -3 -0 -0 3 4 3 1 1 -0 1 1 -1 0 1 1 -1 -1 2 2 2 1 1 1 1 1
-0 1 0 -0 -3 -3 -3 -3 -4 -4 -3 -3 -3 -6 -9 -8 0 -4 1 1 1 1 3 2 2 1 1 2 2 -2 -2 -2 -2 -1 -0 -0 1 1 1 1 1 2 2 2
-0 1 1 -1 -2 -2 -2 -3 -2 -3 -4 -3 -4 -4 -4 -0 0 -2 2 2 2 2 2 3 3 2 2 2 2 -2 -2 -2 -1 0 0 0 1 2 2 1 1 1 1 2
-1 -0 -0 -1 -2 -2 -2 -3 -4 -3 -3 -3 -4 -3 -3 1 2 2 2 2 2 2 3 2 3 2 3 4 0 -1 -1 -1 -1 0 0 0 1 1 1 0 1 1 0 1
0 -0 -1 -2 -2 -3 -2 -2 -3 -2 -2 -2 -2 -1 -0 1 2 1 2 3 3 2 3 2 2 2 3 2 0 -0 0 0 1 1 1 1 0 0 0 0 0 0 1 1
-0 -1 -2 -3 -2 -3 -3 -3 -2 -2 -3 -3 -3 -4 -0 -0 1 1 1 2 3 3 3 3 4 3 -0 1 1 1 1 0 0 0 0 0 1 0 -0 -0 -0 0 0 0
-1 -3 -3 -2 -2 -2 -2 -2 -2 -2 -2 -2 -3 -3 -2 0 2 2 2 2 2 3 3 4 3 2 1 -0 0 0 0 -0 -0 -1 -1 -1 -1 -1 -1 -1 -0 -0 0 1
-2 -3 -2 -2 -2 -2 -1 -0 -1 -1 -2 -1 -0 1 -0 1 0 1 2 2 1 4 2 3 2 1 -1 -1 -1 -1 -2 -1 -1 -1 -1 -1 -1 -1 -1 -1 -0 0 1 1
-3 -3 -2 -2 -2 -2 -0 -0 0 1 1 0 0 0 0 1 1 2 2 3 3 2 3 2 1 -1 -2 -2 -2 -2 -1 -1 -1 -1 -1 -1 -1 -1 -1 -1 -0 -0 -0 -0
-4 -4 -3 -2 -1 -1 -0 -0 -0 -1 -0 0 0 -1 1 1 1 1 3 2 1 3 3 2 2 0 -1 -1 -2 -1 -1 -1 -1 -1 -1 -1 -1 -1 -1 -1 -1 -1 -1 -1
-2 -2 -2 -2 -3 -2 -2 -1 -2 -1 -1 -0 -0 0 0 1 1 1 2 3 2 3 3 2 1 0 -0 -1 -1 -1 -1 -1 -1 -1 -2 -3 -1 -1 -1 -1 -2 -2 -2 -1
-3 -2 -2 -4 -4 -3 -2 -2 -2 -1 -1 -1 -0 0 1 1 1 2 2 2 3 2 1 -0 -0 0 -1 -1 -1 -1 -1 -1 -4 -10 -11 -11 -10 -7 -4 -2 -2 -2 -2 -2
-5 -5 -5 -4 -5 -5 -4 -4 -2 -2 -1 -0 -1 1 2 0 1 2 1 2 1 -1 -0 -1 -1 -2 -1 -1 -1 -1 -3 -9 -12 -14 -16 -18 -19 -18 -13 -12 -6 -3 -2 -2

GFSNW_850_dewp_075.txt.gz
Dewpoint
-18 -23 -27 -26 -24 -9 -2 1 1 3 2 1 3 4 3 1 2 2 3 3 2 0 -0 2 3 3 1 -1 -0 2 2 4 6 6 4 3 4 6 4 4 5 3 3 1
-14 -19 -26 -27 -21 -3 -0 2 2 3 2 1 2 1 2 2 1 2 0 0 -1 -1 -0 2 2 1 0 -0 0 1 0 3 5 5 3 1 2 3 3 2 3 4 4 0
-12 -14 -17 -26 -24 -5 0 2 0 0 1 1 2 3 3 3 1 1 -0 -0 -1 -1 0 0 2 2 1 -0 -2 0 -1 2 1 3 2 2 2 2 1 0 1 3 2 -0
-9 -12 -11 -14 -26 -19 -1 1 2 1 2 1 2 2 2 3 2 1 1 0 1 0 0 1 2 1 1 -0 -2 -2 -0 1 1 1 1 2 3 3 2 -0 1 1 1 -1
-7 -9 -11 -12 -20 -20 -15 -0 1 1 1 1 0 1 2 2 2 2 3 3 3 1 2 2 2 -0 -0 0 -1 -1 -0 2 1 1 0 1 2 2 2 1 1 1 0 -0
-5 -8 -12 -11 -9 -18 -13 -6 0 1 1 1 1 2 2 2 2 2 2 2 3 2 1 1 1 -2 -1 -1 -1 0 1 1 1 2 1 1 2 2 2 2 1 0 1 -1
-2 -5 -11 -14 -9 -11 -12 -7 -1 0 -0 -0 1 -1 -0 1 1 3 2 2 2 1 2 1 -0 -1 -1 -1 -1 -1 0 1 2 2 1 4 -1 -1 0 1 1 -0 -1 -2
-0 -1 -4 -9 -13 -9 -10 -10 -5 -1 -2 -1 -2 -1 -0 -0 1 2 2 2 2 2 2 2 1 2 0 0 -0 -0 -0 1 2 3 3 1 2 1 1 1 2 -0 -1 -2
1 -0 -1 -2 -9 -11 -8 -9 -8 -2 -1 -5 -4 -3 -1 1 1 2 2 2 1 2 2 4 3 3 0 1 -1 -0 -0 -1 1 3 3 4 4 -0 -1 -0 6 0 -1 -1
1 0 -1 -1 -3 -10 -9 -6 -4 -5 -2 -6 -4 -2 -1 -1 2 3 1 3 2 1 3 4 4 3 -1 2 1 3 2 1 1 2 2 1 2 1 -0 6 4 1 -0 1
1 0 -1 -1 -1 -4 -8 -7 -4 -2 -4 -5 -6 -8 -5 -3 -2 2 2 3 2 2 3 3 3 2 0 0 -0 1 1 3 3 1 2 2 -1 -0 2 3 2 2 2 2
2 2 2 1 0 -1 -6 -5 -4 -3 -2 -4 -5 -5 -5 -7 -6 -2 1 3 3 3 3 2 2 2 1 1 1 -1 1 -1 -0 -0 0 -2 -0 -0 1 2 2 2 2 1
-0 0 0 1 1 -0 -3 -3 -4 -3 -2 -3 -4 -6 -6 -6 -5 -6 -2 1 2 4 4 3 3 3 -0 1 1 0 -1 -1 -0 -1 -1 -2 0 -1 -0 0 0 2 2 1
-2 -0 0 1 0 0 -3 -3 -5 -2 -2 -2 -5 -7 -6 -4 -2 -2 -7 -0 2 1 1 4 3 2 -1 -0 0 1 -0 -1 0 -0 -1 -1 -1 1 1 2 2 2 3 2
-17 -7 -2 1 1 -0 -2 -3 -4 -3 -2 -3 -4 -5 -8 -7 -8 -5 -2 -3 -2 0 2 4 3 1 1 -0 0 1 -1 0 1 1 -1 0 2 2 1 1 1 1 1 1
-11 -7 -4 0 -0 -1 -2 -3 -4 -4 -2 -2 -3 -6 -9 -3 -5 -3 -3 -1 -4 -3 2 3 1 2 0 1 2 -1 -2 -2 -2 -1 -1 0 2 2 1 1 1 1 1 2
-4 -3 -2 0 -0 -1 -2 -3 -2 -3 -3 -3 -3 -4 -8 -5 -2 -4 -4 1 -0 -1 1 2 3 2 2 3 2 -2 -2 -2 -1 -1 -0 0 1 1 1 1 1 1 0 1
-2 -0 -1 -0 -1 -2 -2 -2 -2 -2 -3 -3 -4 -6 -4 0 1 0 -3 2 1 1 2 2 2 2 2 3 1 -0 -1 -1 -1 -1 -0 -1 0 1 1 1 1 0 1 0
-0 -0 -1 -1 -2 -3 -3 -2 -3 -3 -3 -3 -4 -3 -2 -1 1 1 1 1 2 0 2 2 2 2 3 2 1 -0 0 -0 0 1 1 0 0 0 0 0 0 0 0 1
-1 -1 -1 -3 -3 -3 -3 -3 -2 -3 -3 -3 -3 -5 -3 -2 1 1 1 2 2 3 1 3 3 1 0 1 1 0 0 0 0 1 0 0 0 0 0 -0 -0 -0 -0 0
-1 -2 -2 -2 -3 -2 -2 -2 -2 -2 -3 -3 -3 -3 -2 -2 1 2 1 1 2 2 3 3 3 2 0 -0 -0 -0 0 0 -0 -0 -0 -0 -0 -1 -1 -1 -1 -1 -0 -0
-2 -3 -3 -2 -3 -3 -2 -1 -1 -2 -3 -2 -1 -0 -1 -1 0 1 1 2 1 3 2 3 2 0 -1 -1 -1 -1 -1 -1 -1 -1 -1 -1 -1 -1 -1 -1 -1 -1 -1 -0
-3 -3 -3 -3 -2 -3 -1 -4 -2 -1 -1 -0 -0 -0 -0 0 -0 0 1 2 3 1 3 2 0 -1 -2 -2 -2 -2 -1 -1 -1 -1 -1 -1 -1 -1 -1 -1 -1 -1 -1 -0
-4 -6 -6 -3 -4 -3 -3 -2 -1 -1 -1 -1 -0 -0 -1 0 1 1 3 2 1 2 3 1 -0 0 -1 -1 -1 -1 -1 -1 -1 -1 -1 -1 -1 -1 -1 -2 -2 -2 -2 -1
-3 -3 -4 -4 -4 -2 -2 -3 -2 -2 -2 -1 -1 -1 0 0 1 1 1 2 2 2 3 2 0 0 -1 -1 -1 -1 -1 -1 -1 -1 -5 -8 -7 -6 -4 -3 -2 -2 -2 -2
-3 -3 -3 -3 -5 -6 -2 -3 -3 -3 -2 -1 -1 -0 0 0 0 -0 -0 2 3 2 0 -0 -1 -0 -1 -1 -1 -1 -1 -1 -1 -7 -13 -15 -17 -18 -13 -10 -9 -5 -2 -3
-7 -6 -4 -4 -4 -6 -5 -5 -4 -4 -2 -1 -2 -1 0 -1 -1 -1 -2 1 0 -1 -2 -1 -1 -1 -1 -1 -1 -1 -1 -4 -10 -12 -14 -18 -20 -21 -20 -20 -19 -14 -7 -4

GFSNW_850_dewp_078.txt.gz
Dewpoint
-9 -12 -15 -24 -20 -6 -1 1 0 1 1 -0 0 1 2 2 2 2 3 2 3 1 -0 2 2 3 2 0 -0 2 2 3 5 4 3 2 4 5 4 2 6 1 1 1
-8 -9 -12 -17 -20 -10 0 0 2 1 1 1 3 0 1 2 2 1 1 1 -1 -1 0 2 2 1 -0 -1 -0 1 1 3 5 6 5 4 6 5 4 2 0 1 2 1
-7 -8 -9 -12 -17 -19 0 1 -1 -0 1 1 2 3 2 2 1 1 1 0 -0 -1 0 1 2 2 1 -0 -2 0 0 2 1 3 2 2 3 4 5 1 -0 1 1 -1
-6 -7 -8 -8 -11 -19 -4 -2 0 0 -1 0 1 1 1 1 2 0 1 1 3 2 1 1 2 1 1 -1 -2 -2 -1 1 1 1 2 2 2 2 2 0 -0 2 -0 -0
-4 -6 -7 -9 -8 -11 -16 -2 -1 -1 1 1 1 1 1 1 2 2 3 3 3 1 2 1 2 0 0 0 -1 -1 -0 3 -0 1 0 1 2 2 2 1 0 0 0 0
-3 -3 -4 -6 -8 -8 -14 -12 -2 -0 -2 -0 1 1 1 2 2 2 2 2 3 2 1 1 1 1 -1 -1 -1 -0 1 1 1 1 1 1 2 2 2 2 1 0 1 -1
-2 -1 -2 -3 -6 -10 -8 -10 -4 -2 -3 -2 -0 -1 -2 1 1 2 1 2 2 1 1 2 1 -1 -1 -2 -1 -1 1 1 1 2 1 4 -2 -1 0 1 1 -0 -1 -2
-2 -0 -1 -2 -2 -4 -9 -8 -9 -2 -4 -3 -5 -3 -2 -1 -1 1 2 2 2 2 2 2 1 2 1 0 -0 -0 -1 1 2 2 2 -1 1 1 1 2 2 -0 -0 -2
-0 1 -0 -0 -1 -2 -5 -7 -5 -7 -2 -5 -3 -4 -3 -0 1 1 2 2 2 2 2 4 3 4 0 2 -0 -0 -1 -1 1 1 2 4 1 -0 -1 0 5 0 -1 -1
-0 1 1 -1 -2 -2 -1 -6 -6 -4 -3 -6 -4 -4 -5 -7 -1 1 2 2 2 2 2 5 4 3 -0 2 0 2 1 1 2 2 1 1 -1 1 0 5 2 0 -1 -2
0 1 1 0 0 1 0 -3 -4 -4 -3 -3 -4 -6 -6 -5 -3 -0 1 2 2 2 3 3 2 2 1 -0 -0 1 0 1 2 1 1 1 0 -1 3 2 2 2 1 1
-0 -1 1 1 1 1 0 -1 -2 -3 -2 -3 -4 -3 -3 -4 -4 -4 -3 1 1 3 3 2 2 3 1 0 2 -1 1 -1 0 -0 -1 -3 -1 -0 -0 2 2 2 2 2
-9 -2 -0 -0 1 0 0 -0 -2 -3 -3 -3 -4 -5 -5 -6 -7 -5 -4 -6 0 3 3 4 4 4 -0 1 1 -0 -1 -2 -0 -0 -2 -2 -1 -0 1 1 2 2 2 1
-28 -26 -17 -8 -1 1 -0 -0 -2 -3 -3 -2 -4 -7 -7 -6 -5 -3 -4 -5 -1 -2 1 4 3 3 -1 -0 -1 -0 -1 -1 -0 -0 -1 -2 -1 -0 0 1 1 2 2 3
-20 -18 -13 -8 -3 0 -0 -0 -2 -2 -3 -2 -2 -5 -8 -8 -7 -5 -6 -4 -5 -5 0 3 3 1 1 -0 0 1 -1 -0 1 1 -1 -1 0 -0 2 1 1 1 1 1
-9 -6 -6 -5 -5 -3 -0 -2 -3 -5 -2 -2 -3 -6 -9 -9 -3 -3 -5 -5 -4 -3 -0 1 1 2 1 1 2 -1 -2 -2 -3 -1 -1 0 1 2 1 1 1 0 1 0
-7 -5 -2 -1 -0 -0 -2 -3 -2 -3 -2 -3 -3 -4 -9 -2 -0 -4 -3 -4 -3 -3 -3 -1 1 2 1 3 3 -1 -2 -2 -2 -1 -1 2 2 1 1 1 1 1 0 0
-6 -4 -1 -1 -1 -2 -2 -2 -2 -2 -3 -3 -4 -5 -6 -0 0 -1 -3 -1 -0 0 -0 1 2 1 1 3 2 1 -1 -1 -1 -0 0 -1 0 1 1 1 1 1 0 0
-4 -1 -2 -2 -2 -3 -2 -3 -2 -3 -3 -3 -4 -4 -4 -3 -2 0 -0 1 1 0 1 1 1 2 4 1 1 0 -0 -1 -1 -0 1 0 0 1 1 1 0 0 0 -0
-1 -1 -2 -2 -3 -2 -2 -3 -3 -2 -3 -3 -4 -4 -3 -3 -1 1 1 1 2 2 0 1 1 1 -0 0 1 1 0 0 0 1 1 0 0 0 0 0 0 -0 -0 -0
-1 -2 -2 -2 -3 -2 -3 -3 -3 -3 -3 -3 -3 -3 -3 -2 -1 1 1 1 2 2 3 1 1 1 -0 -0 -0 -0 -0 0 0 0 0 0 -0 -0 -0 -1 -1 -1 -1 -1
-2 -3 -3 -2 -3 -3 -3 -3 -2 -3 -4 -3 -2 -1 -1 -2 -1 0 1 2 1 3 2 3 1 -0 -1 -1 -1 -1 -1 -0 -0 -0 -1 -1 -1 -1 -1 -1 -1 -1 -1 -1
-2 -4 -3 -3 -3 -4 -3 -6 -3 -3 -1 -1 -1 -2 -0 -1 -1 -1 1 2 2 1 3 2 1 -1 -1 -1 -1 -1 -1 -1 -1 -1 -1 -2 -2 -1 -1 -1 -1 -1 -1 -1
-4 -5 -6 -3 -5 -4 -6 -4 -3 -2 -2 -2 -2 -1 -0 0 0 1 3 2 1 1 1 1 1 0 -0 -1 -1 -1 -1 -1 -1 -1 -1 -2 -2 -2 -2 -2 -2 -2 -2 -2
-5 -4 -5 -6 -5 -2 -2 -3 -3 -3 -3 -3 -1 -2 -1 0 1 1 1 2 1 2 2 1 -1 -1 -1 -1 -1 -1 -1 -1 -1 -1 -3 -5 -10 -15 -12 -9 -8 -7 -4 -2
-3 -4 -4 -3 -5 -6 -3 -3 -4 -4 -3 -4 -2 -1 -0 1 1 0 -0 0 2 1 -0 -1 -1 -1 -1 -1 -1 -1 -1 -1 -1 -2 -8 -13 -16 -20 -20 -19 -19 -18 -12 -6
-5 -6 -4 -4 -4 -6 -5 -5 -5 -4 -4 -3 -2 -1 -1 -2 -0 -1 -2 1 -0 -1 -1 -2 -2 -1 -1 -1 -1 -1 -1 -1 -5 -11 -13 -17 -20 -22 -21 -20 -19 -19 -18 -16

GFSNW_850_dewp_081.txt.gz
Dewpoint
-8 -8 -9 -11 -14 -15 -2 0 -1 1 1 -0 -1 -1 1 1 2 2 2 2 3 2 -0 2 3 4 3 1 2 4 2 4 5 6 4 2 3 4 4 2 6 3 -1 1
-9 -8 -9 -10 -13 -16 -7 -1 1 1 1 -1 -1 -1 1 2 2 1 2 2 2 -0 0 2 2 2 1 -0 -0 1 2 3 6 5 4 4 5 4 3 1 0 1 2 1
-10 -9 -9 -9 -9 -14 -9 -2 -1 -2 1 1 1 1 1 1 1 2 1 2 1 1 -1 0 2 1 2 0 -2 0 -0 2 1 3 1 4 6 5 4 4 4 2 1 1
-11 -10 -10 -12 -11 -12 -14 -6 -1 -1 -2 -1 0 1 1 2 2 0 1 2 2 2 2 1 1 1 1 -1 -1 -1 -1 2 1 1 2 2 2 3 5 4 3 2 1 -0
-13 -14 -17 -15 -13 -15 -13 -7 -5 -3 -1 -0 0 1 1 1 1 2 2 3 2 2 2 1 1 0 -0 0 -1 -1 -0 2 -0 1 1 1 2 2 4 4 3 2 0 1
-13 -14 -12 -11 -8 -8 -9 -8 -5 -2 -3 -2 -1 -0 -2 -0 -1 2 2 3 3 3 1 -0 0 1 1 -1 -1 -0 0 1 -0 -0 1 1 1 1 2 2 0 1 2 -0
-11 -9 -7 -5 -3 -4 -5 -7 -7 -4 -5 -5 -6 -5 -4 -2 -2 -0 1 2 2 1 1 1 2 1 -0 -1 -1 -1 0 0 1 2 1 2 -4 -1 -0 1 1 -0 -1 -2
-7 -2 -1 -3 -3 -3 -2 -5 -6 -6 -5 -5 -5 -3 -5 -4 -2 0 1 2 3 2 1 2 2 2 1 0 -0 -1 -1 1 2 2 2 -1 -1 0 1 2 1 -0 -0 -2
-2 -0 1 0 -1 -2 -2 -2 -5 -5 -4 -5 -5 -4 -3 -1 -4 -3 2 -0 3 2 3 5 3 4 2 2 0 -1 -1 -1 1 1 2 3 -0 0 -1 -1 3 0 -1 -1
-1 1 -0 -0 -1 -1 -0 -0 -3 -4 -4 -5 -4 -5 -5 -4 -4 -3 -3 -1 1 2 2 6 5 3 -0 1 1 3 1 1 3 2 1 1 -3 1 -0 4 1 0 -1 -1
-2 0 1 -0 2 1 1 0 -1 -3 -3 -4 -4 -5 -4 -4 -4 -2 -2 -3 1 3 5 4 4 3 1 -0 -1 0 1 1 2 1 3 1 -1 -0 2 1 2 1 -0 -1
-18 -5 -3 -1 -0 1 1 0 -1 -2 -2 -3 -4 -5 -4 -3 -4 -3 -3 -1 -4 -1 4 2 2 3 1 0 2 -1 1 -1 1 -1 -1 -5 -2 -1 -1 2 2 2 2 2
-31 -29 -25 -14 -4 -1 0 -0 -0 -1 -2 -3 -5 -6 -6 -6 -6 -5 -3 -5 -4 0 -0 2 4 4 -0 2 1 -0 -1 -2 -0 -1 -2 -3 -2 -1 2 2 2 2 1 2
-26 -23 -22 -22 -18 -8 0 -1 -1 -2 -2 -3 -4 -6 -5 -6 -7 -5 -5 -4 -3 -4 -4 1 3 3 -1 -0 -1 0 -1 -1 -1 -0 -2 -2 -2 -1 0 0 1 2 2 2
-20 -13 -10 -10 -5 -2 0 -1 -1 -1 -2 -3 -3 -5 -8 -7 -7 -5 -5 -4 -4 -4 -4 1 4 2 1 -0 -0 1 -1 -0 1 1 -1 -2 -2 -1 1 1 2 2 1 1
-13 -6 -5 -1 -5 -0 -1 -2 -3 -4 -4 -2 -3 -5 -9 -7 -0 -2 -5 -6 -5 -4 -1 -1 -0 1 2 2 1 -1 -2 -2 -2 -1 -2 0 1 1 2 1 1 1 0 0
-8 -6 -3 -2 -1 -1 -1 -3 -2 -2 -3 -3 -5 -5 -8 -4 -1 -4 -5 -4 -4 -3 -3 -3 -1 1 0 3 3 -1 -2 -2 -2 -2 -0 1 1 1 2 1 1 0 0 0
-6 -4 -1 -1 -1 -2 -2 -3 -3 -3 -3 -3 -4 -6 -7 -3 -1 -1 -3 -3 -3 -1 -2 -2 1 -1 0 3 1 -0 0 1 -1 -1 0 -1 -0 1 1 1 1 1 1 0
-3 -2 -2 -2 -2 -3 -3 -4 -3 -2 -3 -4 -4 -5 -6 -5 -3 -0 -1 0 1 -1 1 1 1 2 1 -0 -1 -2 -0 -0 -1 -0 1 0 1 1 1 1 1 0 0 -0
-1 -1 -2 -3 -3 -3 -3 -3 -3 -3 -3 -4 -4 -5 -5 -4 -2 -0 0 0 1 1 -0 0 1 0 -1 0 0 0 0 0 0 0 0 0 0 0 0 0 0 0 -0 -0
-2 -2 -2 -3 -3 -3 -3 -3 -3 -4 -4 -4 -4 -4 -3 -2 -2 -0 0 1 1 2 1 2 2 2 -0 -1 -0 -0 -0 0 0 0 0 0 0 0 -0 -0 -0 -1 -1 -1
-3 -3 -3 -3 -3 -4 -3 -3 -3 -3 -5 -4 -2 -1 -1 -1 -2 -1 0 1 1 2 2 3 2 -1 -1 -1 -1 -1 -1 -0 -0 -0 -0 -0 -1 -1 -1 -1 -1 -1 -1 -1
-3 -4 -4 -4 -4 -4 -4 -8 -4 -3 -1 -1 -2 -2 -2 -1 -1 -1 1 2 1 1 2 2 2 -0 -0 -1 -1 -1 -1 -1 -1 -1 -1 -2 -2 -1 -1 -1 -1 -2 -1 -2
-4 -4 -5 -7 -6 -4 -7 -6 -5 -2 -2 -3 -3 -1 -2 -1 0 1 2 2 1 1 -0 0 1 -1 -1 -1 -1 -1 -1 -1 -1 -2 -2 -4 -7 -9 -9 -9 -8 -7 -6 -3
-5 -5 -7 -5 -5 -5 -3 -3 -3 -4 -3 -4 -3 -2 -1 -0 0 1 1 2 1 2 2 0 -1 -2 -2 -2 -2 -2 -2 -2 -2 -1 -2 -1 -4 -14 -19 -18 -18 -19 -17 -12
-4 -4 -5 -5 -4 -6 -4 -3 -4 -4 -4 -4 -3 -1 -0 -0 0 0 -0 0 1 0 -1 -2 -2 -1 -1 -2 -2 -2 -1 -1 -1 -1 -4 -10 -15 -19 -21 -21 -21 -21 -20 -18
-4 -5 -4 -4 -4 -5 -5 -5 -5 -4 -5 -4 -3 -2 -1 -3 -1 -1 -1 -0 -1 -1 -2 -2 -2 -2 -1 -1 -1 -1 -1 -1 -3 -9 -11 -14 -17 -21 -21 -22 -21 -20 -19 -17

GFSNW_850_dewp_084.txt.gz
Dewpoint
-11 -13 -15 -14 -16 -16 -15 -2 -1 2 1 -0 -2 -2 0 1 2 2 2 2 3 3 0 3 5 6 5 3 2 3 3 4 5 6 4 3 3 4 3 3 4 2 -0 2
-13 -16 -21 -21 -27 -26 -21 -7 -1 1 1 -2 -2 -1 0 1 2 2 3 3 2 0 0 2 2 4 1 2 3 3 2 3 6 6 4 4 5 4 3 1 1 4 2 2
-18 -22 -27 -28 -28 -29 -20 -8 -4 -4 -0 1 1 2 1 2 -0 2 1 2 2 1 -0 0 2 4 3 1 0 1 0 2 2 3 1 3 5 4 3 1 1 2 1 1
-21 -26 -28 -28 -28 -28 -18 -10 -1 -1 -4 -3 -1 0 1 2 1 1 1 3 4 3 2 1 1 1 3 1 -1 -0 -0 2 1 1 1 3 3 4 4 3 2 2 1 1
-21 -24 -25 -25 -25 -23 -15 -8 -7 -5 -2 -3 -1 -1 0 -1 -1 1 2 3 4 3 3 1 1 0 -0 1 -1 -1 -1 2 0 1 1 2 3 2 4 3 2 2 1 1
-21 -20 -22 -14 -13 -10 -6 -6 -6 -3 -5 -5 -3 -3 -5 -4 -3 -3 1 -0 1 3 2 0 -0 1 1 -0 -1 0 0 1 -0 -0 1 1 0 1 3 3 2 3 4 1
-15 -17 -12 -4 -6 -5 -3 -4 -6 -6 -5 -5 -7 -5 -5 -4 -3 -2 -3 -1 2 3 3 2 2 2 0 -1 -2 -1 -0 -0 0 2 0 1 -4 -1 -0 1 1 1 0 -2
-15 -10 -3 -1 -1 -2 -3 -2 -4 -6 -5 -6 -5 -5 -5 -4 -4 -4 -5 0 0 2 2 3 3 2 0 0 -0 -1 -1 0 2 2 2 -1 -1 0 1 1 0 -0 0 -1
-13 -10 -0 -1 -1 -2 -2 -1 -1 -4 -4 -5 -5 -4 -4 -4 -4 -4 -4 -3 -1 1 3 5 4 4 2 3 1 -1 -1 -1 0 1 2 1 -2 1 -1 -1 2 -1 -1 -1
-12 -1 1 -0 -1 0 -0 0 -0 -2 -4 -4 -4 -4 -4 -5 -3 -3 -3 -3 -1 0 3 5 4 2 -1 1 1 2 1 2 2 2 2 0 -3 -2 -0 3 0 1 -1 -1
-10 1 -0 -0 1 0 1 0 0 -1 -3 -3 -4 -4 -4 -4 -4 -2 -3 -3 -1 -1 4 5 5 3 1 -0 -1 0 1 1 2 2 4 1 -4 -0 2 -0 2 2 1 -1
-20 -12 -15 -8 -5 -0 0 0 0 -1 -2 -2 -2 -4 -5 -4 -4 -3 -3 -2 -3 -1 1 2 2 3 4 1 2 -2 0 -1 0 -0 0 -4 -4 -0 -0 1 2 2 2 2
-24 -31 -27 -23 -14 -5 -4 -0 -1 -1 -2 -3 -5 -6 -6 -6 -5 -5 -3 -4 -2 -1 -3 -1 3 3 0 4 3 -1 -1 -3 -1 -1 -2 -3 -3 -1 -0 2 2 2 2 2
-31 -24 -20 -17 -16 -9 -6 -1 -1 -2 -2 -3 -5 -5 -7 -7 -7 -6 -4 -4 -4 -4 -4 -2 1 3 1 0 -1 0 -1 -1 -1 -1 -2 -2 -2 -1 1 1 1 2 1 2
-22 -18 -11 -8 -8 -1 -1 -1 -2 -1 -2 -3 -4 -6 -8 -8 -5 -4 -4 -4 -3 -3 -4 -0 2 2 1 -1 -0 1 -1 -0 0 0 -2 -2 -2 -1 0 1 1 2 2 1
-19 -9 -7 -4 -5 -1 -2 -1 -4 -4 -3 -3 -4 -5 -8 -9 -1 -3 -3 -4 -4 -4 -3 -2 -2 -2 2 2 1 -1 -2 -2 -2 -2 -2 -1 0 0 1 2 1 1 1 0
-14 -7 -6 -4 -1 -2 -2 -3 -3 -3 -3 -3 -5 -5 -8 -6 -1 -3 -5 -5 -4 -4 -3 -2 -3 -0 -0 2 1 -1 -1 -1 -0 -1 -1 0 1 1 2 1 1 1 0 0
-7 -7 -5 -1 -1 -2 -2 -3 -3 -3 -3 -4 -5 -5 -7 -5 -3 -0 -3 -4 -2 -2 -3 -2 -1 -2 -1 1 -0 -1 -1 -1 -0 0 -0 0 -0 1 1 1 1 1 1 0
-6 -7 -2 -3 -3 -3 -3 -3 -3 -2 -4 -4 -4 -5 -6 -5 -3 -1 -1 -1 -0 -1 -0 -0 -0 0 1 -1 -1 -1 0 0 -0 -0 0 1 0 1 1 1 1 1 0 -0
-6 -4 -2 -3 -3 -4 -3 -4 -3 -3 -3 -4 -4 -5 -3 -3 -2 -1 -0 -0 0 1 -1 0 1 -0 -1 -1 -1 -0 -0 0 0 0 0 0 1 1 0 0 0 0 0 -0
-3 -2 -2 -3 -3 -4 -4 -3 -3 -4 -5 -4 -4 -4 -3 -3 -2 -1 -1 0 1 1 -1 1 1 2 -1 -1 -1 -1 -0 -0 0 0 0 0 0 0 0 -0 -0 -0 -1 -1
-4 -4 -3 -3 -4 -4 -5 -3 -2 -4 -5 -5 -3 -2 -2 -1 -2 -2 -1 0 1 0 1 2 2 -1 -0 -0 -1 -1 -0 -0 -0 -0 -0 -0 -0 -1 -1 -1 -1 -1 -2 -2
-4 -4 -4 -4 -4 -5 -7 -7 -4 -3 -3 -2 -2 -2 -4 -2 -1 -1 0 1 1 1 2 1 1 -1 -1 -1 -1 -1 -1 -1 -1 -1 -1 -1 -2 -2 -1 -2 -2 -2 -3 -3
-4 -5 -4 -6 -4 -5 -7 -7 -7 -4 -2 -3 -4 -4 -3 -2 0 0 1 0 1 -0 -1 1 -1 -2 -2 -2 -2 -2 -2 -2 -2 -2 -3 -6 -10 -13 -14 -14 -15 -17 -18 -15
-5 -6 -6 -5 -6 -6 -4 -5 -3 -3 -4 -4 -4 -4 -2 -1 0 1 1 0 0 1 1 -0 -2 -2 -2 -2 -2 -2 -2 -2 -2 -2 -2 -2 -2 -7 -19 -20 -20 -21 -20 -19
-3 -5 -6 -5 -5 -6 -4 -4 -3 -4 -4 -4 -4 -2 -1 -2 -1 -0 -2 -1 -1 -2 -2 -2 -2 -2 -2 -2 -2 -2 -2 -2 -2 -2 -2 -6 -15 -18 -21 -21 -22 -22 -21 -20
-4 -5 -4 -5 -4 -5 -4 -4 -5 -4 -5 -7 -3 -2 -2 -4 -3 -2 -1 -0 -2 -2 -2 -2 -2 -1 -1 -1 -1 -2 -2 -2 -2 -9 -9 -12 -14 -17 -18 -21 -23 -24 -23 -20

GFSNW_850_dewp_087.txt.gz
Dewpoint
-15 -21 -27 -29 -29 -30 -28 -13 -3 2 2 -0 -2 -2 -0 -0 1 2 2 2 2 4 3 3 5 4 4 2 1 3 2 4 5 5 4 4 4 4 2 3 5 0 1 1
-21 -25 -27 -29 -29 -29 -28 -15 -1 1 1 -2 -1 -1 0 0 1 1 3 3 3 2 1 4 3 4 3 3 2 3 2 4 6 6 3 4 6 4 1 1 1 4 4 2
-23 -26 -27 -28 -28 -28 -24 -13 -5 -5 -0 -1 -1 -1 -0 2 -0 1 2 3 3 2 1 0 3 3 3 3 3 3 2 2 2 2 1 3 5 4 2 1 3 3 2 1
-23 -24 -25 -26 -27 -25 -18 -14 -3 -3 -5 -5 -2 -2 0 -3 -2 -3 -1 2 2 1 3 1 2 3 3 3 2 2 1 4 1 1 1 3 3 4 3 1 1 2 1 1
-21 -22 -23 -24 -26 -18 -12 -9 -7 -4 -4 -4 -4 -3 -3 -4 -4 -3 -3 1 -1 1 2 3 4 2 3 4 2 2 -1 2 0 1 2 2 3 3 3 3 2 2 2 2
-21 -19 -22 -22 -19 -12 -7 -6 -5 -5 -5 -6 -6 -4 -5 -4 -4 -4 -4 -3 -1 1 2 2 2 1 1 0 2 2 0 1 1 1 1 0 -0 0 2 3 2 2 3 1
-20 -19 -16 -15 -11 -6 -4 -3 -5 -6 -5 -6 -6 -6 -5 -4 -4 -3 -4 -3 0 1 -2 0 2 2 1 -1 -1 -1 -0 -1 0 3 0 1 -5 -2 -1 2 1 2 2 0
-18 -17 -13 -7 -4 -2 -3 -2 -3 -4 -4 -6 -5 -5 -4 -4 -5 -4 -5 -4 -3 -0 1 4 2 2 0 0 -0 -1 -2 0 2 2 2 -1 -1 -0 0 1 -0 -1 1 1
-19 -16 -9 -5 -2 -1 -2 -2 -1 -2 -4 -5 -5 -4 -4 -4 -4 -4 -4 -3 -2 -0 2 4 3 3 1 2 1 -1 -1 -1 1 1 2 1 -3 1 -1 -1 2 -1 -1 -1
-14 -15 -8 -1 -1 -1 1 -1 -1 -2 -3 -4 -4 -4 -4 -4 -4 -3 -4 -4 -2 -0 3 4 4 2 -1 2 1 2 1 2 2 1 1 0 -3 -3 -1 2 1 1 0 -1
-16 -10 -2 -0 1 1 1 -2 -1 -1 -2 -2 -3 -3 -3 -3 -3 -3 -5 -3 -3 -2 2 4 4 2 1 -0 -1 0 1 1 2 2 2 1 -5 -0 2 -0 2 2 2 -1
-21 -16 -13 -8 -2 -2 0 -2 -1 -2 -2 -3 -3 -5 -4 -4 -4 -3 -3 -4 -3 -1 -1 -1 1 3 4 1 2 -2 0 -1 -0 -0 -0 -4 -4 -0 -0 1 2 2 2 1
-24 -20 -25 -23 -9 -4 -3 -1 -1 -2 -2 -3 -6 -6 -5 -5 -5 -4 -4 -4 -2 -3 -4 -2 1 3 1 3 4 -0 -2 -3 -1 -1 -3 -3 -2 -2 -2 1 2 2 2 2
-26 -30 -23 -19 -16 -4 -10 -3 -1 -2 -3 -3 -5 -5 -7 -7 -6 -6 -6 -5 -4 -4 -4 -3 -1 1 2 1 -1 0 -1 -1 -1 -1 -2 -2 -2 -2 -0 2 1 1 1 2
-29 -22 -16 -10 -5 -6 -2 -1 -2 -2 -4 -4 -5 -7 -7 -8 -6 -2 -2 -5 -4 -3 -4 -3 -1 1 2 -0 -1 0 -1 -1 -0 -0 -2 -2 -1 0 -0 1 1 2 2 1
-23 -18 -10 -6 -3 -1 -2 -2 -4 -3 -4 -3 -4 -6 -7 -9 -3 -1 -4 -3 -3 -3 -3 -3 -3 -4 1 1 1 -2 -2 -2 -2 -2 -2 -2 -1 1 1 2 2 1 1 0
-17 -11 -4 -3 -1 -2 -2 -4 -3 -3 -4 -4 -6 -6 -8 -6 -2 -1 -4 -4 -4 -4 -4 -2 -3 -3 -0 0 -0 -2 -1 -1 -1 -1 -0 -0 1 1 2 1 1 1 0 0
-10 -1 -1 -2 -1 -2 -3 -3 -3 -3 -4 -5 -7 -6 -7 -5 -4 -1 -3 -4 -3 -2 -3 -2 -2 -3 -2 -1 -1 -1 -2 -2 -2 -0 0 0 0 1 1 1 1 1 1 0
-3 -0 -2 -1 -2 -3 -3 -3 -3 -3 -4 -4 -5 -7 -6 -5 -3 -2 -0 -1 -1 -2 -1 -2 -1 -1 -0 -1 -0 -0 -0 0 0 0 0 0 1 1 1 1 1 1 0 0
-3 -2 -3 -3 -3 -4 -3 -4 -5 -4 -4 -5 -5 -5 -6 -4 -2 -3 -0 -1 0 1 -1 -1 -0 -0 -1 -1 -1 -1 -1 -1 0 0 0 0 1 1 1 0 0 0 -0 -0
-2 -2 -2 -3 -3 -4 -4 -4 -4 -5 -5 -5 -5 -4 -5 -3 -2 -2 -2 0 1 2 -1 -0 0 2 -1 -0 -0 -1 -0 -0 0 0 0 0 0 0 0 0 -0 -0 -1 -1
-4 -5 -3 -3 -4 -5 -6 -6 -3 -5 -5 -5 -4 -2 -3 -2 -2 -2 -1 0 0 0 1 2 0 0 -1 -1 -1 -1 -1 -1 -0 -0 -0 -0 -0 -1 -1 -1 -1 -2 -2 -2
-4 -4 -4 -4 -4 -6 -7 -5 -5 -4 -4 -3 -2 -4 -4 -2 -1 -1 -0 0 0 0 2 0 1 -1 -2 -2 -2 -2 -2 -2 -2 -1 -1 -1 -2 -2 -2 -4 -5 -8 -12 -15
-3 -4 -4 -5 -4 -6 -6 -7 -7 -4 -2 -2 -4 -4 -3 -2 -1 -0 1 -0 1 0 -2 -0 -2 -2 -2 -2 -2 -2 -2 -2 -2 -2 -2 -3 -8 -14 -16 -18 -19 -21 -22 -21
-4 -5 -5 -5 -7 -6 -6 -5 -3 -3 -4 -4 -4 -5 -4 -2 -1 -1 1 0 -0 0 -2 -2 -2 -2 -2 -2 -2 -2 -2 -3 -3 -3 -3 -2 -2 -5 -13 -21 -21 -23 -23 -22
-5 -6 -6 -6 -6 -6 -4 -4 -3 -4 -4 -4 -5 -4 -3 -3 -2 -1 -3 -3 -3 -3 -3 -2 -2 -2 -2 -2 -2 -2 -2 -2 -2 -3 -3 -5 -12 -17 -19 -19 -22 -24 -24 -24
-3 -4 -5 -5 -5 -6 -4 -4 -3 -4 -5 -7 -4 -4 -5 -4 -3 -2 -3 -2 -4 -2 -2 -7 -7 -7 -7 -3 -1 -1 -1 -2 -2 -2 -3 -5 -6 -6 -8 -15 -19 -21 -22 -24

GFSNW_850_dewp_093.txt.gz
Dewpoint
-14 -21 -28 -29 -28 -26 -17 -2 2 -2 -0 2 -0 -2 -4 -2 -5 -3 -1 2 4 3 4 4 4 4 2 -4 -5 -1 2 5 5 6 3 0 3 4 2 5 5 3 4 0
-15 -23 -28 -28 -27 -26 -19 -5 1 -4 -0 -0 -1 -6 -4 -6 -6 -3 -5 0 0 -2 4 5 5 3 3 -0 -3 3 3 5 6 6 5 4 4 4 5 1 5 6 4 0
-14 -25 -27 -27 -26 -24 -19 -5 3 -4 -4 -5 -5 -3 -3 -5 -6 -5 -4 -4 -3 -1 1 3 4 3 3 0 0 3 3 6 6 5 4 3 6 4 2 5 6 1 2 -1
-15 -25 -26 -26 -25 -24 -19 -8 -0 -6 -5 -5 -6 -5 -5 -5 -4 -6 -6 -4 -3 2 2 -0 2 3 3 3 3 3 4 7 2 1 1 2 4 4 3 5 3 5 1 0
-16 -24 -25 -26 -25 -25 -16 -5 -3 -6 -6 -5 -6 -6 -6 -4 -4 -5 -5 -3 -3 -1 1 1 2 2 4 4 3 4 3 4 1 3 2 2 3 2 3 2 2 1 1 1
-16 -23 -24 -26 -25 -22 -17 -11 -10 -4 -6 -6 -6 -5 -5 -5 -5 -6 -5 -4 -2 0 -1 -3 -2 -1 0 2 4 4 2 2 3 4 1 1 3 2 2 2 1 2 4 1
-15 -22 -24 -25 -25 -22 -17 -15 -6 -5 -7 -8 -7 -5 -5 -5 -5 -3 -4 -4 -3 -3 -1 1 2 1 2 1 0 -1 0 -0 0 0 -1 1 -2 -3 -1 1 -0 -0 0 -0
-13 -20 -20 -25 -26 -19 -17 -14 -6 -5 -8 -7 -5 -5 -5 -5 -5 -5 -5 -4 -3 -1 1 2 1 1 1 0 -1 -1 -1 -0 1 2 -1 -1 1 0 -0 1 1 -0 0 -0
-12 -20 -22 -25 -26 -18 -16 -11 -8 -2 -7 -6 -5 -5 -5 -4 -5 -5 -4 -4 -2 0 2 2 2 2 -0 1 1 -1 -1 -1 1 1 2 -1 0 -1 -1 -1 3 1 1 0
-12 -17 -22 -24 -25 -17 -14 -10 -7 -2 -5 -4 -4 -5 -5 -4 -5 -4 -5 -4 -1 -1 2 3 4 1 -1 1 -0 0 0 0 2 0 1 -2 -3 -1 -1 4 6 2 2 0
-9 -17 -22 -24 -19 -15 -11 -9 -6 -2 -3 -3 -4 -4 -4 -4 -4 -5 -5 -3 -1 -0 1 2 2 3 1 1 -2 -1 -1 -0 0 0 1 1 -3 0 2 1 1 2 2 -0
-7 -10 -22 -23 -17 -15 -12 -6 -7 -6 -1 -2 -5 -5 -6 -4 -3 -3 -4 -3 -3 -1 -1 -1 0 2 3 1 3 -2 0 -2 0 -1 -1 -3 -4 -3 -2 -0 0 2 3 1
-4 -16 -22 -23 -17 -14 -12 -7 -6 -5 -2 -3 -4 -4 -6 -6 -6 -4 -3 -4 -2 -2 -2 -2 -1 1 1 1 3 1 -2 -3 -2 -1 -2 -3 -2 -2 -1 -1 2 2 3 2
-7 -14 -18 -14 -18 -10 -9 -7 -6 -3 -3 -5 -4 -6 -5 -4 -4 -4 -4 -3 -4 -3 -3 -3 -2 -0 2 1 2 1 -0 -2 -1 -2 -2 -2 -1 0 -0 1 2 2 2 3
-8 -13 -11 -7 -9 -10 -9 -5 -5 -5 -2 -4 -5 -6 -7 -7 -6 -4 -2 -3 -3 -3 -4 -3 -2 -2 0 1 0 0 -2 -1 -0 3 -2 -1 -2 -1 1 2 2 2 2 2
-8 -12 -14 -16 -13 -8 -7 -4 -5 -5 -6 -2 -5 -5 -7 -8 -2 -3 -3 -2 -2 -3 -3 -3 -4 -4 -4 -1 -0 -2 -1 -1 -1 -1 -2 -1 -1 0 1 2 2 2 1 1
-6 -13 -18 -13 -2 -8 -4 -3 -5 -5 -6 -3 -4 -6 -7 -6 -2 -2 -2 -3 -2 -3 -3 -3 -3 -4 -1 -2 -2 -1 -3 -2 -2 -1 -0 -1 1 1 1 2 1 1 1 1
-5 -18 -13 -3 -2 -2 -4 -4 -4 -5 -6 -6 -2 -4 -5 -4 -2 -1 -2 -2 -3 -3 -4 -3 -3 -4 -4 -3 -5 -3 -1 -1 -1 -0 -0 0 1 1 1 1 1 1 0 0
-14 -7 -1 -2 -1 -3 -3 -4 -5 -5 -5 -3 -3 -0 0 -4 -2 -1 -2 -2 -2 -2 -2 -3 -3 -3 -1 -4 -2 -1 -1 -1 -1 -1 -1 0 1 1 1 1 1 1 1 0
-4 -1 -2 -2 -2 -3 -4 -4 -3 -3 -4 -3 -3 -3 -1 -2 -2 -2 -2 -1 -1 0 -1 -1 -0 -1 -3 -0 -1 -1 -0 -1 -1 -1 -0 0 1 1 1 0 0 0 0 -0
-1 -3 -3 -2 -3 -4 -4 -3 -3 -4 -3 -3 -4 -4 -3 -3 -2 -2 -2 -1 -1 0 0 0 -1 -1 -1 -1 -2 -1 -1 -1 -1 -1 -1 -1 0 0 0 1 0 -0 -0 -1
-4 -5 -3 -3 -3 -3 -4 -3 -3 -4 -3 -4 -3 -3 -2 -2 -2 -2 -2 -2 0 -1 1 2 -1 -2 -1 -2 -2 -1 -1 -2 -2 -2 -1 -1 -1 -0 -1 -1 -1 -1 -2 -3
-4 -4 -3 -3 -3 -3 -3 -2 -2 -2 -4 -3 -2 -2 -2 -2 -2 -2 -2 -0 -1 -0 1 -0 -1 -1 -2 -2 -2 -2 -3 -2 -3 -3 -2 -2 -2 -2 -2 -2 -2 -5 -12 -18
-7 -5 -3 -1 -3 -3 -3 -3 -2 -3 -3 -2 -2 -3 -3 -3 -2 -2 -2 -3 -1 1 1 0 -1 -1 -2 -2 -2 -2 -2 -3 -3 -3 -3 -3 -3 -3 -6 -14 -17 -19 -19 -19
-5 -4 -0 -3 -4 -4 -4 -5 -3 -3 -2 -2 -3 -3 -3 -3 -2 -3 -1 0 -1 -1 -0 0 -1 -2 -2 -2 -2 -2 -2 -2 -3 -3 -3 -3 -3 -3 -3 -3 -6 -18 -21 -21
-4 -4 -3 -4 -4 -5 -4 -3 -4 -3 -3 -3 -3 -3 -3 -3 -3 -2 -2 -1 -1 -0 1 -0 -2 -4 -5 -6 -5 -3 -2 -2 -2 -3 -3 -3 -3 -3 -4 -5 -5 -3 -7 -13
-3 -3 -4 -4 -3 -4 -3 -3 -3 -3 -4 -3 -3 -2 -3 -3 -2 -2 -3 -1 -1 0 -1 -2 -5 -7 -7 -6 -6 -7 -7 -4 -2 -2 -2 -3 -3 -3 -3 -5 -11 -13 -14 -13

GFSNW_850_dewp_096.txt.gz
Dewpoint
-8 -14 -22 -28 -27 -24 -12 1 5 -3 -0 3 2 1 -5 -5 -6 -4 -3 1 2 0 2 5 4 4 2 -4 -6 -1 3 5 4 4 1 0 2 3 4 7 5 6 6 1
-9 -14 -25 -28 -26 -22 -12 -2 1 -6 -1 3 2 -5 -5 -7 -6 -4 -4 -1 -3 -2 2 5 3 3 2 1 -4 5 3 5 6 6 5 4 4 3 4 4 5 6 8 1
-8 -15 -27 -27 -26 -20 -14 -3 3 -3 -3 -5 -4 -2 -3 -5 -6 -6 -6 -5 -3 -0 0 1 3 3 3 2 2 3 4 5 5 7 4 3 4 3 3 5 6 3 6 -0
-8 -16 -27 -26 -24 -19 -15 -3 2 -2 0 -3 -6 -6 -5 -5 -4 -6 -6 -4 -2 1 1 1 2 2 4 2 3 3 4 6 5 2 2 3 4 4 4 4 4 5 2 1
-8 -18 -26 -26 -21 -18 -9 -5 -4 -7 -7 -6 -5 -5 -4 -4 -4 -5 -5 -3 -2 -0 1 1 2 1 2 4 2 3 3 6 2 3 1 2 4 4 3 3 3 2 1 2
-7 -20 -25 -25 -22 -18 -8 -11 -8 -6 -6 -6 -5 -4 -5 -5 -5 -5 -5 -4 -2 -1 -1 -3 -3 -1 -1 1 3 4 3 5 4 6 1 1 4 3 3 2 1 2 4 1
-7 -18 -24 -25 -23 -20 -16 -14 -10 -4 -5 -6 -6 -6 -5 -5 -5 -4 -5 -4 -4 -3 -2 1 1 1 0 1 2 2 1 1 1 2 0 3 -1 -3 -1 1 0 -0 -0 -0
-5 -17 -23 -24 -24 -22 -17 -13 -10 -4 -6 -6 -6 -5 -5 -5 -5 -4 -5 -5 -3 -2 1 3 2 3 2 1 -1 -1 -1 1 2 3 0 -0 1 -0 -0 1 2 0 0 0
-8 -19 -21 -12 -24 -25 -17 -14 -12 -4 -6 -5 -6 -5 -5 -4 -5 -4 -4 -4 -2 0 1 3 3 4 -0 3 2 -1 -1 -0 2 2 3 1 1 -1 -1 -1 4 1 1 1
-6 -16 -13 -19 -23 -24 -15 -13 -12 -4 -4 -4 -4 -4 -4 -5 -4 -3 -5 -4 -1 -1 2 2 2 2 -1 1 0 1 1 1 2 2 2 -0 -2 -1 -1 4 5 2 2 -0
-4 -16 -17 -21 -22 -24 -15 -12 -10 -4 -3 -3 -4 -5 -4 -4 -4 -3 -4 -2 -1 1 2 1 1 2 2 3 -2 -1 -1 1 1 1 2 2 -1 0 3 1 2 2 3 -0
-7 -7 -13 -20 -21 -20 -13 -12 -9 -6 -3 -3 -5 -6 -5 -4 -3 -3 -4 -3 -2 -2 -1 -0 0 2 3 1 2 -2 1 -1 1 -0 0 -3 -3 -3 -3 -2 -1 2 3 1
-3 -2 -12 -18 -20 -18 -14 -11 -8 -9 -5 -5 -4 -4 -6 -6 -6 -4 -2 -3 -2 -3 -2 -2 -1 1 1 1 3 1 -1 -3 -1 -1 -1 -2 -1 -1 -1 -1 2 2 2 2
-0 -3 -10 -11 -16 -14 -12 -10 -8 -6 -3 -4 -4 -5 -4 -4 -4 -4 -4 -3 -4 -3 -3 -3 -2 0 1 1 2 1 -0 -1 -1 -1 -1 -0 -1 -1 1 1 2 2 2 3
1 -3 -6 -9 -8 -10 -11 -9 -8 -7 -3 -3 -4 -5 -6 -6 -6 -4 -3 -3 -3 -4 -3 -2 -1 -2 0 0 0 0 -1 -0 1 4 -1 -2 -2 -2 0 1 2 2 2 2
1 -3 -1 -3 -2 -8 -10 -8 -7 -7 -5 -5 -3 -4 -6 -7 -3 -3 -3 -2 -3 -3 -4 -4 -4 -4 -4 -1 -1 -1 -1 -1 -2 -2 -1 -2 -0 -0 1 2 2 2 2 1
-0 0 1 -0 -2 -7 -6 -4 -5 -7 -8 -4 -3 -4 -6 -4 -2 -2 -2 -3 -3 -3 -4 -3 -3 -4 -2 -2 -2 -2 -2 -2 -2 -1 -2 -0 0 0 0 1 1 1 1 1
-1 -1 -1 -4 -2 -6 -5 -6 -6 -7 -8 -5 -1 -3 -5 -4 -2 -2 -3 -3 -3 -3 -3 -4 -3 -3 -4 -2 -5 -2 -1 -2 -1 -1 -1 -1 0 0 1 1 1 1 1 0
-1 -1 -2 -1 -4 -3 -4 -5 -6 -8 -6 -3 -2 -2 -1 -4 -2 -2 -2 -3 -1 -2 -2 -3 -3 -3 -2 -3 -2 -1 -1 -1 -1 -1 -1 0 1 1 1 1 1 1 0 0
-4 -5 -4 -2 -2 -3 -4 -5 -5 -6 -6 -4 -1 -3 -2 -2 -2 -3 -1 -1 -0 0 -1 -2 -0 -2 -2 -1 -1 -1 -1 -1 -1 -1 -1 -1 -1 1 1 1 0 0 0 0
-7 -3 -2 -2 -3 -4 -4 -3 -2 -3 -2 -3 -3 -3 -3 -2 -2 -2 -3 -1 -0 -0 1 0 0 -2 -1 -1 -1 -2 -1 -1 -2 -2 -2 -1 -1 -1 0 0 0 0 0 -0
-5 -4 -2 -3 -2 -3 -3 -2 -3 -3 -2 -3 -3 -3 -2 -2 -2 -3 -2 -2 -1 -1 -0 1 -2 -2 -1 -2 -2 -2 -2 -2 -2 -2 -2 -2 -1 -1 -1 -1 -1 -1 -2 -3
-4 -2 -2 -2 -3 -2 -2 -2 -2 -2 -3 -3 -2 -2 -3 -3 -3 -3 -3 -3 -2 -1 0 0 -2 -1 -2 -2 -2 -2 -2 -2 -2 -3 -2 -2 -2 -2 -2 -2 -2 -2 -3 -5
-3 -3 -2 -1 -2 -2 -2 -1 -1 -2 -2 -2 -2 -2 -3 -3 -3 -4 -1 -3 -2 1 1 -2 -2 -1 -2 -2 -2 -3 -3 -3 -3 -3 -3 -3 -3 -3 -3 -4 -4 -10 -13 -5
-4 -4 -1 -2 -3 -3 -3 -2 -2 -2 -2 -2 -3 -3 -3 -4 -3 -4 -2 0 -2 -3 -3 -2 -1 -2 -2 -2 -2 -2 -2 -2 -2 -3 -3 -3 -4 -4 -4 -4 -4 -4 -7 -9
-4 -4 -3 -4 -4 -4 -4 -3 -2 -2 -3 -4 -4 -4 -5 -4 -3 -2 -3 -3 -4 -3 -2 -0 -2 -3 -5 -6 -6 -6 -4 -2 -2 -2 -3 -3 -3 -3 -3 -3 -3 -3 -4 -8
-2 -3 -4 -3 -3 -4 -3 -3 -3 -2 -4 -4 -4 -6 -5 -4 -3 -3 -3 -4 -3 0 -0 -1 -3 -6 -6 -6 -6 -6 -6 -6 -4 -2 -2 -2 -3 -3 -3 -3 -3 -3 -7 -10

GFSNW_850_dewp_102.txt.gz
Dewpoint
8 8 -4 -9 -15 -20 -1 2 2 -3 1 -2 -2 -4 -4 -5 -6 -5 0 -0 0 0 2 3 1 2 2 2 -1 3 2 1 2 1 3 1 0 2 4 2 4 2 -0 1
7 7 -6 -10 -19 -23 -3 2 -3 0 1 -3 -4 -5 -5 -6 -4 -5 -4 -3 -1 -2 2 4 -0 1 0 3 2 3 2 3 3 2 3 2 3 3 4 3 1 4 1 1
6 4 -6 -12 -23 -16 -3 -2 -2 -1 -2 -5 -4 -3 -4 -4 -6 -5 -5 -3 -2 -0 2 1 2 0 1 2 3 3 4 4 2 -0 0 2 3 4 4 1 1 4 3 4
7 -1 -8 -14 -23 -13 -3 -2 -2 -3 -2 -4 -4 -4 -4 -3 -4 -6 -5 -1 -1 -0 1 1 2 1 2 0 1 1 3 4 4 3 3 3 2 3 4 2 4 6 5 4
7 0 -9 -17 -22 -13 -6 -3 -4 -6 -6 -6 -5 -4 -5 -3 -4 -5 -4 -2 -2 -1 1 0 2 1 2 2 1 2 2 3 2 2 1 3 4 3 4 4 3 4 4 3
6 -5 -10 -22 -23 -15 -13 -5 -9 -10 -5 -6 -5 -5 -4 -4 -4 -5 -5 -3 -3 -1 -1 -2 -2 -2 -1 -0 2 3 3 3 3 3 1 1 2 4 3 3 2 2 4 1
5 -4 -11 -24 -19 -10 -16 -7 -10 -9 -5 -6 -5 -5 -5 -4 -4 -4 -4 -4 -4 -3 -3 -1 1 0 0 0 0 0 3 1 1 1 -1 2 -1 -3 0 2 0 -0 -0 -1
4 -4 -13 -23 -19 -11 -16 -14 -9 -8 -5 -6 -5 -5 -5 -5 -4 -5 -4 -4 -4 -3 1 2 3 3 2 1 1 1 1 1 2 2 1 -1 1 1 0 0 3 1 1 1
2 -4 -18 -19 -17 -13 -16 -12 -8 -9 -6 -6 -6 -5 -5 -4 -4 -4 -4 -4 -2 0 0 2 2 3 2 2 1 -0 -0 -0 1 1 2 2 1 -1 -1 -2 4 2 1 -1
-0 -6 -15 -19 -18 -14 -15 -12 -6 -8 -5 -4 -5 -5 -4 -5 -4 -4 -4 -4 -1 -0 1 1 0 1 0 2 2 2 1 0 1 2 3 -0 -2 -1 -1 0 2 2 0 -1
0 -7 -17 -18 -12 -14 -14 -11 -5 -8 -4 -3 -4 -5 -5 -4 -4 -4 -4 -2 -2 -2 0 0 0 1 1 1 -0 -1 -0 -0 1 0 2 2 -1 -0 2 0 1 3 1 -0
1 -2 -14 -14 -8 -14 -10 -10 -5 -8 -9 -4 -4 -5 -5 -5 -4 -5 -3 -2 -2 -2 -1 -1 -1 0 0 0 1 -0 -0 -1 1 -1 -0 -3 -1 -1 -1 -2 -2 3 2 1
3 -3 -10 -8 -5 -11 -11 -9 -7 -11 -6 -5 -6 -5 -6 -6 -5 -4 -3 -3 -2 -2 -2 -2 -0 -1 -0 1 2 1 0 -1 -1 -1 0 -0 -0 -1 0 2 2 3 2 2
3 -6 -5 -5 -7 -11 -13 -9 -9 -11 -6 -4 -4 -4 -5 -5 -6 -6 -4 -4 -3 -3 -3 -2 -1 -1 -1 -1 -0 -0 -1 -1 -0 1 -0 -1 -1 -1 1 1 2 2 3 3
-1 -3 -3 -4 -10 -14 -11 -8 -10 -9 -8 -4 -3 -4 -4 -4 -3 -6 -6 -4 -3 -3 -4 -3 -2 -2 -2 -2 -0 -1 -1 -1 1 1 0 1 1 1 1 1 2 2 2 2
-4 -2 -1 -1 -10 -10 -8 -8 -8 -8 -9 -6 -4 -4 -6 -3 -3 -4 -5 -4 -4 -4 -4 -3 -4 -4 -4 -2 -2 -2 -2 -2 -1 -1 -1 -1 -1 -1 0 -1 1 1 2 2
-3 -0 2 -1 -8 -8 -9 -9 -7 -8 -9 -7 -4 -5 -4 -3 -3 -3 -3 -3 -4 -4 -4 -4 -3 -3 -3 -2 -1 -3 -2 -3 -2 -1 -2 -1 -0 -1 -1 -0 -0 1 1 2
-1 1 0 -6 -6 -7 -7 -7 -5 -7 -10 -7 -5 -5 -3 -2 -3 -3 -3 -4 -4 -4 -4 -3 -4 -3 -3 -2 -4 -2 -2 -2 -2 -1 -1 -1 -1 -0 0 1 1 1 1 1
0 0 -1 -4 -8 -8 -7 -7 -8 -10 -11 -3 -6 -6 -6 -3 -3 -3 -3 -4 -3 -3 -4 -3 -3 -3 -2 -3 -5 -2 -2 -3 -2 -2 -1 -1 -1 -0 -0 0 1 1 1 0
0 -1 -7 -6 -6 -7 -7 -9 -9 -10 -9 -4 -3 -4 -4 -3 -3 -3 -2 -2 -2 -2 -3 -3 -2 -2 -4 -4 -3 -3 -2 -2 -2 -2 -2 -2 -2 -2 -1 -0 -0 -0 0 0
-0 -3 -2 -4 -6 -4 -5 -7 -6 -5 -5 -4 -3 -4 -2 -3 -3 -2 -4 -2 -1 -3 -3 -2 -3 -2 -3 -4 -3 -2 -2 -2 -2 -2 -2 -2 -2 -2 -2 -1 -0 -0 -0 -0
-2 -3 -4 -3 -1 0 -1 -6 -4 -4 -5 -3 -3 -2 -2 -2 -3 -3 -3 -3 -2 -4 -2 -2 -3 -4 -3 -2 -2 -2 -2 -3 -2 -2 -3 -2 -2 -3 -2 -2 -1 -1 -1 -1
-2 -1 -0 -1 -1 -0 -1 -3 -4 -3 -3 -3 -2 -3 -3 -3 -4 -4 -3 -3 -4 -2 -2 -3 -4 -4 -2 -1 -2 -2 -3 -2 -3 -3 -3 -3 -3 -3 -3 -3 -2 -2 -3 -3
0 -1 -1 -1 -2 -2 -4 -3 -3 -4 -3 -2 -4 -3 -3 -4 -4 -4 -5 -4 -1 -1 -3 -4 -6 -4 -2 -2 -2 -3 -3 -3 -3 -3 -3 -3 -3 -3 -3 -3 -4 -4 -5 -8
0 -0 0 -2 -3 -3 -2 -2 -2 -2 -3 -4 -4 -4 -4 -4 -4 -4 -4 -2 -2 -3 -4 -6 -5 -3 -2 -2 -3 -3 -3 -3 -3 -3 -3 -3 -4 -4 -3 -4 -4 -5 -5 -4
-1 -2 -4 -4 -4 -3 -2 -2 -2 -2 -4 -5 -5 -4 -5 -4 -4 -5 -4 -4 -5 -6 -7 -3 -2 -2 -2 -3 -4 -6 -7 -6 -5 -3 -3 -3 -3 -3 -3 -3 -3 -4 -4 -4
-3 -4 -4 -4 -4 -3 -2 -2 -2 -3 -5 -5 -6 -6 -6 -6 -6 -5 -6 -5 -7 -7 -4 -2 -1 -3 -3 -5 -6 -6 -6 -6 -6 -6 -6 -4 -4 -4 -4 -3 -3 -3 -3 -4

GFSNW_850_dewp_105.txt.gz
Dewpoint
1 2 4 5 2 -8 -2 1 2 1 1 -2 -3 -4 -4 -5 -5 -3 -0 -1 -1 0 2 2 0 1 1 1 1 2 2 -0 0 1 1 2 0 1 4 3 4 2 -1 3
2 2 4 5 -3 -12 -2 1 1 1 2 -3 -5 -5 -5 -6 -4 -5 -3 -3 -2 -2 2 1 -1 0 -0 2 2 3 2 2 -0 -1 2 1 3 3 3 2 0 4 0 2
1 3 4 5 -6 -13 -3 -5 -0 1 2 -5 -4 -3 -4 -4 -6 -5 -4 -2 -2 -0 2 1 2 0 1 2 3 3 3 5 1 -0 -0 1 3 3 3 -1 0 4 2 2
1 3 4 -2 -10 -9 -2 -3 -3 -3 -2 -4 -4 -5 -4 -3 -4 -6 -4 -1 -1 -2 1 1 1 0 1 1 1 1 3 5 5 4 2 2 2 3 4 0 3 2 4 3
2 4 4 -5 -12 -2 -3 -3 -3 -5 -5 -5 -4 -4 -4 -4 -4 -5 -4 -1 -1 -1 0 -1 2 0 1 0 1 1 2 3 2 1 1 3 4 3 3 3 4 4 3 3
4 4 2 -5 -14 -3 -5 -5 -8 -9 -5 -6 -5 -4 -4 -4 -5 -5 -4 -3 -2 -1 -2 -2 -2 -2 -1 -1 1 2 2 2 1 1 -0 2 2 1 3 3 2 3 4 2
4 4 -1 -7 -16 -4 -10 -10 -10 -9 -5 -6 -5 -5 -5 -4 -5 -4 -4 -4 -3 -2 -3 -1 0 0 0 0 0 0 2 1 1 1 -1 2 -1 -2 1 2 1 -0 -0 -0
2 4 -3 -9 -15 -7 -9 -9 -9 -9 -5 -6 -5 -5 -4 -4 -4 -4 -4 -4 -4 -4 1 1 2 2 2 1 1 0 0 1 2 2 1 -1 1 1 2 1 3 2 1 0
3 2 -1 -9 -15 -6 -7 -9 -9 -9 -5 -5 -6 -5 -5 -4 -5 -4 -4 -3 -1 0 0 2 2 2 1 2 1 -0 1 0 1 1 2 3 0 -2 -2 -1 4 2 0 -1
3 -0 -3 -9 -12 -4 -7 -12 -8 -9 -5 -4 -6 -5 -5 -6 -5 -4 -3 -3 -1 -0 1 0 -1 1 -0 2 2 2 1 0 1 1 1 -0 -3 -1 -1 1 -0 2 0 -1
4 1 -3 -9 -9 -8 -7 -13 -6 -9 -4 -4 -5 -5 -5 -5 -4 -3 -4 -2 -2 -2 -0 -0 0 0 0 0 -0 -1 -0 -0 1 0 2 1 -3 -0 2 -1 1 3 1 0
3 -2 -6 -11 -10 -6 -10 -11 -5 -8 -6 -3 -4 -4 -5 -5 -4 -5 -3 -3 -2 -2 -1 -2 -1 -0 -2 -1 0 -1 0 -1 0 -1 -1 -2 1 1 2 1 -1 2 2 1
0 -6 -9 -12 -12 -8 -11 -9 -7 -10 -4 -5 -5 -5 -5 -4 -4 -4 -3 -2 -2 -2 -2 -2 -2 -1 -1 -1 -0 1 -0 -1 -2 -0 -0 -0 -1 -0 0 2 2 2 3 2
-0 -2 -8 -10 -10 -10 -10 -8 -10 -11 -7 -5 -4 -4 -5 -6 -6 -6 -5 -5 -3 -2 -3 -2 -2 -1 -2 -1 -1 -1 -1 -1 -0 -0 -1 -1 -0 0 0 2 2 2 3 3
0 -5 -5 -4 -5 -9 -9 -8 -11 -9 -9 -4 -4 -4 -4 -3 -6 -5 -4 -4 -3 -3 -4 -3 -2 -2 -3 -2 -2 -2 -2 -1 0 2 -0 -0 1 0 1 -0 1 2 2 2
1 -3 -2 -1 -4 -10 -6 -8 -8 -8 -9 -6 -3 -5 -4 -3 -5 -5 -5 -4 -4 -4 -4 -4 -4 -4 -4 -3 -2 -3 -1 -1 -1 -1 -1 -1 -1 -0 0 0 -1 1 2 2
-1 -1 0 0 -8 -7 -9 -10 -8 -8 -10 -7 -4 -5 -3 -3 -3 -4 -4 -4 -4 -4 -4 -4 -4 -3 -3 -3 -2 -4 -2 -2 -2 -2 -3 -2 -2 -0 -1 -1 -0 0 1 2
-1 0 -1 -6 -5 -7 -9 -7 -7 -9 -11 -9 -5 -4 -3 -3 -4 -3 -3 -4 -4 -4 -4 -3 -4 -3 -3 -2 -4 -3 -2 -2 -2 -2 -2 -2 -2 -1 -0 0 1 1 1 1
-1 0 0 -7 -7 -9 -6 -5 -8 -10 -11 -6 -7 -5 -5 -3 -3 -3 -4 -4 -5 -4 -4 -4 -4 -3 -2 -4 -5 -3 -2 -3 -3 -2 -2 -2 -1 -1 -1 -1 -1 -1 -0 0
1 1 -8 -8 -8 -7 -6 -8 -10 -11 -9 -4 -6 -4 -3 -3 -4 -3 -3 -3 -3 -6 -3 -3 -3 -3 -4 -5 -5 -6 -2 -2 -3 -3 -2 -2 -2 -2 -2 -1 -1 -0 -1 0
0 -4 -3 -6 -7 -7 -8 -8 -7 -6 -6 -3 -3 -4 -3 -3 -4 -3 -4 -5 -4 -5 -4 -3 -4 -2 -3 -5 -4 -3 -3 -2 -2 -2 -2 -2 -2 -2 -3 -2 -1 -1 -0 -0
-3 -6 -6 -3 -1 -0 -2 -6 -5 -5 -6 -3 -3 -3 -3 -3 -4 -4 -4 -5 -3 -5 -3 -2 -3 -5 -5 -4 -4 -3 -3 -3 -3 -3 -2 -3 -3 -3 -3 -3 -2 -1 -1 -1
-5 -3 -1 -2 -2 -1 0 -1 -5 -5 -4 -3 -2 -3 -3 -3 -4 -4 -4 -5 -4 -3 -1 -2 -4 -5 -3 -3 -3 -2 -2 -3 -3 -3 -3 -3 -3 -3 -4 -4 -3 -2 -2 -3
1 -0 -1 -0 -1 -1 -2 -3 -5 -5 -4 -3 -3 -3 -4 -4 -5 -4 -7 -5 -2 -1 -2 -3 -7 -6 -3 -2 -2 -2 -3 -3 -3 -3 -3 -3 -3 -4 -3 -3 -3 -4 -4 -5
0 0 1 -1 -3 -3 -2 -3 -3 -3 -3 -4 -4 -4 -5 -5 -5 -5 -5 -1 -2 -4 -4 -6 -6 -5 -3 -2 -2 -3 -3 -4 -5 -4 -3 -3 -4 -4 -4 -4 -4 -5 -5 -5
-1 -2 -3 -4 -3 -2 -2 -2 -2 -3 -4 -6 -6 -5 -6 -4 -5 -5 -6 -5 -5 -6 -7 -6 -4 -4 -3 -3 -3 -3 -5 -7 -7 -7 -4 -4 -4 -4 -4 -4 -4 -4 -4 -4
-2 -4 -4 -4 -3 -2 -2 -2 -3 -4 -5 -3 -5 -7 -7 -6 -7 -5 -6 -5 -6 -8 -7 -2 -3 -3 -3 -3 -3 -6 -6 -6 -7 -7 -8 -7 -5 -4 -4 -4 -3 -3 -3 -4

GFSNW_850_dewp_108.txt.gz
Dewpoint
-1 -3 -0 2 3 4 -2 0 1 1 1 -0 -4 -4 -4 -5 -4 -1 -1 -1 -1 -1 1 1 -3 1 1 0 2 2 2 -1 1 2 0 2 1 2 4 2 4 1 1 3
-0 -0 -0 2 4 3 1 2 1 1 1 -2 -4 -5 -5 -6 -4 -4 -2 -2 -2 -2 1 -0 -1 -1 -1 2 2 3 3 1 -3 -2 -2 0 3 3 3 1 1 4 3 3
-1 -0 1 1 4 3 -1 -3 1 1 1 -1 -5 -4 -4 -4 -5 -5 -3 -2 -2 -0 1 1 1 -0 0 2 2 3 3 4 0 2 2 1 2 3 3 -2 1 4 2 2
-2 1 2 2 2 0 -1 -6 -1 0 1 -3 -4 -5 -5 -4 -4 -6 -3 -1 -1 -1 1 1 1 0 -0 0 -0 1 3 3 4 3 2 2 2 3 3 0 2 0 3 2
-1 1 3 1 3 -1 -1 -4 -2 -5 -5 -4 -5 -4 -4 -4 -4 -4 -4 -1 -1 -2 -0 -2 0 -1 1 -0 1 2 2 2 2 1 0 3 3 3 3 3 3 3 2 3
1 2 2 3 2 2 -4 -5 -6 -8 -5 -5 -5 -5 -4 -4 -5 -5 -5 -2 -1 -1 -1 -2 -2 -2 -1 -1 1 2 2 1 0 1 -1 2 1 0 3 3 2 3 3 1
1 3 1 3 -1 2 -6 -8 -9 -8 -5 -5 -6 -5 -5 -4 -5 -4 -4 -3 -2 -2 -3 -1 -0 0 -0 0 0 -0 1 1 1 1 -2 2 -1 -1 -1 2 1 -0 -0 0
2 2 2 1 -1 -0 -6 -8 -10 -9 -5 -6 -5 -5 -4 -4 -4 -4 -4 -4 -3 -3 1 1 1 1 1 1 0 0 -0 1 2 1 1 -1 1 1 4 3 3 2 1 0
1 3 2 -5 -4 -1 -7 -8 -8 -10 -5 -5 -5 -5 -4 -4 -5 -5 -3 -3 -2 0 0 2 2 2 1 2 1 -0 0 -1 0 1 1 3 1 -2 -2 -0 4 2 -0 -1
2 2 2 -2 -8 -3 -7 -6 -8 -9 -5 -4 -6 -5 -5 -6 -5 -4 -3 -2 -1 0 0 0 -1 1 -0 2 2 2 0 0 0 1 1 -0 -3 -1 -1 0 -2 3 0 -0
3 3 1 -2 -7 -3 -5 -7 -7 -8 -4 -4 -5 -6 -7 -5 -5 -3 -4 -1 -1 -2 -1 -1 -0 0 -0 0 -1 -1 -0 -0 1 0 2 1 -1 -1 1 -1 0 3 2 0
3 3 1 -5 -9 -4 -7 -6 -6 -9 -7 -3 -4 -5 -5 -5 -5 -5 -2 -3 -2 -2 -2 -2 -2 -0 -3 -2 1 -1 -0 -2 -0 -1 -1 -1 1 1 2 2 1 2 2 2
4 2 -3 -10 -8 -5 -8 -7 -7 -9 -4 -4 -5 -5 -4 -4 -4 -4 -3 -2 -2 -2 -2 -3 -2 -1 -2 -1 -1 1 -0 -2 -2 -0 -0 -1 -0 0 1 2 2 2 3 2
4 -1 -3 -7 -7 -7 -6 -8 -9 -9 -8 -5 -4 -4 -6 -6 -5 -5 -5 -4 -2 -2 -3 -2 -2 -2 -2 -2 -2 -2 -2 -2 -1 -1 -1 -1 -0 0 0 1 2 2 2 3
2 -1 -5 -3 -5 -6 -7 -7 -10 -10 -9 -3 -3 -4 -3 -5 -5 -6 -5 -4 -3 -3 -4 -3 -2 -2 -3 -3 -3 -2 -2 -2 0 0 -1 -1 -0 0 1 0 -1 0 1 2
-0 -6 -7 -4 -8 -8 -6 -9 -9 -9 -9 -6 -3 -5 -3 -4 -5 -4 -4 -3 -4 -4 -4 -4 -4 -4 -4 -3 -2 -4 -3 -2 -1 -1 0 0 -1 -0 -0 -0 -1 -1 -0 2
-2 -4 -2 -7 -6 -5 -8 -10 -8 -8 -8 -7 -5 -5 -3 -4 -5 -5 -5 -5 -5 -5 -4 -4 -4 -3 -4 -4 -3 -5 -2 -1 -1 -1 -1 -2 -2 -1 -0 -1 -1 -1 -1 0
0 0 -4 -4 -5 -6 -8 -8 -7 -8 -10 -8 -5 -4 -3 -3 -3 -3 -4 -4 -4 -4 -4 -3 -4 -3 -3 -2 -4 -4 -2 -2 -2 -3 -3 -3 -2 -2 -1 -1 -0 -0 0 0
-0 -1 0 -4 -6 -9 -7 -6 -8 -10 -10 -7 -6 -4 -3 -3 -3 -3 -3 -3 -5 -3 -4 -4 -4 -4 -2 -4 -5 -4 -2 -2 -2 -2 -3 -3 -3 -2 -1 -1 -1 -1 -1 -1
-0 -0 -2 -8 -8 -7 -6 -9 -11 -11 -8 -7 -5 -4 -3 -3 -4 -3 -4 -3 -4 -7 -4 -3 -3 -3 -5 -6 -5 -7 -3 -2 -3 -3 -3 -3 -2 -2 -2 -2 -2 -1 -0 -0
-0 -0 -7 -7 -6 -8 -10 -9 -8 -8 -6 -4 -4 -4 -3 -3 -5 -4 -4 -6 -6 -6 -5 -3 -4 -2 -4 -5 -5 -6 -3 -2 -3 -3 -3 -3 -3 -2 -2 -2 -2 -2 -1 -1
-0 -5 -6 -6 -3 -0 -6 -6 -5 -6 -6 -3 -4 -3 -3 -3 -4 -4 -3 -6 -7 -5 -4 -4 -3 -5 -5 -4 -5 -5 -4 -3 -3 -3 -3 -3 -3 -3 -3 -3 -3 -2 -3 -2
-5 -6 -2 -1 -2 -2 -2 -1 -4 -5 -4 -3 -3 -3 -3 -4 -4 -4 -6 -7 -4 -4 -2 -3 -5 -6 -5 -4 -4 -3 -3 -3 -3 -3 -4 -4 -3 -3 -3 -3 -3 -3 -3 -3
-0 -0 0 -1 -1 -2 -2 -2 -3 -6 -4 -3 -3 -4 -4 -4 -5 -5 -7 -5 -3 -1 -5 -4 -7 -6 -5 -4 -4 -4 -3 -3 -4 -4 -4 -4 -3 -4 -4 -4 -3 -3 -4 -4
0 0 1 -1 -3 -3 -3 -4 -3 -3 -3 -4 -4 -4 -5 -5 -4 -5 -4 -2 -2 -3 -5 -6 -7 -6 -4 -3 -3 -2 -3 -3 -4 -5 -6 -5 -4 -4 -4 -4 -4 -4 -4 -5
-1 -2 -3 -3 -2 -2 -2 -2 -3 -3 -4 -6 -6 -5 -6 -5 -5 -5 -6 -5 -5 -6 -7 -7 -5 -6 -4 -3 -2 -3 -3 -4 -6 -7 -8 -8 -4 -4 -4 -4 -4 -4 -4 -4
-2 -4 -3 -3 -3 -2 -2 -3 -3 -4 -5 -5 -6 -8 -7 -6 -7 -5 -6 -6 -6 -8 -7 -5 -4 -5 -4 -3 -3 -3 -4 -7 -7 -7 -9 -8 -7 -5 -5 -4 -4 -4 -4 -4

GFSNW_850_dewp_111.txt.gz
Dewpoint
-1 0 -1 -4 0 3 4 1 1 2 1 1 -3 -4 -5 -4 -4 -1 -1 -1 -1 -2 1 -0 -3 0 1 0 2 3 1 -1 2 2 0 3 1 3 3 3 4 1 3 5
-1 0 -0 -2 1 2 1 1 1 1 1 -0 -4 -5 -5 -6 -4 -3 -2 -2 -2 -2 -1 -1 -1 -1 -1 2 3 3 3 1 -1 -1 -1 -0 2 2 3 0 1 4 3 4
-0 0 -0 -2 0 2 1 -1 1 1 1 -0 -5 -4 -4 -4 -5 -5 -3 -2 -2 -1 0 -0 1 -1 -0 1 1 2 2 4 1 5 4 2 3 3 2 -1 3 3 3 1
0 1 0 -2 2 2 -0 -2 1 1 1 -0 -5 -5 -5 -4 -4 -5 -2 -1 -1 -1 1 1 1 -0 -1 -1 0 1 1 3 4 3 3 2 3 3 3 3 2 2 2 2
-0 1 1 1 1 2 1 -2 -2 -1 -4 -2 -5 -4 -4 -4 -5 -4 -3 -1 -1 -2 -1 -2 -0 -1 -1 -1 0 2 1 1 1 1 2 2 2 2 2 3 3 3 2 2
0 0 1 2 1 2 0 -1 -4 -7 -4 -5 -5 -5 -5 -5 -5 -5 -5 -2 -2 -1 -2 -2 -2 -2 -1 -1 0 1 1 1 0 1 -1 1 1 -0 2 2 2 2 3 2
0 0 1 1 2 1 -2 -4 -7 -7 -4 -5 -6 -5 -5 -5 -5 -4 -4 -2 -2 -2 -2 -1 -0 -0 -0 -0 0 -0 1 1 0 1 -3 2 -2 -1 -1 2 2 0 1 1
0 3 0 3 2 1 -3 -7 -10 -9 -5 -6 -5 -5 -4 -4 -4 -4 -4 -4 -3 -2 1 0 1 0 1 1 -0 0 -1 -0 1 1 0 -1 1 0 3 2 4 2 1 -1
1 4 1 3 1 -1 -5 -8 -9 -9 -5 -5 -5 -4 -5 -5 -5 -4 -3 -3 -3 0 0 1 1 1 1 2 1 -0 0 -2 0 1 1 2 1 -2 -2 -0 4 1 -1 -1
1 2 3 2 1 -4 -6 -7 -9 -9 -5 -5 -5 -5 -5 -6 -6 -5 -3 -1 -0 0 0 0 -1 1 -1 2 2 2 -0 -0 -0 2 1 -0 -3 -2 -1 -0 -0 3 0 0
2 2 3 2 0 -5 -6 -7 -8 -9 -4 -4 -6 -6 -7 -6 -6 -4 -4 -1 -1 -2 -0 -1 -0 -0 -1 -0 -1 -0 -0 -0 1 0 1 1 -1 -1 -0 -2 0 2 2 1
2 2 0 0 -0 -1 -5 -7 -8 -8 -7 -3 -4 -5 -6 -6 -5 -4 -2 -3 -2 -1 -2 -2 -2 -0 -4 -2 0 -2 -0 -2 -1 -1 -1 -2 1 1 2 2 2 3 2 2
2 3 -1 -2 -4 -1 -4 -7 -8 -10 -4 -4 -4 -4 -4 -4 -5 -3 -3 -3 -2 -2 -3 -3 -2 -1 -2 -1 -1 0 -1 -2 -2 -0 -0 -1 0 1 2 2 2 2 3 2
3 3 0 -3 -6 -2 -7 -7 -8 -9 -7 -5 -4 -4 -5 -5 -5 -4 -5 -4 -2 -2 -3 -3 -2 -2 -3 -2 -2 -2 -2 -2 -2 -1 -1 -1 0 0 1 2 2 2 2 2
3 3 0 -3 -8 -5 -8 -7 -9 -10 -10 -4 -3 -4 -5 -5 -6 -6 -6 -3 -3 -3 -4 -3 -3 -2 -3 -3 -3 -3 -3 -2 -0 -0 -2 -2 -1 1 1 -0 -1 -1 1 2
3 2 -0 -9 -7 -6 -7 -8 -9 -9 -10 -7 -4 -4 -4 -4 -4 -4 -4 -3 -4 -5 -4 -4 -4 -4 -4 -3 -2 -5 -3 -2 -1 -1 -1 0 0 -1 -1 -0 -0 -1 -1 1
-0 -5 -7 -4 -6 -7 -8 -9 -8 -8 -8 -8 -5 -4 -4 -5 -5 -4 -4 -5 -5 -5 -4 -4 -4 -3 -4 -4 -3 -6 -4 -2 -1 -0 -0 -1 -1 -1 -1 -1 -1 -1 -1 -1
-1 -2 -4 -5 -8 -6 -7 -8 -7 -8 -9 -8 -6 -4 -3 -3 -4 -4 -4 -5 -5 -5 -4 -3 -4 -3 -3 -2 -5 -5 -2 -1 -1 -1 -2 -3 -3 -2 -2 -2 -1 -1 -1 -1
-1 -2 -2 -6 -5 -6 -7 -6 -7 -10 -10 -7 -6 -4 -3 -3 -3 -4 -3 -4 -5 -3 -4 -4 -4 -4 -3 -5 -5 -5 -2 -2 -2 -2 -3 -3 -3 -3 -2 -2 -1 -1 -1 -1
0 -2 -4 -6 -7 -7 -7 -9 -10 -11 -8 -8 -5 -4 -3 -3 -4 -4 -4 -3 -4 -7 -4 -3 -3 -3 -6 -7 -7 -8 -3 -2 -2 -2 -2 -3 -4 -3 -3 -3 -2 -2 -1 -1
-0 0 -1 -6 -6 -7 -9 -9 -8 -9 -5 -5 -4 -4 -3 -3 -5 -4 -4 -5 -6 -7 -5 -4 -4 -3 -4 -6 -7 -7 -4 -2 -3 -4 -5 -4 -3 -3 -3 -2 -2 -2 -2 -2
0 -2 -6 -6 -8 -3 -7 -6 -6 -6 -6 -4 -4 -4 -4 -4 -4 -4 -3 -6 -8 -6 -5 -4 -4 -5 -6 -5 -6 -6 -4 -2 -3 -4 -4 -4 -5 -4 -3 -3 -3 -3 -3 -2
-3 -2 -2 -2 -2 -2 -4 -5 -4 -5 -4 -3 -3 -3 -4 -4 -5 -4 -7 -8 -6 -4 -3 -4 -5 -6 -6 -5 -5 -6 -3 -2 -3 -3 -4 -5 -5 -4 -4 -3 -3 -3 -3 -3
-1 -1 -2 -3 -2 -3 -3 -3 -2 -6 -3 -3 -3 -3 -4 -4 -5 -6 -7 -6 -4 -2 -4 -5 -7 -6 -6 -4 -5 -5 -3 -3 -3 -3 -4 -5 -5 -5 -5 -4 -4 -3 -4 -3
1 0 0 -1 -2 -3 -3 -5 -4 -4 -4 -4 -4 -4 -5 -5 -4 -5 -4 -3 -2 -4 -5 -6 -8 -7 -5 -4 -3 -3 -4 -3 -3 -4 -5 -6 -6 -6 -5 -4 -4 -4 -4 -4
-0 -1 -2 -3 -2 -2 -3 -3 -3 -3 -4 -6 -6 -5 -6 -5 -5 -4 -5 -5 -5 -6 -7 -7 -6 -6 -5 -4 -5 -4 -3 -3 -4 -5 -7 -7 -8 -8 -6 -4 -4 -4 -4 -4
-2 -3 -3 -3 -2 -2 -3 -3 -3 -4 -5 -5 -6 -7 -7 -6 -7 -5 -6 -6 -7 -8 -8 -7 -5 -6 -5 -4 -3 -3 -3 -4 -6 -7 -7 -9 -9 -8 -8 -8 -7 -5 -5 -4

GFSNW_850_dewp_114.txt.gz
Dewpoint
-0 -1 -0 0 -1 2 1 2 2 1 1 1 -1 1 -5 -4 -4 -1 -1 -1 -1 -1 -0 -1 1 1 0 0 2 2 1 1 4 4 0 2 1 3 3 5 4 3 3 6
0 -1 -1 0 -1 0 1 0 1 1 1 1 1 -5 -4 -5 -4 -2 -2 -1 -2 -2 -1 -0 -1 1 -1 1 2 2 2 2 3 2 1 1 2 2 2 1 3 4 5 5
-1 -1 -1 1 -2 0 1 1 1 0 1 -1 -4 -3 -3 -3 -5 -4 -3 -2 -2 -1 -1 -0 -1 2 -1 1 0 2 2 2 4 4 4 3 5 3 2 3 5 3 3 2
-1 -0 -1 -0 -2 -1 1 1 1 1 1 1 -3 -5 -5 -4 -3 -4 -2 -1 -1 1 0 0 -0 0 -1 -1 0 1 1 4 3 2 2 2 3 3 2 4 2 5 2 3
-1 0 0 0 -0 0 1 -2 0 1 -2 -1 -1 -4 -5 -4 -4 -4 -2 -1 -1 -1 1 -1 0 -1 0 2 -1 1 0 4 2 3 -0 0 2 2 2 2 2 2 2 2
-0 0 1 1 0 2 2 -1 -2 -4 -2 -1 -1 -4 -5 -5 -5 -4 -4 -2 -1 -0 -1 -2 -2 -1 -1 -1 1 1 1 1 2 3 -0 1 3 2 3 2 1 2 3 2
-0 0 1 1 1 2 2 -2 -4 -5 -4 -3 -2 -5 -6 -5 -5 -4 -3 -2 -1 -2 -2 -1 -0 -0 -0 -0 -0 -0 1 1 1 1 -1 2 0 0 0 3 2 1 1 0
0 0 1 1 1 2 -0 -2 -7 -7 -4 -5 -6 -5 -5 -4 -4 -3 -3 -3 -2 -2 0 0 1 1 1 1 0 1 0 1 0 1 1 1 1 1 3 3 4 1 -0 -1
0 1 2 1 2 1 -1 -3 -8 -8 -6 -6 -5 -5 -5 -4 -3 -3 -2 -2 -1 0 0 1 1 1 1 1 1 -0 -0 -1 0 1 1 2 0 -1 -1 -0 4 1 -0 -0
3 1 1 1 2 1 -2 -7 -8 -8 -5 -4 -5 -5 -6 -5 -5 -4 -3 -1 -0 -0 1 1 1 1 -0 1 1 1 -0 -0 1 1 1 -0 -3 -2 -1 0 3 2 1 1
3 2 2 1 1 -2 -6 -8 -9 -9 -4 -4 -6 -6 -6 -6 -5 -5 -3 -1 -1 0 1 0 1 0 0 0 -1 -0 -1 -0 -0 1 2 2 -1 -0 -1 0 1 2 1 1
2 2 2 -1 -4 -6 -7 -8 -9 -8 -7 -4 -5 -5 -6 -7 -6 -4 -2 -3 -1 0 -1 -1 -1 0 0 -1 -0 -2 -1 -2 -1 -2 -1 -1 1 1 1 1 2 3 3 2
2 3 2 -2 -6 -8 -9 -9 -9 -10 -4 -4 -4 -4 -4 -5 -5 -3 -2 -3 -2 -2 -3 -2 -1 -1 -2 -0 -0 -0 -1 -2 -1 -0 -0 0 0 1 2 2 2 2 3 2
1 2 2 -1 -6 -5 -6 -8 -9 -10 -7 -5 -4 -5 -5 -5 -4 -3 -4 -3 -2 -2 -3 -2 -1 -1 -2 -2 -2 -0 -2 -2 -1 -1 -1 -0 -0 0 2 2 2 2 2 2
2 2 2 -1 -1 -2 -6 -8 -9 -9 -10 -4 -4 -5 -5 -5 -5 -5 -5 -3 -3 -3 -3 -3 -2 -1 -2 -2 -2 -1 -2 -1 -1 -1 -2 -2 -1 -0 -0 -0 -1 -1 1 2
3 -0 -1 -2 -2 -6 -7 -9 -9 -9 -10 -7 -4 -4 -4 -4 -4 -4 -4 -3 -3 -5 -3 -3 -3 -3 -3 -2 -3 -5 -3 -2 -2 -1 -1 -1 -0 0 0 0 -0 -0 -1 -0
3 1 -1 -7 -4 -7 -8 -9 -8 -9 -9 -8 -4 -3 -4 -4 -4 -4 -4 -5 -5 -6 -3 -3 -3 -3 -3 -3 -3 -7 -4 -2 -1 -1 -1 0 0 -0 -0 -1 -1 -1 -1 -2
3 1 -3 -6 -5 -7 -7 -9 -8 -8 -10 -9 -3 -3 -3 -5 -4 -4 -5 -6 -6 -5 -3 -3 -3 -3 -3 -2 -5 -6 -4 -2 -1 -1 -1 -1 -1 -1 -2 -3 -2 -2 -1 -1
-1 -6 -6 -5 -6 -6 -7 -7 -7 -9 -11 -5 -4 -2 -1 -4 -3 -4 -3 -5 -3 -4 -4 -4 -4 -4 -2 -5 -5 -5 -3 -2 -1 -1 -1 -3 -3 -3 -4 -4 -3 -2 -2 -2
-3 -5 -6 -7 -7 -7 -8 -8 -10 -12 -9 -9 -4 -4 -2 -3 -3 -3 -3 -3 -3 -2 -4 -3 -3 -3 -5 -8 -8 -8 -5 -2 -1 -2 -2 -3 -3 -4 -5 -4 -3 -3 -2 -1
-1 -1 -3 -6 -7 -8 -9 -9 -7 -9 -4 -6 -4 -4 -3 -4 -3 -3 -4 -3 -3 -2 -3 -2 -2 -3 -4 -6 -8 -8 -5 -2 -2 -2 -3 -3 -5 -5 -4 -4 -4 -3 -2 -2
-2 -2 -6 -6 -8 -6 -5 -5 -5 -5 -5 -4 -4 -4 -4 -4 -4 -3 -3 -3 -4 -2 -4 -2 -2 -5 -6 -5 -7 -7 -6 -2 -2 -3 -5 -5 -4 -6 -6 -6 -5 -3 -2 -3
-5 -4 -3 -4 -3 -0 -2 -3 -4 -4 -4 -4 -3 -2 -4 -4 -5 -3 -4 -3 -3 -4 -2 -2 -3 -6 -6 -6 -6 -6 -5 -2 -3 -4 -4 -4 -6 -7 -7 -6 -6 -4 -3 -3
1 -0 0 -1 -1 -2 -1 -2 -1 -5 -4 -4 -4 -3 -3 -4 -3 -4 -3 -5 -3 -2 -2 -2 -4 -7 -7 -5 -6 -6 -3 -2 -3 -4 -4 -5 -6 -7 -8 -8 -7 -5 -4 -4
0 -1 -1 -2 -3 -3 -4 -4 -4 -4 -4 -4 -4 -4 -4 -4 -4 -5 -3 -2 -2 -3 -2 -3 -7 -8 -6 -5 -5 -6 -4 -3 -3 -4 -4 -5 -7 -8 -9 -9 -8 -6 -4 -4
-0 -0 -1 -2 -2 -2 -4 -4 -3 -4 -4 -6 -6 -4 -4 -3 -4 -3 -3 -4 -3 -2 -3 -7 -7 -7 -6 -5 -6 -6 -5 -4 -4 -4 -5 -6 -9 -10 -9 -8 -6 -5 -5 -4
-2 -2 -2 -2 -2 -1 -2 -4 -4 -4 -5 -2 -4 -4 -4 -5 -4 -3 -5 -3 -2 -8 -8 -8 -6 -7 -6 -5 -4 -4 -4 -4 -3 -5 -6 -8 -9 -9 -8 -8 -8 -7 -6 -5

GFSNW_850_dewp_117.txt.gz
Dewpoint
-0 0 -1 -1 1 -1 -1 1 2 2 0 1 -0 1 -6 -4 -4 -1 -2 -2 -2 -2 -2 -2 2 2 -0 0 1 2 0 2 6 3 -0 0 2 3 3 8 4 5 3 6
-0 0 -1 -0 1 1 1 0 0 1 1 2 2 -4 -4 -5 -3 -2 -2 -1 -2 -3 -1 0 -0 3 -2 -1 1 3 2 3 6 5 1 0 3 1 1 1 4 5 5 7
-1 -0 -1 0 1 1 1 1 2 1 1 -0 -2 -4 -4 -3 -4 -3 -4 -2 -2 -2 -2 -2 -0 3 -2 -0 -0 2 2 1 4 5 4 3 5 1 2 5 6 5 6 4
-0 -1 -0 0 1 1 1 2 2 1 2 -0 -4 -5 -5 -4 -3 -4 -3 -2 -1 0 -0 -1 -1 1 -1 -2 -1 0 1 3 1 1 2 1 2 2 1 4 2 5 3 3
-1 -0 -1 0 0 -1 1 0 1 1 -1 -2 -3 -5 -5 -5 -4 -4 -3 -1 -2 -1 0 -0 -0 -1 1 2 -1 0 -0 3 1 2 -0 0 3 2 2 2 1 2 2 3
-1 -0 -0 1 -1 -1 1 -0 -1 -2 -2 -1 -2 -4 -6 -6 -5 -4 -4 -4 -1 -1 -2 -2 -2 -2 -2 -1 0 1 1 1 2 3 0 0 2 3 2 2 2 1 4 2
-1 -0 -0 0 -0 -0 1 -1 -2 -5 -3 -3 -3 -6 -6 -6 -5 -4 -3 -2 -2 -1 -2 -1 -1 -1 -1 -1 -0 -0 1 1 1 0 -1 2 1 1 2 2 2 0 -0 -0
-1 -1 0 1 0 2 1 -1 -4 -5 -5 -5 -4 -6 -7 -5 -4 -3 -3 -2 -1 -1 0 -0 0 0 1 0 -0 -0 -0 0 0 1 1 1 1 1 3 4 3 -1 -1 -1
0 -0 -0 1 1 1 2 0 -2 -5 -6 -6 -6 -6 -6 -5 -4 -2 -2 -1 -1 1 0 -0 1 0 -1 -0 1 -1 -1 -1 0 0 2 2 -0 -1 -1 -0 5 0 -0 -0
1 0 -1 0 1 1 -1 -2 -3 -5 -5 -4 -5 -6 -6 -6 -4 -2 -2 -1 1 1 0 0 1 -1 -1 -1 -1 -1 -2 -2 0 -0 1 0 -2 -2 -1 2 5 1 1 1
2 1 -1 0 1 0 -2 -5 -8 -5 -4 -3 -4 -5 -6 -5 -5 -3 -2 -2 -0 1 1 -1 -0 -1 -1 -1 -1 -1 -2 -2 -2 -1 -0 2 -1 -0 0 2 2 1 1 1
1 -1 -0 1 1 0 -2 -7 -8 -7 -4 -3 -5 -6 -6 -6 -6 -3 -1 -2 -1 -1 -0 -1 -1 -1 1 -2 -3 -2 -2 -2 -1 -1 -0 -0 1 1 1 1 2 2 2 2
2 2 2 -0 -0 -2 -7 -9 -9 -8 -4 -3 -3 -3 -5 -6 -5 -3 -2 -2 -1 -1 -2 -2 -1 -1 -2 -3 -3 -2 -2 -3 -2 -1 -1 0 1 2 2 2 2 3 3 2
1 -0 -2 -5 -8 -9 -10 -10 -10 -10 -5 -6 -4 -5 -5 -5 -4 -3 -4 -3 -2 -2 -2 -2 -2 -1 -1 -3 -2 -1 -3 -2 -2 -1 -1 -0 0 1 2 2 2 2 2 3
-2 -4 -5 -8 -9 -9 -9 -9 -10 -10 -5 -5 -4 -6 -5 -5 -5 -5 -5 -2 -2 -2 -3 -3 -3 -2 -2 -3 -2 -3 -2 -3 -2 -4 -3 -3 -2 -0 1 1 1 -0 1 2
2 -2 -6 -7 -9 -8 -8 -10 -10 -10 -10 -4 -4 -4 -4 -5 -5 -4 -3 -3 -3 -3 -3 -4 -3 -3 -3 -3 -5 -8 -4 -3 -4 -3 -2 -2 -1 0 -1 0 -1 -0 -1 -1
2 2 1 -3 -6 -7 -9 -8 -10 -9 -9 -6 -3 -4 -4 -5 -5 -4 -3 -4 -4 -3 -3 -4 -3 -3 -2 -3 -4 -8 -5 -2 -1 -1 -1 0 0 -0 -1 -0 -1 -1 -1 -1
1 2 2 -0 -5 -6 -8 -10 -9 -9 -10 -8 -1 -3 -4 -6 -4 -4 -5 -4 -4 -4 -3 -3 -4 -3 -3 -2 -6 -7 -5 -2 -1 -1 -1 -1 -1 -0 -1 -0 -1 -2 -1 -1
-0 -1 -3 -3 -4 -6 -8 -8 -8 -9 -11 -2 -2 -0 0 -5 -3 -3 -3 -3 -3 -3 -4 -5 -3 -5 -2 -5 -7 -6 -4 -2 -1 -1 -1 -1 -1 -1 -1 -2 -3 -3 -1 -2
1 -2 -6 -6 -6 -7 -9 -8 -9 -11 -10 -9 -4 -3 -1 -2 -3 -3 -2 -3 -3 1 -4 -3 -3 -4 -6 -6 -6 -6 -4 -2 -1 -1 -1 -1 -1 -1 -3 -4 -4 -3 -2 -2
-5 -5 -5 -6 -8 -9 -9 -7 -3 -6 -2 -4 -4 -4 -3 -3 -2 -2 -4 -1 -2 0 -2 -2 -1 -3 -4 -5 -7 -7 -5 -4 -4 -3 -2 -2 -3 -4 -4 -5 -5 -4 -4 -3
-2 -2 -7 -8 -8 -7 -3 -1 -4 -4 -3 -4 -4 -4 -2 -3 -4 -3 -3 -1 -3 -0 -4 -2 -1 -5 -6 -6 -6 -7 -4 -4 -2 -2 -2 -3 -3 -5 -6 -5 -5 -5 -4 -4
-0 -5 -6 -4 -3 1 -1 -2 -2 -2 -4 -3 -3 -2 -3 -4 -3 -3 -3 -1 -1 -4 -1 -1 -1 -3 -7 -6 -5 -6 -4 -3 -2 -2 -3 -4 -5 -5 -6 -7 -7 -6 -4 -4
1 1 1 0 1 -1 1 -0 1 -3 -3 -3 -2 -2 -3 -3 -3 -3 -1 -4 -3 -1 -1 -1 -2 -4 -7 -7 -6 -6 -4 -3 -3 -3 -4 -5 -5 -7 -8 -9 -9 -9 -6 -5
1 -0 2 1 -2 -2 -3 -3 -5 -5 -3 -3 -3 -3 -3 -3 -2 -4 -3 -2 -1 -2 0 -0 -2 -8 -7 -7 -6 -6 -5 -3 -3 -4 -5 -5 -6 -7 -8 -9 -10 -9 -8 -7
1 -0 0 -1 -2 -1 -2 -2 -1 -3 -3 -5 -6 -2 -2 -2 -2 -2 -1 -2 -1 2 1 -2 -8 -8 -7 -6 -6 -6 -6 -4 -3 -3 -4 -4 -6 -7 -10 -10 -9 -8 -7 -7
-1 -1 -1 -1 -1 -0 -1 -2 -3 -4 -4 -0 -1 -1 -1 -4 -2 -2 -3 -1 2 -3 -7 -8 -8 -7 -7 -6 -6 -6 -5 -3 -3 -4 -4 -5 -7 -9 -11 -10 -9 -9 -8 -8

GFSNW_850_dewp_120.txt.gz
Dewpoint
-2 -1 0 -1 -0 1 -1 1 2 1 0 1 -0 2 -5 -4 -4 -1 -2 -2 -1 -2 -2 -2 2 2 0 -0 0 3 3 2 5 5 -0 1 2 6 3 7 7 7 6 6
-1 -1 -0 -1 1 0 -1 0 0 1 2 2 1 -4 -4 -5 -3 -2 -2 -1 -2 -3 -2 0 0 2 -2 -0 1 2 2 3 4 4 2 2 4 2 1 3 5 6 6 6
-1 -1 -1 -0 1 -1 -2 1 1 0 1 1 -1 -3 -3 -3 -4 -3 -3 -2 -2 -2 -2 -3 -1 2 -1 -1 -0 1 2 2 4 6 6 5 5 2 3 5 5 6 6 5
-1 -1 -1 1 0 0 -1 2 2 1 2 0 -2 -5 -5 -3 -3 -3 -3 -1 -1 2 -0 -2 -1 1 0 -2 -1 0 1 3 2 1 2 2 3 3 3 3 3 5 4 4
-1 -1 -0 1 1 1 0 1 1 1 0 -0 -2 -5 -5 -5 -4 -3 -2 -1 -1 -1 0 -0 -1 -1 1 1 -1 -0 -0 2 1 2 0 2 3 4 3 5 6 3 4 3
-1 -1 -1 -0 -1 0 1 -1 -0 -1 -2 -2 -2 -3 -6 -6 -5 -4 -4 -3 -1 -1 -1 -2 -2 -2 -2 -1 0 1 1 2 2 2 -0 -0 3 5 3 2 1 1 4 2
-1 -0 -1 -1 -3 -1 -1 -1 -2 -4 -1 -2 -2 -6 -7 -5 -4 -3 -3 -2 -1 -1 -2 -2 -1 -2 -1 -1 -0 -1 2 1 1 2 -1 4 1 1 2 2 1 -0 -0 0
-1 -0 -1 -1 -1 -1 -1 -3 -4 -4 -4 -4 -4 -6 -6 -4 -3 -2 -2 -2 -1 -1 0 1 0 1 1 0 -0 -0 -0 1 2 2 2 2 1 1 2 3 3 0 0 -1
-1 -1 -0 -1 -1 -2 0 -1 -2 -4 -4 -4 -5 -6 -5 -3 -2 -2 -1 -1 -1 1 2 1 1 2 -1 1 2 -1 -1 -1 1 1 2 4 1 -0 -1 -0 4 0 0 0
-1 -1 0 -1 -1 0 1 -0 -0 -5 -4 -4 -4 -5 -5 -5 -3 -1 -1 -1 0 -0 2 1 3 1 -1 0 -1 0 -0 -1 1 1 1 0 -2 -1 -1 3 4 1 1 1
-1 -2 -2 -1 -1 -0 0 -2 -3 -6 -3 -4 -4 -5 -4 -4 -4 -1 -1 -1 0 1 2 0 0 1 -1 -1 -1 -1 -1 -1 -1 -0 0 2 -1 -1 2 3 1 1 1 2
-1 -3 -3 -1 -1 -0 -2 -5 -8 -7 -3 -4 -6 -6 -6 -5 -5 -2 -1 -1 -1 1 1 -0 -1 -0 1 -1 -0 -2 -1 -1 -0 -0 1 0 1 1 1 2 2 2 2 2
0 -0 -3 -2 0 -1 -1 -6 -8 -8 -5 -4 -3 -4 -6 -6 -6 -3 -1 -2 -1 -0 -2 -1 -1 0 -2 -1 -2 -2 -2 -3 -1 -1 0 1 1 2 2 2 2 2 2 2
-3 -3 -1 0 -0 -1 -6 -7 -9 -5 -5 -5 -4 -5 -6 -5 -4 -4 -3 -4 -2 -2 -2 -1 -1 -0 -2 -1 -1 -1 -2 -2 -2 -1 -0 0 1 1 2 2 1 1 2 2
1 0 -0 -0 -4 -8 -9 -10 -10 -10 -3 -4 -4 -5 -6 -5 -5 -5 -5 -3 -2 -2 -2 -2 -1 -2 -2 -3 -2 -2 -2 -2 -1 -2 -2 -1 -1 1 1 0 0 0 1 1
-3 -5 -6 -8 -9 -9 -10 -11 -10 -10 -10 -6 -3 -4 -5 -5 -5 -5 -4 -4 -3 -3 -2 -3 -3 -3 -2 -1 -3 -7 -5 -4 -4 -3 -3 -2 -1 0 0 0 -1 -1 -1 -0
-3 -5 -5 -7 -8 -10 -11 -8 -9 -9 -9 -5 -3 -3 -5 -5 -5 -5 -4 -5 -5 -4 -3 -3 -3 -3 -3 -2 -2 -7 -6 -3 -3 -2 -2 -0 -0 -0 -0 -1 -1 -1 -1 -1
-4 -4 -2 -2 -7 -9 -11 -11 -10 -9 -9 -5 -1 -3 -4 -6 -4 -3 -6 -3 -4 -4 -3 -3 -3 -3 -3 -1 -4 -7 -5 -3 -2 -2 -2 -2 -1 -1 -1 -1 -1 -1 -1 -2
1 -1 1 2 -1 -5 -8 -9 -9 -9 -11 -3 -2 -2 -1 -6 -3 -3 -5 -4 -2 -3 -3 -4 -3 -3 -1 -4 -5 -6 -6 -3 -2 -1 -1 -1 -1 -1 -1 -1 -1 -2 -3 -3
3 3 1 -2 -4 -5 -9 -9 -9 -10 -10 -8 -2 -3 -2 -3 -3 -3 -2 -3 -2 -2 -2 -3 -3 -2 -6 -7 -7 -7 -7 -4 -2 -1 -1 -1 -1 -1 -1 -1 -2 -3 -4 -3
-0 -5 -6 -6 -6 -6 -10 -6 -3 -5 -2 -5 -4 -3 -3 -3 -2 -1 -3 -2 -2 -2 -1 -3 -1 -1 -3 -6 -7 -7 -7 -6 -3 -3 -3 -3 -2 -2 -1 -2 -4 -5 -5 -6
-5 -6 -6 -7 -8 -8 -3 -3 -3 -3 -3 -4 -3 -4 -2 -4 -3 -2 -3 -2 -5 -3 -3 -3 -2 -3 -5 -8 -5 -7 -7 -6 -4 -2 -3 -3 -2 -3 -3 -4 -5 -6 -7 -8
-5 -7 -9 -6 -3 -3 -2 -5 -3 -2 -3 -4 -3 -3 -4 -5 -2 -2 -3 -4 -3 -4 -4 -2 -2 -3 -6 -8 -6 -6 -6 -5 -4 -2 -2 -3 -3 -4 -5 -6 -6 -9 -10 -10
-0 -3 -2 -2 -1 -2 -1 -1 -1 -3 -3 -3 -3 -3 -2 -3 -3 -3 -4 -3 -3 -3 -2 -3 -3 -4 -6 -8 -6 -7 -4 -4 -3 -3 -3 -3 -4 -5 -6 -7 -10 -10 -11 -11
1 1 2 1 -1 -1 -3 -3 -5 -5 -4 -2 -3 -3 -3 -3 -3 -3 -4 -4 -4 -2 -3 -2 -2 -7 -7 -8 -7 -6 -4 -4 -3 -4 -4 -4 -6 -6 -7 -9 -9 -12 -12 -10
0 0 -0 -1 -2 -1 -2 -4 -3 -5 -2 -5 -3 -3 -2 -3 -3 -4 -4 -4 -4 -3 -3 -2 -6 -9 -9 -7 -7 -6 -5 -6 -4 -4 -4 -5 -5 -6 -7 -8 -12 -12 -10 -10
-1 -1 0 -0 -1 -1 -2 -3 -3 -4 -3 -2 -2 -3 -4 -4 -4 -3 -3 -3 -2 -0 -3 -8 -8 -8 -9 -7 -6 -6 -6 -5 -3 -3 -4 -5 -5 -6 -7 -11 -12 -10 -10 -10

GFSNW_850_dewp_123.txt.gz
Dewpoint
-2 -1 -1 -1 1 -1 0 1 1 0 1 0 -1 -0 -3 -4 -4 -2 -2 -2 -2 -1 -2 -1 -0 1 1 -1 0 3 3 4 5 5 1 2 2 4 4 4 6 6 6 6
-2 -1 -1 -1 0 -2 -1 0 0 1 1 0 1 -4 -4 -3 -3 -2 -2 -1 -2 -3 -2 0 1 0 -1 -1 0 2 2 3 3 1 1 3 5 2 3 2 3 6 6 6
-1 -1 -1 -1 -0 -2 -2 1 1 1 0 0 0 -4 -4 -3 -4 -3 -3 -2 -2 -2 -2 -3 1 -1 -1 -1 -0 0 2 3 4 6 6 5 5 4 3 3 5 5 5 5
-1 -2 -1 -1 -1 -2 -0 1 -0 -0 1 -1 -1 -5 -5 -3 -3 -3 -3 -2 -0 0 -1 -2 1 -1 0 -1 -1 -0 2 3 4 3 2 3 5 5 5 5 5 5 5 4
-2 -2 -2 -1 -2 -2 -1 -0 -0 0 1 0 -2 -4 -5 -3 -4 -3 -2 -1 -1 -1 0 -1 0 -1 0 1 -0 0 -0 1 1 1 1 2 5 4 3 4 2 3 4 4
-2 -2 -2 -1 -1 -1 -0 -0 -1 -1 -2 -2 -2 -3 -6 -4 -4 -4 -3 -1 -1 -0 -1 -2 -2 -2 -1 -1 0 1 1 1 1 2 -0 -1 3 5 2 2 1 1 4 3
-3 -3 -1 -2 -1 -1 -2 -2 -3 -3 -1 -2 -2 -6 -5 -3 -3 -3 -2 -1 -1 -2 -1 -1 -1 -2 -1 -1 -0 -1 1 1 1 1 -1 3 2 1 1 2 2 1 1 2
-3 -2 -2 -5 -1 -2 -3 -7 -5 -4 -4 -4 -6 -5 -4 -3 -2 -2 -1 -2 -1 -1 0 1 0 0 0 0 -0 -0 -1 1 1 1 2 2 2 1 2 3 3 1 1 0
-3 -4 -3 -6 -5 -3 -2 -4 -4 -4 -4 -4 -4 -5 -4 -3 -2 -2 -1 -2 -1 0 2 1 1 1 -1 1 0 -1 -1 -1 1 0 2 3 1 -0 -1 -0 4 1 1 1
-3 -4 -4 -4 -4 -3 -1 -1 -1 -5 -5 -4 -4 -5 -5 -4 -2 -2 -1 -1 -0 -0 1 1 1 1 -1 0 -1 -0 -2 -2 0 1 1 0 -1 -1 -1 3 3 1 1 1
-2 -2 -3 -4 -4 -4 -1 -2 -2 -7 -5 -4 -5 -5 -5 -4 -3 -2 -1 -1 -1 -1 1 0 -0 0 -1 -1 -2 -1 -2 -1 -1 -1 0 -0 -1 -1 1 1 1 1 1 1
-2 -3 -3 -4 -3 -1 -2 -5 -7 -7 -5 -5 -6 -5 -5 -5 -4 -2 -2 -1 -1 1 0 -1 -1 -0 -2 -2 -1 -2 -2 -2 -2 -1 -1 -0 1 1 2 1 2 2 2 2
-2 -4 -3 -3 -3 -1 -2 -6 -8 -7 -6 -4 -4 -6 -6 -7 -6 -2 -2 -2 -1 -1 -2 -1 -1 -0 -2 -2 -2 -2 -3 -3 -2 -1 -1 0 1 1 2 2 2 2 2 2
1 -3 -3 -2 -1 -1 -3 -7 -8 -6 -4 -5 -6 -6 -6 -6 -5 -4 -3 -4 -2 -2 -3 -1 -1 -1 -2 -1 -3 -2 -3 -3 -2 -1 -0 0 1 1 2 2 1 1 2 2
0 -1 -3 -1 -0 -1 -8 -9 -9 -8 -4 -5 -5 -6 -6 -6 -5 -5 -4 -3 -2 -2 -2 -2 -2 -2 -3 -3 -3 -2 -3 -2 -2 -1 -1 -1 -1 0 1 1 0 0 0 1
-2 -1 -0 0 -5 -8 -8 -9 -10 -9 -6 -9 -6 -5 -5 -5 -5 -5 -4 -4 -3 -3 -3 -3 -3 -3 -3 -2 -2 -6 -5 -3 -5 -4 -4 -2 -2 0 1 -0 -0 -0 0 0
-4 -5 -6 -8 -8 -8 -8 -6 -8 -9 -8 -6 -4 -4 -6 -5 -5 -5 -5 -5 -5 -4 -3 -4 -3 -3 -3 -3 -2 -7 -7 -4 -4 -4 -3 -1 -1 1 1 -0 -1 -1 -0 -1
-4 -4 -5 -7 -8 -9 -10 -9 -8 -9 -8 -6 -4 -4 -5 -6 -4 -3 -6 -4 -5 -4 -4 -3 -4 -3 -3 -2 -4 -7 -6 -3 -2 -3 -3 -3 -1 -1 1 -0 -1 -0 -1 -1
-4 -4 -2 -0 -5 -7 -7 -11 -10 -9 -10 -4 -4 -6 -6 -5 -3 -3 -5 -4 -4 -4 -4 -4 -3 -4 -2 -6 -8 -7 -5 -3 -2 -1 -2 -2 -2 -1 -1 -1 -1 -1 -1 -3
-2 -2 -2 1 -1 -6 -5 -9 -10 -9 -8 -9 -4 -2 -4 -4 -4 -4 -3 -3 -3 -5 -3 -3 -3 -3 -7 -9 -10 -11 -8 -5 -5 -1 -1 -1 -1 -1 -1 -1 -1 -1 -3 -4
1 1 1 -3 -7 -6 -7 -9 -6 -5 -6 -6 -5 -3 -4 -3 -4 -3 -3 -5 -4 -5 -3 -4 -3 -2 -3 -7 -12 -9 -7 -7 -8 -7 -6 -4 -5 -3 -2 -1 -1 -3 -5 -6
1 -2 -3 -6 -7 -7 -7 -7 -5 -4 -5 -4 -4 -4 -4 -4 -2 -3 -4 -5 -7 -6 -4 -5 -3 -5 -7 -6 -8 -9 -8 -7 -7 -4 -5 -4 -3 -3 -2 -2 -3 -5 -6 -8
-3 -7 -7 -8 -5 -7 -7 -8 -6 -5 -4 -4 -3 -4 -5 -4 -3 -3 -5 -5 -4 -4 -6 -4 -5 -6 -6 -7 -8 -6 -8 -7 -6 -4 -3 -4 -3 -3 -2 -3 -4 -6 -7 -10
-3 -4 -5 -4 -4 -4 -4 -5 -6 -5 -4 -4 -4 -3 -3 -3 -3 -4 -5 -4 -4 -5 -4 -4 -5 -7 -7 -9 -9 -7 -7 -6 -5 -4 -3 -3 -3 -3 -4 -5 -6 -8 -10 -11
1 0 1 -4 -3 -1 -2 -2 -3 -5 -5 -4 -4 -3 -4 -4 -4 -4 -5 -5 -4 -4 -5 -4 -5 -5 -6 -8 -8 -7 -6 -6 -4 -4 -4 -4 -4 -4 -5 -6 -8 -9 -10 -13
0 0 0 -1 -2 -3 -2 -4 -4 -5 -5 -5 -4 -3 -2 -2 -3 -4 -4 -7 -7 -6 -3 -7 -4 -9 -10 -9 -9 -7 -6 -5 -5 -4 -4 -3 -4 -6 -6 -7 -8 -10 -13 -12
-1 -1 0 -0 -1 -2 -2 -2 -4 -5 -3 -2 -3 -3 -3 -4 -5 -4 -5 -5 -5 -3 -3 -5 -8 -8 -10 -9 -9 -8 -6 -4 -4 -3 -3 -4 -5 -5 -6 -8 -9 -13 -13 -12